Wetterdaten: Mittwoch, 26.07.2023
Datum Zeit Temp. I. Temp. A. Feuchte I. Feuchte A. Luftdruck Regen Wind Richtung Richtung Sonnenschein Solar Taupunkt Windchill Windböen
26.07.2023 00:00 22,4 °C 13,7 °C 57 % 89 % 1007,8 hPa 0,0 l/m² 0,0 km/h (0 Bft) W-SW 251 ° 0 min 0 W/m² 11,9 °C 13,7 °C 0,0 km/h (0 Bft)
26.07.2023 00:02 22,4 °C 13,7 °C 57 % 89 % 1007,9 hPa 0,0 l/m² 0,0 km/h (0 Bft) W-SW 251 ° 0 min 0 W/m² 11,9 °C 13,7 °C 0,0 km/h (0 Bft)
26.07.2023 00:03 22,4 °C 13,7 °C 57 % 89 % 1007,9 hPa 0,0 l/m² 0,0 km/h (0 Bft) W-SW 251 ° 0 min 0 W/m² 11,9 °C 13,7 °C 0,0 km/h (0 Bft)
26.07.2023 00:05 22,4 °C 13,7 °C 57 % 89 % 1007,9 hPa 0,0 l/m² 0,0 km/h (0 Bft) W-SW 251 ° 0 min 0 W/m² 11,9 °C 13,7 °C 0,0 km/h (0 Bft)
26.07.2023 00:07 22,4 °C 13,7 °C 57 % 89 % 1007,8 hPa 0,0 l/m² 0,0 km/h (0 Bft) W-SW 251 ° 0 min 0 W/m² 11,9 °C 13,7 °C 0,0 km/h (0 Bft)
26.07.2023 00:09 22,4 °C 13,7 °C 57 % 89 % 1007,9 hPa 0,0 l/m² 0,1 km/h (0 Bft) W-SW 251 ° 0 min 0 W/m² 11,9 °C 13,7 °C 1,6 km/h (1 Bft)
26.07.2023 00:11 22,4 °C 13,7 °C 57 % 89 % 1008,0 hPa 0,0 l/m² 1,5 km/h (1 Bft) W-SW 251 ° 0 min 0 W/m² 11,9 °C 13,7 °C 4,8 km/h (1 Bft)
26.07.2023 00:12 22,4 °C 13,7 °C 57 % 89 % 1007,9 hPa 0,0 l/m² 0,5 km/h (0 Bft) W-SW 251 ° 0 min 0 W/m² 11,9 °C 13,7 °C 1,6 km/h (1 Bft)
26.07.2023 00:13 22,4 °C 13,7 °C 57 % 89 % 1007,9 hPa 0,0 l/m² 0,0 km/h (0 Bft) W-SW 251 ° 0 min 0 W/m² 11,9 °C 13,7 °C 0,0 km/h (0 Bft)
26.07.2023 00:15 22,4 °C 13,7 °C 57 % 89 % 1007,9 hPa 0,0 l/m² 0,1 km/h (0 Bft) W-SW 251 ° 0 min 0 W/m² 11,9 °C 13,7 °C 1,6 km/h (1 Bft)
26.07.2023 00:17 22,4 °C 13,7 °C 57 % 90 % 1008,0 hPa 0,0 l/m² 1,4 km/h (1 Bft) W-SW 251 ° 0 min 0 W/m² 12,1 °C 13,7 °C 3,2 km/h (1 Bft)
26.07.2023 00:19 22,4 °C 13,7 °C 57 % 90 % 1008,0 hPa 0,0 l/m² 0,4 km/h (0 Bft) W-SW 251 ° 0 min 0 W/m² 12,1 °C 13,7 °C 1,6 km/h (1 Bft)
26.07.2023 00:21 22,4 °C 13,7 °C 57 % 90 % 1007,9 hPa 0,0 l/m² 0,2 km/h (0 Bft) W-SW 251 ° 0 min 0 W/m² 12,1 °C 13,7 °C 1,6 km/h (1 Bft)
26.07.2023 00:23 22,4 °C 13,7 °C 57 % 90 % 1007,9 hPa 0,0 l/m² 0,9 km/h (0 Bft) W-SW 251 ° 0 min 0 W/m² 12,1 °C 13,7 °C 1,6 km/h (1 Bft)
26.07.2023 00:24 22,4 °C 13,7 °C 57 % 90 % 1008,0 hPa 0,0 l/m² 1,6 km/h (1 Bft) W-SW 251 ° 0 min 0 W/m² 12,1 °C 13,7 °C 1,6 km/h (1 Bft)
26.07.2023 00:25 22,4 °C 13,7 °C 57 % 90 % 1008,0 hPa 0,0 l/m² 1,7 km/h (1 Bft) W-SW 251 ° 0 min 0 W/m² 12,1 °C 13,7 °C 3,2 km/h (1 Bft)
26.07.2023 00:27 22,4 °C 13,7 °C 57 % 90 % 1008,0 hPa 0,0 l/m² 2,2 km/h (1 Bft) W-SW 251 ° 0 min 0 W/m² 12,1 °C 13,7 °C 3,2 km/h (1 Bft)
26.07.2023 00:29 22,4 °C 13,7 °C 57 % 90 % 1008,1 hPa 0,0 l/m² 2,5 km/h (1 Bft) W-SW 251 ° 0 min 0 W/m² 12,1 °C 13,7 °C 3,2 km/h (1 Bft)
26.07.2023 00:31 22,4 °C 13,7 °C 57 % 90 % 1008,0 hPa 0,0 l/m² 1,7 km/h (1 Bft) W-SW 251 ° 0 min 0 W/m² 12,1 °C 13,7 °C 3,2 km/h (1 Bft)
26.07.2023 00:32 22,4 °C 13,7 °C 57 % 90 % 1008,0 hPa 0,0 l/m² 2,1 km/h (1 Bft) W-SW 251 ° 0 min 0 W/m² 12,1 °C 13,7 °C 3,2 km/h (1 Bft)
26.07.2023 00:34 22,4 °C 13,7 °C 57 % 90 % 1008,1 hPa 0,0 l/m² 1,0 km/h (0 Bft) W-SW 251 ° 0 min 0 W/m² 12,1 °C 13,7 °C 3,2 km/h (1 Bft)
26.07.2023 00:36 22,4 °C 13,6 °C 57 % 90 % 1008,0 hPa 0,0 l/m² 2,1 km/h (1 Bft) W-SW 251 ° 0 min 0 W/m² 12,0 °C 13,6 °C 3,2 km/h (1 Bft)
26.07.2023 00:38 22,4 °C 13,6 °C 57 % 90 % 1008,1 hPa 0,0 l/m² 2,2 km/h (1 Bft) W-SW 251 ° 0 min 0 W/m² 12,0 °C 13,6 °C 3,2 km/h (1 Bft)
26.07.2023 00:40 22,4 °C 13,7 °C 57 % 90 % 1008,1 hPa 0,0 l/m² 2,7 km/h (1 Bft) W-SW 251 ° 0 min 0 W/m² 12,1 °C 13,7 °C 4,8 km/h (1 Bft)
26.07.2023 00:42 22,4 °C 13,7 °C 57 % 90 % 1008,2 hPa 0,0 l/m² 4,3 km/h (1 Bft) W-SW 251 ° 0 min 0 W/m² 12,1 °C 13,7 °C 4,8 km/h (1 Bft)
26.07.2023 00:43 22,4 °C 13,7 °C 57 % 90 % 1008,2 hPa 0,0 l/m² 4,4 km/h (1 Bft) W-SW 250 ° 0 min 0 W/m² 12,1 °C 13,7 °C 4,8 km/h (1 Bft)
26.07.2023 00:46 22,4 °C 13,6 °C 57 % 90 % 1008,2 hPa 0,0 l/m² 3,4 km/h (1 Bft) W-SW 251 ° 0 min 0 W/m² 12,0 °C 13,6 °C 4,8 km/h (1 Bft)
26.07.2023 00:48 22,4 °C 13,7 °C 57 % 90 % 1008,3 hPa 0,0 l/m² 3,5 km/h (1 Bft) W-SW 251 ° 0 min 0 W/m² 12,1 °C 13,7 °C 4,8 km/h (1 Bft)
26.07.2023 00:50 22,4 °C 13,7 °C 57 % 90 % 1008,4 hPa 0,0 l/m² 3,6 km/h (1 Bft) W-SW 251 ° 0 min 0 W/m² 12,1 °C 13,7 °C 4,8 km/h (1 Bft)
26.07.2023 00:52 22,4 °C 13,7 °C 57 % 90 % 1008,4 hPa 0,0 l/m² 2,7 km/h (1 Bft) W-SW 251 ° 0 min 0 W/m² 12,1 °C 13,7 °C 4,8 km/h (1 Bft)
26.07.2023 00:53 22,4 °C 13,7 °C 57 % 90 % 1008,4 hPa 0,0 l/m² 3,5 km/h (1 Bft) W-SW 251 ° 0 min 0 W/m² 12,1 °C 13,7 °C 4,8 km/h (1 Bft)
26.07.2023 00:54 22,4 °C 13,7 °C 57 % 90 % 1008,4 hPa 0,0 l/m² 3,0 km/h (1 Bft) W-SW 251 ° 0 min 0 W/m² 12,1 °C 13,7 °C 3,2 km/h (1 Bft)
26.07.2023 00:56 22,4 °C 13,7 °C 57 % 90 % 1008,3 hPa 0,0 l/m² 3,8 km/h (1 Bft) W-SW 251 ° 0 min 0 W/m² 12,1 °C 13,7 °C 4,8 km/h (1 Bft)
26.07.2023 00:58 22,4 °C 13,6 °C 57 % 90 % 1008,4 hPa 0,0 l/m² 2,2 km/h (1 Bft) W-SW 251 ° 0 min 0 W/m² 12,0 °C 13,6 °C 4,8 km/h (1 Bft)
26.07.2023 01:00 22,4 °C 13,7 °C 57 % 90 % 1008,5 hPa 0,0 l/m² 1,0 km/h (0 Bft) W-SW 251 ° 0 min 0 W/m² 12,1 °C 13,7 °C 4,8 km/h (1 Bft)
26.07.2023 01:02 22,4 °C 13,7 °C 57 % 90 % 1008,5 hPa 0,0 l/m² 2,5 km/h (1 Bft) W-SW 251 ° 0 min 0 W/m² 12,1 °C 13,7 °C 4,8 km/h (1 Bft)
26.07.2023 01:03 22,4 °C 13,7 °C 57 % 90 % 1008,5 hPa 0,0 l/m² 0,7 km/h (0 Bft) W-SW 251 ° 0 min 0 W/m² 12,1 °C 13,7 °C 1,6 km/h (1 Bft)
26.07.2023 01:04 22,4 °C 13,7 °C 57 % 90 % 1008,4 hPa 0,0 l/m² 0,9 km/h (0 Bft) W-SW 251 ° 0 min 0 W/m² 12,1 °C 13,7 °C 3,2 km/h (1 Bft)
26.07.2023 01:06 22,4 °C 13,7 °C 57 % 90 % 1008,4 hPa 0,0 l/m² 1,0 km/h (0 Bft) W-SW 251 ° 0 min 0 W/m² 12,1 °C 13,7 °C 3,2 km/h (1 Bft)
26.07.2023 01:08 22,4 °C 13,7 °C 57 % 90 % 1008,4 hPa 0,0 l/m² 1,5 km/h (1 Bft) W-SW 251 ° 0 min 0 W/m² 12,1 °C 13,7 °C 3,2 km/h (1 Bft)
26.07.2023 01:10 22,4 °C 13,7 °C 57 % 90 % 1008,3 hPa 0,0 l/m² 1,3 km/h (1 Bft) W-SW 251 ° 0 min 0 W/m² 12,1 °C 13,7 °C 3,2 km/h (1 Bft)
26.07.2023 01:12 22,3 °C 13,7 °C 57 % 90 % 1008,5 hPa 0,0 l/m² 1,4 km/h (1 Bft) W-SW 251 ° 0 min 0 W/m² 12,1 °C 13,7 °C 3,2 km/h (1 Bft)
26.07.2023 01:13 22,3 °C 13,7 °C 57 % 90 % 1008,5 hPa 0,0 l/m² 1,3 km/h (1 Bft) W-SW 251 ° 0 min 0 W/m² 12,1 °C 13,7 °C 1,6 km/h (1 Bft)
26.07.2023 01:14 22,4 °C 13,7 °C 57 % 90 % 1008,5 hPa 0,0 l/m² 1,7 km/h (1 Bft) W-SW 251 ° 0 min 0 W/m² 12,1 °C 13,7 °C 3,2 km/h (1 Bft)
26.07.2023 01:16 22,4 °C 13,7 °C 57 % 90 % 1008,5 hPa 0,0 l/m² 0,7 km/h (0 Bft) W-SW 251 ° 0 min 0 W/m² 12,1 °C 13,7 °C 3,2 km/h (1 Bft)
26.07.2023 01:18 22,3 °C 13,7 °C 57 % 90 % 1008,6 hPa 0,0 l/m² 1,5 km/h (1 Bft) W-SW 251 ° 0 min 0 W/m² 12,1 °C 13,7 °C 4,8 km/h (1 Bft)
26.07.2023 01:20 22,4 °C 13,7 °C 57 % 90 % 1008,6 hPa 0,0 l/m² 0,7 km/h (0 Bft) W-SW 251 ° 0 min 0 W/m² 12,1 °C 13,7 °C 3,2 km/h (1 Bft)
26.07.2023 01:22 22,3 °C 13,7 °C 57 % 90 % 1008,5 hPa 0,0 l/m² 1,5 km/h (1 Bft) W-SW 251 ° 0 min 0 W/m² 12,1 °C 13,7 °C 3,2 km/h (1 Bft)
26.07.2023 01:23 22,4 °C 13,7 °C 57 % 90 % 1008,5 hPa 0,0 l/m² 1,2 km/h (1 Bft) W-SW 251 ° 0 min 0 W/m² 12,1 °C 13,7 °C 3,2 km/h (1 Bft)
26.07.2023 01:24 22,4 °C 13,7 °C 57 % 90 % 1008,6 hPa 0,0 l/m² 2,1 km/h (1 Bft) W-SW 257 ° 0 min 0 W/m² 12,1 °C 13,7 °C 4,8 km/h (1 Bft)
26.07.2023 01:26 22,4 °C 13,7 °C 57 % 90 % 1008,6 hPa 0,0 l/m² 2,8 km/h (1 Bft) W-NW 285 ° 0 min 0 W/m² 12,1 °C 13,7 °C 4,8 km/h (1 Bft)
26.07.2023 01:28 22,3 °C 13,7 °C 57 % 90 % 1008,6 hPa 0,0 l/m² 2,5 km/h (1 Bft) W-NW 285 ° 0 min 0 W/m² 12,1 °C 13,7 °C 4,8 km/h (1 Bft)
26.07.2023 01:30 22,4 °C 13,7 °C 57 % 90 % 1008,5 hPa 0,0 l/m² 2,6 km/h (1 Bft) W-NW 288 ° 0 min 0 W/m² 12,1 °C 13,7 °C 6,4 km/h (2 Bft)
26.07.2023 01:32 22,3 °C 13,7 °C 57 % 89 % 1008,6 hPa 0,0 l/m² 2,7 km/h (1 Bft) W-NW 288 ° 0 min 0 W/m² 11,9 °C 13,7 °C 4,8 km/h (1 Bft)
26.07.2023 01:33 22,3 °C 13,7 °C 57 % 89 % 1008,6 hPa 0,0 l/m² 3,6 km/h (1 Bft) W-NW 288 ° 0 min 0 W/m² 11,9 °C 13,7 °C 6,4 km/h (2 Bft)
26.07.2023 01:34 22,3 °C 13,7 °C 57 % 89 % 1008,5 hPa 0,0 l/m² 2,2 km/h (1 Bft) W-NW 288 ° 0 min 0 W/m² 11,9 °C 13,7 °C 4,8 km/h (1 Bft)
26.07.2023 01:36 22,4 °C 13,7 °C 57 % 89 % 1008,7 hPa 0,0 l/m² 2,2 km/h (1 Bft) W-NW 288 ° 0 min 0 W/m² 11,9 °C 13,7 °C 4,8 km/h (1 Bft)
26.07.2023 01:38 22,3 °C 13,7 °C 57 % 89 % 1008,6 hPa 0,0 l/m² 1,1 km/h (1 Bft) W-NW 288 ° 0 min 0 W/m² 11,9 °C 13,7 °C 3,2 km/h (1 Bft)
26.07.2023 01:40 22,3 °C 13,7 °C 57 % 89 % 1008,6 hPa 0,0 l/m² 1,0 km/h (0 Bft) W-NW 288 ° 0 min 0 W/m² 11,9 °C 13,7 °C 3,2 km/h (1 Bft)
26.07.2023 01:42 22,3 °C 13,7 °C 57 % 89 % 1008,8 hPa 0,0 l/m² 1,0 km/h (0 Bft) W-NW 288 ° 0 min 0 W/m² 11,9 °C 13,7 °C 3,2 km/h (1 Bft)
26.07.2023 01:43 22,3 °C 13,7 °C 57 % 89 % 1008,6 hPa 0,0 l/m² 0,3 km/h (0 Bft) W-NW 288 ° 0 min 0 W/m² 11,9 °C 13,7 °C 1,6 km/h (1 Bft)
26.07.2023 01:44 22,3 °C 13,7 °C 57 % 89 % 1008,6 hPa 0,0 l/m² 1,4 km/h (1 Bft) W-NW 288 ° 0 min 0 W/m² 11,9 °C 13,7 °C 3,2 km/h (1 Bft)
26.07.2023 01:46 22,3 °C 13,7 °C 57 % 89 % 1008,7 hPa 0,0 l/m² 1,0 km/h (0 Bft) W-NW 288 ° 0 min 0 W/m² 11,9 °C 13,7 °C 3,2 km/h (1 Bft)
26.07.2023 01:48 22,3 °C 13,7 °C 57 % 89 % 1008,7 hPa 0,0 l/m² 0,7 km/h (0 Bft) W-NW 288 ° 0 min 0 W/m² 11,9 °C 13,7 °C 3,2 km/h (1 Bft)
26.07.2023 01:50 22,3 °C 13,7 °C 57 % 89 % 1008,7 hPa 0,0 l/m² 0,9 km/h (0 Bft) W-NW 288 ° 0 min 0 W/m² 11,9 °C 13,7 °C 3,2 km/h (1 Bft)
26.07.2023 01:52 22,3 °C 13,7 °C 57 % 89 % 1008,7 hPa 0,0 l/m² 1,0 km/h (0 Bft) W-NW 288 ° 0 min 0 W/m² 11,9 °C 13,7 °C 3,2 km/h (1 Bft)
26.07.2023 01:53 22,3 °C 13,7 °C 57 % 89 % 1008,7 hPa 0,0 l/m² 1,1 km/h (1 Bft) W-NW 288 ° 0 min 0 W/m² 11,9 °C 13,7 °C 3,2 km/h (1 Bft)
26.07.2023 01:54 22,3 °C 13,7 °C 57 % 89 % 1008,7 hPa 0,0 l/m² 2,0 km/h (1 Bft) W-NW 288 ° 0 min 0 W/m² 11,9 °C 13,7 °C 4,8 km/h (1 Bft)
26.07.2023 01:56 22,3 °C 13,7 °C 57 % 88 % 1008,8 hPa 0,0 l/m² 1,8 km/h (1 Bft) W-NW 288 ° 0 min 0 W/m² 11,7 °C 13,7 °C 4,8 km/h (1 Bft)
26.07.2023 01:58 22,3 °C 13,7 °C 57 % 88 % 1008,8 hPa 0,0 l/m² 1,3 km/h (1 Bft) W-NW 288 ° 0 min 0 W/m² 11,7 °C 13,7 °C 3,2 km/h (1 Bft)
26.07.2023 02:00 22,3 °C 13,7 °C 57 % 88 % 1008,8 hPa 0,0 l/m² 1,0 km/h (0 Bft) W-NW 288 ° 0 min 0 W/m² 11,7 °C 13,7 °C 1,6 km/h (1 Bft)
26.07.2023 02:02 22,3 °C 13,7 °C 57 % 88 % 1008,8 hPa 0,0 l/m² 1,1 km/h (1 Bft) W-NW 288 ° 0 min 0 W/m² 11,7 °C 13,7 °C 3,2 km/h (1 Bft)
26.07.2023 02:03 22,3 °C 13,7 °C 57 % 88 % 1008,8 hPa 0,0 l/m² 1,0 km/h (0 Bft) W-NW 288 ° 0 min 0 W/m² 11,7 °C 13,7 °C 3,2 km/h (1 Bft)
26.07.2023 02:04 22,3 °C 13,7 °C 57 % 88 % 1008,8 hPa 0,0 l/m² 2,0 km/h (1 Bft) W-NW 288 ° 0 min 0 W/m² 11,7 °C 13,7 °C 3,2 km/h (1 Bft)
26.07.2023 02:06 22,3 °C 13,7 °C 57 % 88 % 1008,8 hPa 0,0 l/m² 0,5 km/h (0 Bft) W-NW 288 ° 0 min 0 W/m² 11,7 °C 13,7 °C 1,6 km/h (1 Bft)
26.07.2023 02:08 22,3 °C 13,7 °C 57 % 88 % 1008,8 hPa 0,0 l/m² 0,7 km/h (0 Bft) W-NW 288 ° 0 min 0 W/m² 11,7 °C 13,7 °C 3,2 km/h (1 Bft)
26.07.2023 02:10 22,3 °C 13,7 °C 57 % 88 % 1008,8 hPa 0,0 l/m² 0,8 km/h (0 Bft) W-NW 288 ° 0 min 0 W/m² 11,7 °C 13,7 °C 3,2 km/h (1 Bft)
26.07.2023 02:12 22,3 °C 13,8 °C 57 % 88 % 1008,8 hPa 0,0 l/m² 1,7 km/h (1 Bft) W-NW 288 ° 0 min 0 W/m² 11,8 °C 13,8 °C 6,4 km/h (2 Bft)
26.07.2023 02:13 22,3 °C 13,8 °C 57 % 88 % 1008,8 hPa 0,0 l/m² 3,8 km/h (1 Bft) W-NW 288 ° 0 min 0 W/m² 11,8 °C 13,8 °C 6,4 km/h (2 Bft)
26.07.2023 02:14 22,3 °C 13,8 °C 57 % 88 % 1008,9 hPa 0,0 l/m² 1,5 km/h (1 Bft) W-NW 288 ° 0 min 0 W/m² 11,8 °C 13,8 °C 3,2 km/h (1 Bft)
26.07.2023 02:16 22,3 °C 13,7 °C 57 % 88 % 1008,8 hPa 0,0 l/m² 2,7 km/h (1 Bft) W-NW 288 ° 0 min 0 W/m² 11,7 °C 13,7 °C 6,4 km/h (2 Bft)
26.07.2023 02:19 22,3 °C 13,7 °C 57 % 88 % 1008,9 hPa 0,0 l/m² 3,0 km/h (1 Bft) W-NW 296 ° 0 min 0 W/m² 11,7 °C 13,7 °C 8,0 km/h (2 Bft)
26.07.2023 02:20 22,3 °C 13,7 °C 57 % 88 % 1008,9 hPa 0,0 l/m² 2,7 km/h (1 Bft) W-NW 296 ° 0 min 0 W/m² 11,7 °C 13,7 °C 4,8 km/h (1 Bft)
26.07.2023 02:21 22,3 °C 13,7 °C 57 % 88 % 1008,9 hPa 0,0 l/m² 3,6 km/h (1 Bft) W-NW 297 ° 0 min 0 W/m² 11,7 °C 13,7 °C 6,4 km/h (2 Bft)
26.07.2023 02:22 22,3 °C 13,7 °C 57 % 87 % 1008,9 hPa 0,0 l/m² 3,2 km/h (1 Bft) W-NW 301 ° 0 min 0 W/m² 11,6 °C 13,7 °C 6,4 km/h (2 Bft)
26.07.2023 02:23 22,3 °C 13,7 °C 57 % 87 % 1008,9 hPa 0,0 l/m² 2,3 km/h (1 Bft) W-NW 301 ° 0 min 0 W/m² 11,6 °C 13,7 °C 4,8 km/h (1 Bft)
26.07.2023 02:25 22,3 °C 13,7 °C 57 % 87 % 1008,9 hPa 0,0 l/m² 2,7 km/h (1 Bft) W-NW 293 ° 0 min 0 W/m² 11,6 °C 13,7 °C 9,7 km/h (2 Bft)
26.07.2023 02:27 22,3 °C 13,7 °C 57 % 87 % 1008,9 hPa 0,0 l/m² 3,2 km/h (1 Bft) W-NW 290 ° 0 min 0 W/m² 11,6 °C 13,7 °C 6,4 km/h (2 Bft)
26.07.2023 02:29 22,3 °C 13,8 °C 57 % 87 % 1009,0 hPa 0,0 l/m² 3,1 km/h (1 Bft) W-NW 296 ° 0 min 0 W/m² 11,7 °C 13,8 °C 6,4 km/h (2 Bft)
26.07.2023 02:31 22,3 °C 13,7 °C 57 % 87 % 1008,9 hPa 0,0 l/m² 3,7 km/h (1 Bft) W-NW 292 ° 0 min 0 W/m² 11,6 °C 13,7 °C 11,3 km/h (2 Bft)
26.07.2023 02:33 22,3 °C 13,7 °C 57 % 87 % 1008,9 hPa 0,0 l/m² 3,5 km/h (1 Bft) NW 309 ° 0 min 0 W/m² 11,6 °C 13,7 °C 9,7 km/h (2 Bft)
26.07.2023 02:34 22,3 °C 13,7 °C 57 % 87 % 1008,9 hPa 0,0 l/m² 2,2 km/h (1 Bft) W-NW 294 ° 0 min 0 W/m² 11,6 °C 13,7 °C 4,8 km/h (1 Bft)
26.07.2023 02:35 22,3 °C 13,7 °C 57 % 87 % 1009,0 hPa 0,0 l/m² 3,1 km/h (1 Bft) NW 310 ° 0 min 0 W/m² 11,6 °C 13,7 °C 6,4 km/h (2 Bft)
26.07.2023 02:37 22,3 °C 13,7 °C 57 % 87 % 1009,0 hPa 0,0 l/m² 2,0 km/h (1 Bft) NW 311 ° 0 min 0 W/m² 11,6 °C 13,7 °C 4,8 km/h (1 Bft)
26.07.2023 02:39 22,3 °C 13,7 °C 57 % 87 % 1009,0 hPa 0,0 l/m² 2,5 km/h (1 Bft) W-NW 300 ° 0 min 0 W/m² 11,6 °C 13,7 °C 6,4 km/h (2 Bft)
26.07.2023 02:41 22,3 °C 13,7 °C 57 % 87 % 1009,0 hPa 0,0 l/m² 2,3 km/h (1 Bft) NW 309 ° 0 min 0 W/m² 11,6 °C 13,7 °C 4,8 km/h (1 Bft)
26.07.2023 02:42 22,3 °C 13,8 °C 57 % 87 % 1009,0 hPa 0,0 l/m² 3,6 km/h (1 Bft) W 278 ° 0 min 0 W/m² 11,7 °C 13,8 °C 6,4 km/h (2 Bft)
26.07.2023 02:44 22,3 °C 13,7 °C 57 % 87 % 1009,0 hPa 0,0 l/m² 3,9 km/h (1 Bft) W 279 ° 0 min 0 W/m² 11,6 °C 13,7 °C 8,0 km/h (2 Bft)
26.07.2023 02:46 22,3 °C 13,7 °C 57 % 87 % 1009,0 hPa 0,0 l/m² 4,8 km/h (1 Bft) W-NW 301 ° 0 min 0 W/m² 11,6 °C 13,7 °C 8,0 km/h (2 Bft)
26.07.2023 02:48 22,3 °C 13,8 °C 57 % 87 % 1009,1 hPa 0,0 l/m² 3,4 km/h (1 Bft) NW 304 ° 0 min 0 W/m² 11,7 °C 13,8 °C 8,0 km/h (2 Bft)
26.07.2023 02:50 22,3 °C 13,8 °C 57 % 86 % 1009,0 hPa 0,0 l/m² 2,5 km/h (1 Bft) NW 307 ° 0 min 0 W/m² 11,5 °C 13,8 °C 6,4 km/h (2 Bft)
26.07.2023 02:52 22,3 °C 13,8 °C 57 % 87 % 1009,1 hPa 0,0 l/m² 4,1 km/h (1 Bft) W-NW 289 ° 0 min 0 W/m² 11,7 °C 13,8 °C 8,0 km/h (2 Bft)
26.07.2023 02:53 22,3 °C 13,8 °C 57 % 87 % 1009,1 hPa 0,0 l/m² 2,6 km/h (1 Bft) W-NW 292 ° 0 min 0 W/m² 11,7 °C 13,8 °C 4,8 km/h (1 Bft)
26.07.2023 02:54 22,3 °C 13,8 °C 57 % 86 % 1009,1 hPa 0,0 l/m² 0,9 km/h (0 Bft) W-NW 289 ° 0 min 0 W/m² 11,5 °C 13,8 °C 1,6 km/h (1 Bft)
26.07.2023 02:56 22,3 °C 13,7 °C 57 % 86 % 1009,0 hPa 0,0 l/m² 2,4 km/h (1 Bft) W-NW 285 ° 0 min 0 W/m² 11,4 °C 13,7 °C 9,7 km/h (2 Bft)
26.07.2023 02:58 22,3 °C 13,7 °C 57 % 86 % 1009,1 hPa 0,0 l/m² 2,6 km/h (1 Bft) W-NW 300 ° 0 min 0 W/m² 11,4 °C 13,7 °C 6,4 km/h (2 Bft)
26.07.2023 03:00 22,3 °C 13,7 °C 57 % 86 % 1009,1 hPa 0,0 l/m² 3,0 km/h (1 Bft) NW 315 ° 0 min 0 W/m² 11,4 °C 13,7 °C 6,4 km/h (2 Bft)
26.07.2023 03:01 22,3 °C 13,7 °C 57 % 86 % 1009,1 hPa 0,0 l/m² 3,2 km/h (1 Bft) W 270 ° 0 min 0 W/m² 11,4 °C 13,7 °C 4,8 km/h (1 Bft)
26.07.2023 03:07 22,3 °C 13,7 °C 57 % 86 % 1009,2 hPa 0,0 l/m² 4,2 km/h (1 Bft) W-NW 285 ° 0 min 0 W/m² 11,4 °C 13,7 °C 9,7 km/h (2 Bft)
26.07.2023 03:08 22,3 °C 13,7 °C 57 % 86 % 1009,2 hPa 0,0 l/m² 4,1 km/h (1 Bft) W 271 ° 0 min 0 W/m² 11,4 °C 13,7 °C 11,3 km/h (2 Bft)
26.07.2023 03:09 22,3 °C 13,7 °C 57 % 86 % 1009,3 hPa 0,0 l/m² 6,4 km/h (2 Bft) W-NW 300 ° 0 min 0 W/m² 11,4 °C 13,7 °C 11,3 km/h (2 Bft)
26.07.2023 03:10 22,3 °C 13,7 °C 57 % 86 % 1009,2 hPa 0,0 l/m² 5,1 km/h (1 Bft) W 269 ° 0 min 0 W/m² 11,4 °C 13,7 °C 8,0 km/h (2 Bft)
26.07.2023 03:12 22,3 °C 13,6 °C 57 % 86 % 1009,2 hPa 0,0 l/m² 3,6 km/h (1 Bft) W-NW 298 ° 0 min 0 W/m² 11,3 °C 13,6 °C 9,7 km/h (2 Bft)
26.07.2023 03:13 22,3 °C 13,6 °C 57 % 86 % 1009,2 hPa 0,0 l/m² 2,8 km/h (1 Bft) W-NW 296 ° 0 min 0 W/m² 11,3 °C 13,6 °C 4,8 km/h (1 Bft)
26.07.2023 03:15 22,3 °C 13,6 °C 57 % 85 % 1009,3 hPa 0,0 l/m² 4,5 km/h (1 Bft) W-NW 300 ° 0 min 0 W/m² 11,1 °C 13,6 °C 8,0 km/h (2 Bft)
26.07.2023 03:17 22,3 °C 13,6 °C 57 % 85 % 1009,3 hPa 0,0 l/m² 4,2 km/h (1 Bft) W 266 ° 0 min 0 W/m² 11,1 °C 13,6 °C 9,7 km/h (2 Bft)
26.07.2023 03:19 22,3 °C 13,6 °C 57 % 85 % 1009,3 hPa 0,0 l/m² 4,5 km/h (1 Bft) W 277 ° 0 min 0 W/m² 11,1 °C 13,6 °C 8,0 km/h (2 Bft)
26.07.2023 03:20 22,3 °C 13,6 °C 57 % 85 % 1009,4 hPa 0,0 l/m² 5,7 km/h (2 Bft) NW 307 ° 0 min 0 W/m² 11,1 °C 13,6 °C 11,3 km/h (2 Bft)
26.07.2023 03:22 22,3 °C 13,6 °C 57 % 85 % 1009,3 hPa 0,0 l/m² 3,8 km/h (1 Bft) N 5 ° 0 min 0 W/m² 11,1 °C 13,6 °C 8,0 km/h (2 Bft)
26.07.2023 03:23 22,3 °C 13,5 °C 57 % 85 % 1009,3 hPa 0,0 l/m² 4,3 km/h (1 Bft) W-NW 286 ° 0 min 0 W/m² 11,0 °C 13,5 °C 6,4 km/h (2 Bft)
26.07.2023 03:25 22,3 °C 13,4 °C 57 % 85 % 1009,3 hPa 0,0 l/m² 5,4 km/h (2 Bft) W-NW 292 ° 0 min 0 W/m² 10,9 °C 13,4 °C 11,3 km/h (2 Bft)
26.07.2023 03:27 22,3 °C 13,4 °C 57 % 85 % 1009,4 hPa 0,0 l/m² 4,6 km/h (1 Bft) NW 304 ° 0 min 0 W/m² 10,9 °C 13,4 °C 11,3 km/h (2 Bft)
26.07.2023 03:29 22,3 °C 13,4 °C 57 % 85 % 1009,4 hPa 0,0 l/m² 5,4 km/h (2 Bft) W-NW 294 ° 0 min 0 W/m² 10,9 °C 13,4 °C 12,9 km/h (3 Bft)
26.07.2023 03:30 22,3 °C 13,4 °C 57 % 85 % 1009,4 hPa 0,0 l/m² 3,4 km/h (1 Bft) W-NW 301 ° 0 min 0 W/m² 10,9 °C 13,4 °C 6,4 km/h (2 Bft)
26.07.2023 03:32 22,3 °C 13,4 °C 57 % 85 % 1009,4 hPa 0,0 l/m² 4,7 km/h (1 Bft) W-NW 287 ° 0 min 0 W/m² 10,9 °C 13,4 °C 9,7 km/h (2 Bft)
26.07.2023 03:33 22,3 °C 13,4 °C 57 % 85 % 1009,4 hPa 0,0 l/m² 4,5 km/h (1 Bft) W-NW 296 ° 0 min 0 W/m² 10,9 °C 13,4 °C 6,4 km/h (2 Bft)
26.07.2023 03:35 22,3 °C 13,4 °C 57 % 85 % 1009,4 hPa 0,0 l/m² 4,9 km/h (1 Bft) W-NW 288 ° 0 min 0 W/m² 10,9 °C 13,4 °C 9,7 km/h (2 Bft)
26.07.2023 03:37 22,3 °C 13,3 °C 57 % 85 % 1009,4 hPa 0,0 l/m² 4,8 km/h (1 Bft) NW 306 ° 0 min 0 W/m² 10,8 °C 13,3 °C 11,3 km/h (2 Bft)
26.07.2023 03:39 22,3 °C 13,3 °C 57 % 85 % 1009,4 hPa 0,0 l/m² 4,9 km/h (1 Bft) W-NW 303 ° 0 min 0 W/m² 10,8 °C 13,3 °C 8,0 km/h (2 Bft)
26.07.2023 03:40 22,3 °C 13,4 °C 57 % 85 % 1009,4 hPa 0,0 l/m² 4,8 km/h (1 Bft) W-NW 302 ° 0 min 0 W/m² 10,9 °C 13,4 °C 11,3 km/h (2 Bft)
26.07.2023 03:42 22,3 °C 13,3 °C 57 % 86 % 1009,4 hPa 0,0 l/m² 4,9 km/h (1 Bft) NW 318 ° 0 min 0 W/m² 11,0 °C 13,3 °C 11,3 km/h (2 Bft)
26.07.2023 03:43 22,3 °C 13,3 °C 57 % 86 % 1009,4 hPa 0,0 l/m² 5,5 km/h (2 Bft) W-NW 287 ° 0 min 0 W/m² 11,0 °C 13,3 °C 8,0 km/h (2 Bft)
26.07.2023 03:45 22,3 °C 13,3 °C 57 % 86 % 1009,5 hPa 0,0 l/m² 4,0 km/h (1 Bft) N-NW 329 ° 0 min 0 W/m² 11,0 °C 13,3 °C 8,0 km/h (2 Bft)
26.07.2023 03:47 22,3 °C 13,3 °C 57 % 86 % 1009,5 hPa 0,0 l/m² 3,6 km/h (1 Bft) W 267 ° 0 min 0 W/m² 11,0 °C 13,3 °C 9,7 km/h (2 Bft)
26.07.2023 03:48 22,3 °C 13,3 °C 57 % 86 % 1009,5 hPa 0,0 l/m² 4,8 km/h (1 Bft) W-NW 292 ° 0 min 0 W/m² 11,0 °C 13,3 °C 9,7 km/h (2 Bft)
26.07.2023 03:50 22,3 °C 13,3 °C 57 % 86 % 1009,5 hPa 0,0 l/m² 5,0 km/h (1 Bft) NW 320 ° 0 min 0 W/m² 11,0 °C 13,3 °C 11,3 km/h (2 Bft)
26.07.2023 03:51 22,3 °C 13,3 °C 57 % 86 % 1009,5 hPa 0,0 l/m² 4,5 km/h (1 Bft) W-NW 302 ° 0 min 0 W/m² 11,0 °C 13,3 °C 8,0 km/h (2 Bft)
26.07.2023 03:52 22,3 °C 13,2 °C 57 % 86 % 1009,5 hPa 0,0 l/m² 4,7 km/h (1 Bft) W 273 ° 0 min 0 W/m² 10,9 °C 13,2 °C 11,3 km/h (2 Bft)
26.07.2023 03:54 22,3 °C 13,2 °C 57 % 86 % 1009,5 hPa 0,0 l/m² 3,7 km/h (1 Bft) W 277 ° 0 min 0 W/m² 10,9 °C 13,2 °C 6,4 km/h (2 Bft)
26.07.2023 03:56 22,3 °C 13,2 °C 57 % 86 % 1009,5 hPa 0,0 l/m² 3,8 km/h (1 Bft) NW 312 ° 0 min 0 W/m² 10,9 °C 13,2 °C 6,4 km/h (2 Bft)
26.07.2023 03:58 22,3 °C 13,2 °C 57 % 86 % 1009,6 hPa 0,0 l/m² 5,3 km/h (1 Bft) NW 317 ° 0 min 0 W/m² 10,9 °C 13,2 °C 8,0 km/h (2 Bft)
26.07.2023 04:00 22,3 °C 13,2 °C 57 % 86 % 1009,6 hPa 0,0 l/m² 3,8 km/h (1 Bft) NW 316 ° 0 min 0 W/m² 10,9 °C 13,2 °C 6,4 km/h (2 Bft)
26.07.2023 04:01 22,3 °C 13,2 °C 57 % 86 % 1009,6 hPa 0,0 l/m² 4,8 km/h (1 Bft) W-NW 299 ° 0 min 0 W/m² 10,9 °C 13,2 °C 8,0 km/h (2 Bft)
26.07.2023 04:02 22,3 °C 13,1 °C 57 % 86 % 1009,6 hPa 0,0 l/m² 4,8 km/h (1 Bft) W-NW 299 ° 0 min 0 W/m² 10,8 °C 13,1 °C 9,7 km/h (2 Bft)
26.07.2023 04:04 22,3 °C 13,1 °C 57 % 85 % 1009,6 hPa 0,0 l/m² 2,3 km/h (1 Bft) W-NW 282 ° 0 min 0 W/m² 10,6 °C 13,1 °C 6,4 km/h (2 Bft)
26.07.2023 04:06 22,3 °C 13,1 °C 57 % 85 % 1009,5 hPa 0,0 l/m² 3,8 km/h (1 Bft) NW 308 ° 0 min 0 W/m² 10,6 °C 13,1 °C 8,0 km/h (2 Bft)
26.07.2023 04:08 22,3 °C 13,1 °C 57 % 85 % 1009,5 hPa 0,0 l/m² 4,7 km/h (1 Bft) W-NW 302 ° 0 min 0 W/m² 10,6 °C 13,1 °C 9,7 km/h (2 Bft)
26.07.2023 04:10 22,3 °C 13,1 °C 57 % 85 % 1009,6 hPa 0,0 l/m² 3,4 km/h (1 Bft) W 279 ° 0 min 0 W/m² 10,6 °C 13,1 °C 6,4 km/h (2 Bft)
26.07.2023 04:11 22,2 °C 13,0 °C 57 % 85 % 1009,5 hPa 0,0 l/m² 4,8 km/h (1 Bft) NW 316 ° 0 min 0 W/m² 10,5 °C 13,0 °C 6,4 km/h (2 Bft)
26.07.2023 04:12 22,3 °C 13,0 °C 57 % 85 % 1009,6 hPa 0,0 l/m² 5,4 km/h (2 Bft) NW 319 ° 0 min 0 W/m² 10,5 °C 13,0 °C 8,0 km/h (2 Bft)
26.07.2023 04:14 22,3 °C 13,0 °C 57 % 85 % 1009,5 hPa 0,0 l/m² 4,2 km/h (1 Bft) W-NW 292 ° 0 min 0 W/m² 10,5 °C 13,0 °C 8,0 km/h (2 Bft)
26.07.2023 04:16 22,3 °C 12,9 °C 57 % 86 % 1009,7 hPa 0,0 l/m² 4,4 km/h (1 Bft) N-NW 333 ° 0 min 0 W/m² 10,6 °C 12,9 °C 8,0 km/h (2 Bft)
26.07.2023 04:18 22,3 °C 12,9 °C 57 % 86 % 1009,7 hPa 0,0 l/m² 4,6 km/h (1 Bft) NW 311 ° 0 min 0 W/m² 10,6 °C 12,9 °C 8,0 km/h (2 Bft)
26.07.2023 04:20 22,2 °C 12,8 °C 57 % 86 % 1009,8 hPa 0,0 l/m² 4,0 km/h (1 Bft) W-NW 297 ° 0 min 0 W/m² 10,5 °C 12,8 °C 6,4 km/h (2 Bft)
26.07.2023 04:21 22,2 °C 12,8 °C 57 % 86 % 1009,7 hPa 0,0 l/m² 4,2 km/h (1 Bft) W 277 ° 0 min 0 W/m² 10,5 °C 12,8 °C 6,4 km/h (2 Bft)
26.07.2023 04:22 22,2 °C 12,8 °C 57 % 86 % 1009,8 hPa 0,0 l/m² 5,1 km/h (1 Bft) W-NW 290 ° 0 min 0 W/m² 10,5 °C 12,8 °C 8,0 km/h (2 Bft)
26.07.2023 04:24 22,3 °C 12,8 °C 57 % 86 % 1009,7 hPa 0,0 l/m² 3,5 km/h (1 Bft) NW 306 ° 0 min 0 W/m² 10,5 °C 12,8 °C 6,4 km/h (2 Bft)
26.07.2023 04:26 22,3 °C 12,8 °C 57 % 86 % 1009,7 hPa 0,0 l/m² 2,6 km/h (1 Bft) W-NW 289 ° 0 min 0 W/m² 10,5 °C 12,8 °C 6,4 km/h (2 Bft)
26.07.2023 04:28 22,3 °C 12,8 °C 57 % 85 % 1009,7 hPa 0,0 l/m² 3,8 km/h (1 Bft) W-NW 298 ° 0 min 0 W/m² 10,3 °C 12,8 °C 12,9 km/h (3 Bft)
26.07.2023 04:30 22,3 °C 12,7 °C 57 % 85 % 1009,8 hPa 0,0 l/m² 6,3 km/h (2 Bft) NW 304 ° 0 min 0 W/m² 10,2 °C 12,7 °C 14,5 km/h (3 Bft)
26.07.2023 04:31 22,3 °C 12,7 °C 57 % 86 % 1009,8 hPa 0,0 l/m² 6,3 km/h (2 Bft) N-NW 329 ° 0 min 0 W/m² 10,4 °C 12,7 °C 11,3 km/h (2 Bft)
26.07.2023 04:32 22,3 °C 12,7 °C 57 % 86 % 1009,9 hPa 0,0 l/m² 6,6 km/h (2 Bft) NW 315 ° 0 min 0 W/m² 10,4 °C 12,6 °C 11,3 km/h (2 Bft)
26.07.2023 04:34 22,3 °C 12,7 °C 57 % 86 % 1009,9 hPa 0,0 l/m² 4,7 km/h (1 Bft) W-NW 284 ° 0 min 0 W/m² 10,4 °C 12,7 °C 11,3 km/h (2 Bft)
26.07.2023 04:36 22,3 °C 12,7 °C 57 % 86 % 1009,9 hPa 0,0 l/m² 4,2 km/h (1 Bft) W-NW 302 ° 0 min 0 W/m² 10,4 °C 12,7 °C 9,7 km/h (2 Bft)
26.07.2023 04:38 22,3 °C 12,6 °C 57 % 86 % 1010,0 hPa 0,0 l/m² 3,3 km/h (1 Bft) NW 323 ° 0 min 0 W/m² 10,3 °C 12,6 °C 8,0 km/h (2 Bft)
26.07.2023 04:40 22,2 °C 12,6 °C 57 % 86 % 1009,9 hPa 0,0 l/m² 3,8 km/h (1 Bft) W-SW 257 ° 0 min 0 W/m² 10,3 °C 12,6 °C 8,0 km/h (2 Bft)
26.07.2023 04:41 22,3 °C 12,6 °C 57 % 86 % 1010,0 hPa 0,0 l/m² 3,4 km/h (1 Bft) W 279 ° 0 min 0 W/m² 10,3 °C 12,6 °C 6,4 km/h (2 Bft)
26.07.2023 04:42 22,3 °C 12,6 °C 57 % 86 % 1010,0 hPa 0,0 l/m² 2,3 km/h (1 Bft) W 273 ° 0 min 0 W/m² 10,3 °C 12,6 °C 4,8 km/h (1 Bft)
26.07.2023 04:44 22,3 °C 12,6 °C 57 % 86 % 1010,0 hPa 0,0 l/m² 3,5 km/h (1 Bft) NW 319 ° 0 min 0 W/m² 10,3 °C 12,6 °C 6,4 km/h (2 Bft)
26.07.2023 04:46 22,3 °C 12,6 °C 57 % 86 % 1010,1 hPa 0,0 l/m² 1,8 km/h (1 Bft) W-NW 296 ° 0 min 0 W/m² 10,3 °C 12,6 °C 4,8 km/h (1 Bft)
26.07.2023 04:48 22,3 °C 12,5 °C 57 % 86 % 1010,0 hPa 0,0 l/m² 2,3 km/h (1 Bft) W 279 ° 0 min 0 W/m² 10,2 °C 12,5 °C 6,4 km/h (2 Bft)
26.07.2023 04:50 22,3 °C 12,5 °C 57 % 86 % 1010,0 hPa 0,0 l/m² 3,1 km/h (1 Bft) W-SW 249 ° 0 min 0 W/m² 10,2 °C 12,5 °C 4,8 km/h (1 Bft)
26.07.2023 04:51 22,3 °C 12,5 °C 57 % 86 % 1010,1 hPa 0,0 l/m² 2,0 km/h (1 Bft) W 281 ° 0 min 0 W/m² 10,2 °C 12,5 °C 4,8 km/h (1 Bft)
26.07.2023 04:52 22,3 °C 12,5 °C 57 % 86 % 1010,1 hPa 0,0 l/m² 1,2 km/h (1 Bft) W 274 ° 0 min 0 W/m² 10,2 °C 12,5 °C 3,2 km/h (1 Bft)
26.07.2023 04:53 22,3 °C 12,4 °C 57 % 86 % 1010,1 hPa 0,0 l/m² 1,9 km/h (1 Bft) W 259 ° 0 min 0 W/m² 10,1 °C 12,4 °C 3,2 km/h (1 Bft)
26.07.2023 04:54 22,3 °C 12,4 °C 57 % 86 % 1010,2 hPa 0,0 l/m² 1,1 km/h (1 Bft) W 271 ° 0 min 0 W/m² 10,1 °C 12,4 °C 3,2 km/h (1 Bft)
26.07.2023 04:56 22,3 °C 12,4 °C 57 % 86 % 1010,2 hPa 0,0 l/m² 1,1 km/h (1 Bft) W 267 ° 0 min 0 W/m² 10,1 °C 12,4 °C 3,2 km/h (1 Bft)
26.07.2023 04:58 22,3 °C 12,4 °C 57 % 86 % 1010,2 hPa 0,0 l/m² 2,0 km/h (1 Bft) W-SW 257 ° 0 min 0 W/m² 10,1 °C 12,4 °C 4,8 km/h (1 Bft)
26.07.2023 05:00 22,3 °C 12,4 °C 57 % 86 % 1010,2 hPa 0,0 l/m² 2,6 km/h (1 Bft) W 265 ° 0 min 0 W/m² 10,1 °C 12,4 °C 4,8 km/h (1 Bft)
26.07.2023 05:01 22,3 °C 12,4 °C 57 % 86 % 1010,3 hPa 0,0 l/m² 2,1 km/h (1 Bft) W 273 ° 0 min 0 W/m² 10,1 °C 12,4 °C 4,8 km/h (1 Bft)
26.07.2023 05:03 22,3 °C 12,4 °C 57 % 86 % 1010,3 hPa 0,0 l/m² 3,4 km/h (1 Bft) W-SW 242 ° 0 min 0 W/m² 10,1 °C 12,4 °C 4,8 km/h (1 Bft)
26.07.2023 05:04 22,3 °C 12,4 °C 57 % 86 % 1010,3 hPa 0,0 l/m² 4,6 km/h (1 Bft) W-SW 237 ° 0 min 0 W/m² 10,1 °C 12,4 °C 6,4 km/h (2 Bft)
26.07.2023 05:06 22,3 °C 12,3 °C 57 % 86 % 1010,3 hPa 0,0 l/m² 4,9 km/h (1 Bft) W-SW 242 ° 0 min 0 W/m² 10,0 °C 12,3 °C 6,4 km/h (2 Bft)
26.07.2023 05:08 22,3 °C 12,3 °C 57 % 86 % 1010,3 hPa 0,0 l/m² 3,3 km/h (1 Bft) W-SW 243 ° 0 min 0 W/m² 10,0 °C 12,3 °C 4,8 km/h (1 Bft)
26.07.2023 05:10 22,3 °C 12,3 °C 57 % 86 % 1010,3 hPa 0,0 l/m² 2,5 km/h (1 Bft) W-SW 244 ° 0 min 0 W/m² 10,0 °C 12,3 °C 4,8 km/h (1 Bft)
26.07.2023 05:11 22,3 °C 12,3 °C 57 % 86 % 1010,3 hPa 0,0 l/m² 1,8 km/h (1 Bft) W-SW 244 ° 0 min 0 W/m² 10,0 °C 12,3 °C 3,2 km/h (1 Bft)
26.07.2023 05:13 22,3 °C 12,3 °C 57 % 86 % 1010,2 hPa 0,0 l/m² 1,1 km/h (1 Bft) W-SW 244 ° 0 min 0 W/m² 10,0 °C 12,3 °C 3,2 km/h (1 Bft)
26.07.2023 05:14 22,3 °C 12,3 °C 57 % 86 % 1010,3 hPa 0,0 l/m² 0,5 km/h (0 Bft) W-SW 244 ° 0 min 0 W/m² 10,0 °C 12,3 °C 1,6 km/h (1 Bft)
26.07.2023 05:16 22,3 °C 12,2 °C 57 % 86 % 1010,3 hPa 0,0 l/m² 0,5 km/h (0 Bft) W-SW 244 ° 0 min 0 W/m² 9,9 °C 12,2 °C 1,6 km/h (1 Bft)
26.07.2023 05:18 22,3 °C 12,2 °C 57 % 86 % 1010,3 hPa 0,0 l/m² 0,9 km/h (0 Bft) W-SW 244 ° 0 min 0 W/m² 9,9 °C 12,2 °C 3,2 km/h (1 Bft)
26.07.2023 05:20 22,3 °C 12,2 °C 57 % 86 % 1010,3 hPa 0,0 l/m² 0,1 km/h (0 Bft) W-SW 244 ° 0 min 0 W/m² 9,9 °C 12,2 °C 1,6 km/h (1 Bft)
26.07.2023 05:21 22,3 °C 12,2 °C 57 % 86 % 1010,3 hPa 0,0 l/m² 0,6 km/h (0 Bft) W-SW 244 ° 0 min 0 W/m² 9,9 °C 12,2 °C 1,6 km/h (1 Bft)
26.07.2023 05:22 22,3 °C 12,2 °C 57 % 86 % 1010,3 hPa 0,0 l/m² 0,2 km/h (0 Bft) W-SW 244 ° 0 min 0 W/m² 9,9 °C 12,2 °C 1,6 km/h (1 Bft)
26.07.2023 05:23 22,3 °C 12,2 °C 57 % 86 % 1010,4 hPa 0,0 l/m² 1,1 km/h (1 Bft) W-SW 244 ° 0 min 0 W/m² 9,9 °C 12,2 °C 3,2 km/h (1 Bft)
26.07.2023 05:24 22,3 °C 12,2 °C 57 % 86 % 1010,4 hPa 0,0 l/m² 0,5 km/h (0 Bft) W-SW 244 ° 0 min 0 W/m² 9,9 °C 12,2 °C 1,6 km/h (1 Bft)
26.07.2023 05:26 22,3 °C 12,1 °C 57 % 86 % 1010,5 hPa 0,0 l/m² 0,3 km/h (0 Bft) W-SW 244 ° 0 min 0 W/m² 9,8 °C 12,1 °C 1,6 km/h (1 Bft)
26.07.2023 05:28 22,3 °C 12,1 °C 57 % 86 % 1010,5 hPa 0,0 l/m² 0,7 km/h (0 Bft) W-SW 244 ° 0 min 0 W/m² 9,8 °C 12,1 °C 3,2 km/h (1 Bft)
26.07.2023 05:30 22,3 °C 12,1 °C 57 % 86 % 1010,5 hPa 0,0 l/m² 1,5 km/h (1 Bft) W-SW 244 ° 0 min 0 W/m² 9,8 °C 12,1 °C 3,2 km/h (1 Bft)
26.07.2023 05:31 22,3 °C 12,1 °C 57 % 86 % 1010,5 hPa 0,0 l/m² 1,0 km/h (0 Bft) W-SW 244 ° 0 min 0 W/m² 9,8 °C 12,1 °C 1,6 km/h (1 Bft)
26.07.2023 05:33 22,3 °C 12,1 °C 57 % 86 % 1010,5 hPa 0,0 l/m² 2,1 km/h (1 Bft) W-SW 244 ° 0 min 0 W/m² 9,8 °C 12,1 °C 3,2 km/h (1 Bft)
26.07.2023 05:34 22,3 °C 12,0 °C 57 % 86 % 1010,5 hPa 0,0 l/m² 1,7 km/h (1 Bft) W-SW 244 ° 0 min 5 W/m² 9,7 °C 12,0 °C 3,2 km/h (1 Bft)
26.07.2023 05:36 22,3 °C 12,0 °C 57 % 86 % 1010,5 hPa 0,0 l/m² 2,0 km/h (1 Bft) SW 229 ° 0 min 5 W/m² 9,7 °C 12,0 °C 4,8 km/h (1 Bft)
26.07.2023 05:38 22,3 °C 11,9 °C 57 % 86 % 1010,6 hPa 0,0 l/m² 4,1 km/h (1 Bft) SW 225 ° 0 min 7 W/m² 9,6 °C 11,9 °C 6,4 km/h (2 Bft)
26.07.2023 05:40 22,3 °C 11,9 °C 57 % 86 % 1010,6 hPa 0,0 l/m² 2,9 km/h (1 Bft) SW 225 ° 0 min 7 W/m² 9,6 °C 11,9 °C 4,8 km/h (1 Bft)
26.07.2023 05:41 22,3 °C 11,9 °C 57 % 86 % 1010,6 hPa 0,0 l/m² 2,4 km/h (1 Bft) SW 225 ° 0 min 9 W/m² 9,6 °C 11,9 °C 3,2 km/h (1 Bft)
26.07.2023 05:43 22,3 °C 11,9 °C 57 % 86 % 1010,6 hPa 0,0 l/m² 2,1 km/h (1 Bft) SW 225 ° 0 min 9 W/m² 9,6 °C 11,9 °C 3,2 km/h (1 Bft)
26.07.2023 05:44 22,3 °C 11,8 °C 57 % 86 % 1010,6 hPa 0,0 l/m² 2,0 km/h (1 Bft) SW 225 ° 0 min 9 W/m² 9,5 °C 11,8 °C 3,2 km/h (1 Bft)
26.07.2023 05:46 22,3 °C 11,8 °C 57 % 86 % 1010,5 hPa 0,0 l/m² 1,8 km/h (1 Bft) SW 225 ° 0 min 11 W/m² 9,5 °C 11,8 °C 3,2 km/h (1 Bft)
26.07.2023 05:48 22,3 °C 11,8 °C 57 % 86 % 1010,5 hPa 0,0 l/m² 2,5 km/h (1 Bft) SW 228 ° 0 min 11 W/m² 9,5 °C 11,8 °C 4,8 km/h (1 Bft)
26.07.2023 05:50 22,3 °C 11,8 °C 57 % 86 % 1010,6 hPa 0,0 l/m² 3,1 km/h (1 Bft) W-SW 246 ° 0 min 12 W/m² 9,5 °C 11,8 °C 4,8 km/h (1 Bft)
26.07.2023 05:51 22,3 °C 11,7 °C 57 % 86 % 1010,6 hPa 0,0 l/m² 3,2 km/h (1 Bft) W-SW 244 ° 0 min 12 W/m² 9,4 °C 11,7 °C 4,8 km/h (1 Bft)
26.07.2023 05:53 22,3 °C 11,7 °C 57 % 86 % 1010,6 hPa 0,0 l/m² 3,3 km/h (1 Bft) W-SW 245 ° 0 min 12 W/m² 9,4 °C 11,7 °C 4,8 km/h (1 Bft)
26.07.2023 05:55 22,3 °C 11,7 °C 56 % 86 % 1010,6 hPa 0,0 l/m² 1,5 km/h (1 Bft) W-SW 245 ° 0 min 14 W/m² 9,4 °C 11,7 °C 3,2 km/h (1 Bft)
26.07.2023 05:57 22,3 °C 11,7 °C 56 % 86 % 1010,7 hPa 0,0 l/m² 0,9 km/h (0 Bft) W-SW 245 ° 0 min 14 W/m² 9,4 °C 11,7 °C 1,6 km/h (1 Bft)
26.07.2023 05:59 22,3 °C 11,7 °C 56 % 86 % 1010,7 hPa 0,0 l/m² 0,8 km/h (0 Bft) W-SW 245 ° 0 min 16 W/m² 9,4 °C 11,7 °C 1,6 km/h (1 Bft)
26.07.2023 06:01 22,3 °C 11,7 °C 56 % 86 % 1010,7 hPa 0,0 l/m² 0,8 km/h (0 Bft) W-SW 245 ° 0 min 18 W/m² 9,4 °C 11,7 °C 3,2 km/h (1 Bft)
26.07.2023 06:02 22,3 °C 11,7 °C 56 % 86 % 1010,7 hPa 0,0 l/m² 0,0 km/h (0 Bft) W-SW 245 ° 0 min 18 W/m² 9,4 °C 11,7 °C 0,0 km/h (0 Bft)
26.07.2023 06:03 22,3 °C 11,7 °C 56 % 86 % 1010,7 hPa 0,0 l/m² 0,0 km/h (0 Bft) W-SW 245 ° 0 min 18 W/m² 9,4 °C 11,7 °C 0,0 km/h (0 Bft)
26.07.2023 06:05 22,3 °C 11,7 °C 56 % 86 % 1010,7 hPa 0,0 l/m² 0,0 km/h (0 Bft) W-SW 245 ° 0 min 19 W/m² 9,4 °C 11,7 °C 0,0 km/h (0 Bft)
26.07.2023 06:07 22,3 °C 11,6 °C 56 % 86 % 1010,7 hPa 0,0 l/m² 0,4 km/h (0 Bft) W-SW 245 ° 0 min 19 W/m² 9,3 °C 11,6 °C 1,6 km/h (1 Bft)
26.07.2023 06:09 22,3 °C 11,6 °C 56 % 87 % 1010,7 hPa 0,0 l/m² 1,6 km/h (1 Bft) W-SW 256 ° 0 min 21 W/m² 9,5 °C 11,6 °C 4,8 km/h (1 Bft)
26.07.2023 06:11 22,2 °C 11,6 °C 56 % 87 % 1010,7 hPa 0,0 l/m² 1,1 km/h (1 Bft) W-SW 257 ° 0 min 21 W/m² 9,5 °C 11,6 °C 4,8 km/h (1 Bft)
26.07.2023 06:12 22,3 °C 11,6 °C 56 % 87 % 1010,7 hPa 0,0 l/m² 1,5 km/h (1 Bft) W-SW 257 ° 0 min 21 W/m² 9,5 °C 11,6 °C 3,2 km/h (1 Bft)
26.07.2023 06:13 22,3 °C 11,6 °C 56 % 87 % 1010,7 hPa 0,0 l/m² 1,8 km/h (1 Bft) W-SW 257 ° 0 min 21 W/m² 9,5 °C 11,6 °C 3,2 km/h (1 Bft)
26.07.2023 06:15 22,3 °C 11,6 °C 56 % 87 % 1010,7 hPa 0,0 l/m² 3,6 km/h (1 Bft) W-SW 249 ° 0 min 21 W/m² 9,5 °C 11,6 °C 4,8 km/h (1 Bft)
26.07.2023 06:17 22,3 °C 11,6 °C 57 % 87 % 1010,8 hPa 0,0 l/m² 4,0 km/h (1 Bft) W-SW 254 ° 0 min 21 W/m² 9,5 °C 11,6 °C 6,4 km/h (2 Bft)
26.07.2023 06:19 22,3 °C 11,6 °C 57 % 87 % 1010,8 hPa 0,0 l/m² 3,9 km/h (1 Bft) W-SW 251 ° 0 min 21 W/m² 9,5 °C 11,6 °C 4,8 km/h (1 Bft)
26.07.2023 06:21 22,3 °C 11,6 °C 57 % 87 % 1010,8 hPa 0,0 l/m² 3,6 km/h (1 Bft) W-SW 245 ° 0 min 23 W/m² 9,5 °C 11,6 °C 4,8 km/h (1 Bft)
26.07.2023 06:22 22,3 °C 11,6 °C 57 % 87 % 1010,8 hPa 0,0 l/m² 3,5 km/h (1 Bft) W-SW 248 ° 0 min 25 W/m² 9,5 °C 11,6 °C 4,8 km/h (1 Bft)
26.07.2023 06:23 22,3 °C 11,6 °C 57 % 87 % 1010,8 hPa 0,0 l/m² 3,3 km/h (1 Bft) W-SW 248 ° 0 min 25 W/m² 9,5 °C 11,6 °C 4,8 km/h (1 Bft)
26.07.2023 06:25 22,3 °C 11,6 °C 57 % 87 % 1010,8 hPa 0,0 l/m² 3,7 km/h (1 Bft) W-SW 252 ° 0 min 26 W/m² 9,5 °C 11,6 °C 4,8 km/h (1 Bft)
26.07.2023 06:27 22,3 °C 11,6 °C 57 % 87 % 1010,8 hPa 0,0 l/m² 3,1 km/h (1 Bft) W-SW 254 ° 0 min 28 W/m² 9,5 °C 11,6 °C 4,8 km/h (1 Bft)
26.07.2023 06:29 22,2 °C 11,6 °C 56 % 88 % 1010,8 hPa 0,0 l/m² 1,2 km/h (1 Bft) W-SW 254 ° 0 min 30 W/m² 9,7 °C 11,6 °C 4,8 km/h (1 Bft)
26.07.2023 06:31 22,2 °C 11,6 °C 56 % 88 % 1010,8 hPa 0,0 l/m² 1,5 km/h (1 Bft) W-SW 254 ° 0 min 33 W/m² 9,7 °C 11,6 °C 3,2 km/h (1 Bft)
26.07.2023 06:32 22,3 °C 11,6 °C 56 % 88 % 1010,8 hPa 0,0 l/m² 2,6 km/h (1 Bft) W-SW 254 ° 0 min 37 W/m² 9,7 °C 11,6 °C 4,8 km/h (1 Bft)
26.07.2023 06:33 22,3 °C 11,6 °C 56 % 88 % 1010,8 hPa 0,0 l/m² 3,6 km/h (1 Bft) W-SW 254 ° 0 min 39 W/m² 9,7 °C 11,6 °C 4,8 km/h (1 Bft)
26.07.2023 06:35 22,2 °C 11,6 °C 56 % 88 % 1010,8 hPa 0,0 l/m² 1,5 km/h (1 Bft) W-SW 254 ° 0 min 42 W/m² 9,7 °C 11,6 °C 4,8 km/h (1 Bft)
26.07.2023 06:37 22,3 °C 11,6 °C 56 % 88 % 1010,8 hPa 0,0 l/m² 2,5 km/h (1 Bft) W-SW 257 ° 0 min 46 W/m² 9,7 °C 11,6 °C 6,4 km/h (2 Bft)
26.07.2023 06:39 22,3 °C 11,7 °C 56 % 88 % 1010,8 hPa 0,0 l/m² 4,5 km/h (1 Bft) W-SW 252 ° 0 min 49 W/m² 9,8 °C 11,7 °C 6,4 km/h (2 Bft)
26.07.2023 06:41 22,2 °C 11,7 °C 56 % 88 % 1010,9 hPa 0,0 l/m² 4,7 km/h (1 Bft) W-SW 243 ° 0 min 51 W/m² 9,8 °C 11,7 °C 6,4 km/h (2 Bft)
26.07.2023 06:42 22,2 °C 11,7 °C 56 % 88 % 1010,9 hPa 0,0 l/m² 5,9 km/h (2 Bft) W-SW 244 ° 1 min 53 W/m² 9,8 °C 11,7 °C 8,0 km/h (2 Bft)
26.07.2023 06:43 22,3 °C 11,7 °C 56 % 88 % 1010,9 hPa 0,0 l/m² 5,9 km/h (2 Bft) W-SW 244 ° 1 min 53 W/m² 9,8 °C 11,7 °C 6,4 km/h (2 Bft)
26.07.2023 06:46 22,2 °C 11,7 °C 56 % 88 % 1010,9 hPa 0,0 l/m² 4,2 km/h (1 Bft) W-SW 244 ° 3 min 54 W/m² 9,8 °C 11,7 °C 6,4 km/h (2 Bft)
26.07.2023 06:48 22,2 °C 11,8 °C 56 % 88 % 1010,8 hPa 0,0 l/m² 3,9 km/h (1 Bft) W-SW 246 ° 2 min 56 W/m² 9,9 °C 11,8 °C 6,4 km/h (2 Bft)
26.07.2023 06:49 22,2 °C 11,8 °C 56 % 88 % 1010,8 hPa 0,0 l/m² 3,4 km/h (1 Bft) W-SW 246 ° 1 min 56 W/m² 9,9 °C 11,8 °C 4,8 km/h (1 Bft)
26.07.2023 06:51 22,2 °C 11,8 °C 55 % 88 % 1010,8 hPa 0,0 l/m² 3,0 km/h (1 Bft) W-SW 246 ° 2 min 58 W/m² 9,9 °C 11,8 °C 4,8 km/h (1 Bft)
26.07.2023 06:52 22,2 °C 11,8 °C 55 % 88 % 1010,8 hPa 0,0 l/m² 1,8 km/h (1 Bft) W-SW 246 ° 1 min 58 W/m² 9,9 °C 11,8 °C 3,2 km/h (1 Bft)
26.07.2023 06:53 22,2 °C 11,8 °C 55 % 88 % 1010,8 hPa 0,0 l/m² 1,1 km/h (1 Bft) W-SW 246 ° 1 min 60 W/m² 9,9 °C 11,8 °C 1,6 km/h (1 Bft)
26.07.2023 06:55 22,2 °C 11,8 °C 54 % 88 % 1010,8 hPa 0,0 l/m² 2,1 km/h (1 Bft) SW 234 ° 2 min 60 W/m² 9,9 °C 11,8 °C 6,4 km/h (2 Bft)
26.07.2023 06:57 22,2 °C 11,9 °C 54 % 88 % 1010,9 hPa 0,0 l/m² 2,3 km/h (1 Bft) SW 219 ° 2 min 62 W/m² 10,0 °C 11,9 °C 6,4 km/h (2 Bft)
26.07.2023 06:59 22,2 °C 11,9 °C 54 % 88 % 1010,8 hPa 0,0 l/m² 1,9 km/h (1 Bft) SW 219 ° 2 min 65 W/m² 10,0 °C 11,9 °C 4,8 km/h (1 Bft)
26.07.2023 07:01 22,2 °C 11,9 °C 54 % 88 % 1010,9 hPa 0,0 l/m² 0,3 km/h (0 Bft) SW 219 ° 2 min 67 W/m² 10,0 °C 11,9 °C 1,6 km/h (1 Bft)
26.07.2023 07:02 22,2 °C 11,9 °C 54 % 88 % 1010,9 hPa 0,0 l/m² 2,5 km/h (1 Bft) SW 232 ° 1 min 70 W/m² 10,0 °C 11,9 °C 6,4 km/h (2 Bft)
26.07.2023 07:03 22,2 °C 11,9 °C 54 % 88 % 1010,9 hPa 0,0 l/m² 6,0 km/h (2 Bft) SW 215 ° 1 min 72 W/m² 10,0 °C 11,9 °C 8,0 km/h (2 Bft)
26.07.2023 07:05 22,2 °C 12,0 °C 54 % 88 % 1010,9 hPa 0,0 l/m² 4,0 km/h (1 Bft) SW 232 ° 2 min 76 W/m² 10,1 °C 12,0 °C 6,4 km/h (2 Bft)
26.07.2023 07:07 22,2 °C 12,0 °C 55 % 88 % 1010,9 hPa 0,0 l/m² 2,0 km/h (1 Bft) SW 232 ° 2 min 79 W/m² 10,1 °C 12,0 °C 3,2 km/h (1 Bft)
26.07.2023 07:09 22,2 °C 12,1 °C 55 % 88 % 1010,9 hPa 0,0 l/m² 2,5 km/h (1 Bft) SW 232 ° 2 min 88 W/m² 10,2 °C 12,1 °C 3,2 km/h (1 Bft)
26.07.2023 07:11 22,1 °C 12,1 °C 55 % 88 % 1010,8 hPa 0,0 l/m² 2,5 km/h (1 Bft) W-SW 255 ° 2 min 95 W/m² 10,2 °C 12,1 °C 6,4 km/h (2 Bft)
26.07.2023 07:12 22,2 °C 12,1 °C 55 % 88 % 1010,9 hPa 0,0 l/m² 4,6 km/h (1 Bft) SW 231 ° 1 min 98 W/m² 10,2 °C 12,1 °C 6,4 km/h (2 Bft)
26.07.2023 07:13 22,1 °C 12,1 °C 55 % 88 % 1010,9 hPa 0,0 l/m² 5,9 km/h (2 Bft) SW 222 ° 1 min 100 W/m² 10,2 °C 12,1 °C 8,0 km/h (2 Bft)
26.07.2023 07:15 22,1 °C 12,2 °C 55 % 88 % 1010,9 hPa 0,0 l/m² 5,3 km/h (1 Bft) SW 223 ° 2 min 105 W/m² 10,3 °C 12,2 °C 8,0 km/h (2 Bft)
26.07.2023 07:17 22,1 °C 12,3 °C 55 % 89 % 1010,9 hPa 0,0 l/m² 6,2 km/h (2 Bft) SW 218 ° 2 min 105 W/m² 10,5 °C 12,3 °C 8,0 km/h (2 Bft)
26.07.2023 07:19 22,1 °C 12,3 °C 55 % 88 % 1011,0 hPa 0,0 l/m² 5,7 km/h (2 Bft) S-SW 206 ° 2 min 105 W/m² 10,4 °C 12,3 °C 6,4 km/h (2 Bft)
26.07.2023 07:21 22,1 °C 12,3 °C 55 % 88 % 1011,0 hPa 0,0 l/m² 6,4 km/h (2 Bft) S-SW 213 ° 2 min 105 W/m² 10,4 °C 12,3 °C 8,0 km/h (2 Bft)
26.07.2023 07:22 22,1 °C 12,4 °C 55 % 88 % 1011,0 hPa 0,0 l/m² 5,8 km/h (2 Bft) S-SW 209 ° 1 min 111 W/m² 10,5 °C 12,4 °C 8,0 km/h (2 Bft)
26.07.2023 07:23 22,1 °C 12,4 °C 55 % 88 % 1011,0 hPa 0,0 l/m² 5,2 km/h (1 Bft) S-SW 211 ° 1 min 128 W/m² 10,5 °C 12,4 °C 6,4 km/h (2 Bft)
26.07.2023 07:25 22,1 °C 12,4 °C 55 % 88 % 1011,0 hPa 0,0 l/m² 6,0 km/h (2 Bft) SW 226 ° 2 min 206 W/m² 10,5 °C 12,4 °C 9,7 km/h (2 Bft)
26.07.2023 07:27 22,1 °C 12,5 °C 55 % 89 % 1011,0 hPa 0,0 l/m² 8,3 km/h (2 Bft) S-SW 212 ° 2 min 130 W/m² 10,7 °C 11,3 °C 11,3 km/h (2 Bft)
26.07.2023 07:29 22,1 °C 12,6 °C 55 % 89 % 1011,0 hPa 0,0 l/m² 7,6 km/h (2 Bft) S-SW 210 ° 2 min 197 W/m² 10,8 °C 11,8 °C 9,7 km/h (2 Bft)
26.07.2023 07:31 22,1 °C 12,6 °C 55 % 89 % 1011,0 hPa 0,0 l/m² 8,6 km/h (2 Bft) SW 215 ° 2 min 135 W/m² 10,8 °C 11,2 °C 11,3 km/h (2 Bft)
26.07.2023 07:32 22,1 °C 12,6 °C 55 % 89 % 1011,1 hPa 0,0 l/m² 7,5 km/h (2 Bft) SW 220 ° 1 min 130 W/m² 10,8 °C 11,9 °C 9,7 km/h (2 Bft)
26.07.2023 07:33 22,1 °C 12,7 °C 55 % 89 % 1011,1 hPa 0,0 l/m² 9,0 km/h (2 Bft) S-SW 212 ° 1 min 132 W/m² 10,9 °C 11,1 °C 11,3 km/h (2 Bft)
26.07.2023 07:35 22,1 °C 12,7 °C 55 % 89 % 1011,1 hPa 0,0 l/m² 8,1 km/h (2 Bft) SW 215 ° 2 min 127 W/m² 10,9 °C 11,6 °C 11,3 km/h (2 Bft)
26.07.2023 07:37 22,1 °C 12,7 °C 55 % 89 % 1011,0 hPa 0,0 l/m² 8,0 km/h (2 Bft) S-SW 203 ° 2 min 128 W/m² 10,9 °C 11,7 °C 11,3 km/h (2 Bft)
26.07.2023 07:39 22,1 °C 12,8 °C 55 % 89 % 1011,1 hPa 0,0 l/m² 8,7 km/h (2 Bft) SW 221 ° 2 min 132 W/m² 11,0 °C 11,4 °C 12,9 km/h (3 Bft)
26.07.2023 07:41 22,1 °C 12,8 °C 55 % 88 % 1011,1 hPa 0,0 l/m² 8,3 km/h (2 Bft) S-SW 213 ° 2 min 134 W/m² 10,9 °C 11,6 °C 11,3 km/h (2 Bft)
26.07.2023 07:42 22,1 °C 12,8 °C 55 % 88 % 1011,1 hPa 0,0 l/m² 6,0 km/h (2 Bft) SW 221 ° 1 min 137 W/m² 10,9 °C 12,8 °C 9,7 km/h (2 Bft)
26.07.2023 07:43 22,1 °C 12,8 °C 55 % 88 % 1011,1 hPa 0,0 l/m² 7,0 km/h (2 Bft) SW 236 ° 1 min 142 W/m² 10,9 °C 12,4 °C 9,7 km/h (2 Bft)
26.07.2023 07:45 22,1 °C 12,8 °C 55 % 88 % 1011,2 hPa 0,0 l/m² 7,4 km/h (2 Bft) SW 231 ° 2 min 146 W/m² 10,9 °C 12,2 °C 9,7 km/h (2 Bft)
26.07.2023 07:47 22,1 °C 12,8 °C 55 % 88 % 1011,1 hPa 0,0 l/m² 8,3 km/h (2 Bft) W-SW 240 ° 2 min 148 W/m² 10,9 °C 11,6 °C 12,9 km/h (3 Bft)
26.07.2023 07:49 22,1 °C 12,9 °C 55 % 88 % 1011,1 hPa 0,0 l/m² 6,0 km/h (2 Bft) SW 219 ° 2 min 151 W/m² 11,0 °C 12,9 °C 8,0 km/h (2 Bft)
26.07.2023 07:51 22,1 °C 12,9 °C 55 % 88 % 1011,1 hPa 0,0 l/m² 6,7 km/h (2 Bft) SW 221 ° 2 min 156 W/m² 11,0 °C 12,7 °C 11,3 km/h (2 Bft)
26.07.2023 07:52 22,1 °C 13,0 °C 55 % 88 % 1011,1 hPa 0,0 l/m² 7,9 km/h (2 Bft) SW 224 ° 1 min 160 W/m² 11,1 °C 12,1 °C 9,7 km/h (2 Bft)
26.07.2023 07:53 22,1 °C 12,9 °C 55 % 88 % 1011,1 hPa 0,0 l/m² 7,4 km/h (2 Bft) SW 223 ° 1 min 163 W/m² 11,0 °C 12,3 °C 9,7 km/h (2 Bft)
26.07.2023 07:55 22,1 °C 13,0 °C 55 % 88 % 1011,1 hPa 0,0 l/m² 7,5 km/h (2 Bft) SW 228 ° 2 min 192 W/m² 11,1 °C 12,3 °C 9,7 km/h (2 Bft)
26.07.2023 07:57 22,1 °C 13,1 °C 55 % 88 % 1011,2 hPa 0,0 l/m² 8,5 km/h (2 Bft) SW 223 ° 2 min 178 W/m² 11,2 °C 11,8 °C 11,3 km/h (2 Bft)
26.07.2023 07:59 22,1 °C 13,1 °C 55 % 88 % 1011,3 hPa 0,0 l/m² 10,0 km/h (2 Bft) SW 226 ° 2 min 202 W/m² 11,2 °C 11,0 °C 12,9 km/h (3 Bft)
26.07.2023 08:01 22,1 °C 13,2 °C 55 % 88 % 1011,3 hPa 0,0 l/m² 8,6 km/h (2 Bft) SW 227 ° 2 min 188 W/m² 11,3 °C 11,9 °C 14,5 km/h (3 Bft)
26.07.2023 08:02 22,1 °C 13,2 °C 55 % 88 % 1011,2 hPa 0,0 l/m² 8,2 km/h (2 Bft) S-SW 210 ° 1 min 207 W/m² 11,3 °C 12,1 °C 12,9 km/h (3 Bft)
26.07.2023 08:03 22,1 °C 13,2 °C 55 % 88 % 1011,2 hPa 0,0 l/m² 7,8 km/h (2 Bft) SW 232 ° 1 min 220 W/m² 11,3 °C 12,3 °C 11,3 km/h (2 Bft)
26.07.2023 08:05 22,1 °C 13,2 °C 55 % 88 % 1011,3 hPa 0,0 l/m² 7,7 km/h (2 Bft) W 259 ° 2 min 209 W/m² 11,3 °C 12,4 °C 12,9 km/h (3 Bft)
26.07.2023 08:07 22,1 °C 13,3 °C 55 % 87 % 1011,2 hPa 0,0 l/m² 8,5 km/h (2 Bft) SW 236 ° 2 min 195 W/m² 11,2 °C 12,0 °C 12,9 km/h (3 Bft)
26.07.2023 08:09 22,1 °C 13,3 °C 55 % 87 % 1011,3 hPa 0,0 l/m² 8,7 km/h (2 Bft) SW 235 ° 2 min 181 W/m² 11,2 °C 11,9 °C 12,9 km/h (3 Bft)
26.07.2023 08:11 22,1 °C 13,4 °C 55 % 87 % 1011,2 hPa 0,0 l/m² 7,8 km/h (2 Bft) SW 235 ° 2 min 172 W/m² 11,3 °C 12,5 °C 9,7 km/h (2 Bft)
26.07.2023 08:12 22,1 °C 13,4 °C 55 % 87 % 1011,3 hPa 0,0 l/m² 8,5 km/h (2 Bft) SW 236 ° 1 min 158 W/m² 11,3 °C 12,1 °C 11,3 km/h (2 Bft)
26.07.2023 08:13 22,1 °C 13,4 °C 55 % 87 % 1011,3 hPa 0,0 l/m² 7,9 km/h (2 Bft) W-SW 248 ° 1 min 149 W/m² 11,3 °C 12,5 °C 9,7 km/h (2 Bft)
26.07.2023 08:15 22,1 °C 13,4 °C 55 % 87 % 1011,2 hPa 0,0 l/m² 10,2 km/h (2 Bft) W-SW 237 ° 2 min 149 W/m² 11,3 °C 11,3 °C 16,1 km/h (3 Bft)
26.07.2023 08:17 22,1 °C 13,6 °C 55 % 86 % 1011,3 hPa 0,0 l/m² 10,1 km/h (2 Bft) W-SW 255 ° 2 min 153 W/m² 11,3 °C 11,5 °C 14,5 km/h (3 Bft)
26.07.2023 08:19 22,1 °C 13,6 °C 55 % 86 % 1011,4 hPa 0,0 l/m² 10,3 km/h (2 Bft) W-SW 255 ° 2 min 165 W/m² 11,3 °C 11,4 °C 14,5 km/h (3 Bft)
26.07.2023 08:21 22,1 °C 13,6 °C 55 % 86 % 1011,3 hPa 0,0 l/m² 10,2 km/h (2 Bft) W-SW 246 ° 2 min 178 W/m² 11,3 °C 11,5 °C 12,9 km/h (3 Bft)
26.07.2023 08:22 22,1 °C 13,7 °C 55 % 86 % 1011,3 hPa 0,0 l/m² 8,0 km/h (2 Bft) W-SW 252 ° 1 min 185 W/m² 11,4 °C 12,7 °C 11,3 km/h (2 Bft)
26.07.2023 08:23 22,1 °C 13,7 °C 55 % 86 % 1011,3 hPa 0,0 l/m² 5,8 km/h (2 Bft) W-SW 254 ° 1 min 197 W/m² 11,4 °C 13,7 °C 8,0 km/h (2 Bft)
26.07.2023 08:25 22,1 °C 13,7 °C 55 % 86 % 1011,4 hPa 0,0 l/m² 7,0 km/h (2 Bft) SW 224 ° 2 min 248 W/m² 11,4 °C 13,3 °C 11,3 km/h (2 Bft)
26.07.2023 08:27 22,1 °C 13,8 °C 55 % 86 % 1011,4 hPa 0,0 l/m² 7,7 km/h (2 Bft) SW 232 ° 2 min 272 W/m² 11,5 °C 13,0 °C 11,3 km/h (2 Bft)
26.07.2023 08:29 22,1 °C 13,8 °C 55 % 86 % 1011,4 hPa 0,0 l/m² 7,9 km/h (2 Bft) W-NW 294 ° 2 min 244 W/m² 11,5 °C 12,9 °C 11,3 km/h (2 Bft)
26.07.2023 08:31 22,1 °C 13,9 °C 55 % 86 % 1011,4 hPa 0,0 l/m² 10,1 km/h (2 Bft) SW 225 ° 2 min 236 W/m² 11,6 °C 11,9 °C 14,5 km/h (3 Bft)
26.07.2023 08:32 22,1 °C 13,9 °C 55 % 86 % 1011,4 hPa 0,0 l/m² 9,9 km/h (2 Bft) W-SW 246 ° 1 min 232 W/m² 11,6 °C 12,0 °C 12,9 km/h (3 Bft)
26.07.2023 08:33 22,1 °C 14,0 °C 55 % 86 % 1011,4 hPa 0,0 l/m² 7,8 km/h (2 Bft) W-SW 258 ° 1 min 227 W/m² 11,7 °C 13,2 °C 12,9 km/h (3 Bft)
26.07.2023 08:35 22,1 °C 14,0 °C 55 % 86 % 1011,4 hPa 0,0 l/m² 8,4 km/h (2 Bft) SW 234 ° 2 min 234 W/m² 11,7 °C 12,8 °C 11,3 km/h (2 Bft)
26.07.2023 08:37 22,1 °C 14,1 °C 55 % 85 % 1011,4 hPa 0,0 l/m² 11,0 km/h (2 Bft) S-SW 212 ° 2 min 250 W/m² 11,6 °C 11,7 °C 14,5 km/h (3 Bft)
26.07.2023 08:39 22,1 °C 14,2 °C 55 % 85 % 1011,3 hPa 0,0 l/m² 7,8 km/h (2 Bft) W-SW 245 ° 2 min 285 W/m² 11,7 °C 13,4 °C 9,7 km/h (2 Bft)
26.07.2023 08:41 22,1 °C 14,3 °C 55 % 85 % 1011,3 hPa 0,0 l/m² 6,2 km/h (2 Bft) SW 226 ° 2 min 267 W/m² 11,8 °C 14,3 °C 11,3 km/h (2 Bft)
26.07.2023 08:42 22,1 °C 14,3 °C 55 % 85 % 1011,3 hPa 0,0 l/m² 5,7 km/h (2 Bft) SW 227 ° 1 min 306 W/m² 11,8 °C 14,3 °C 8,0 km/h (2 Bft)
26.07.2023 08:43 22,1 °C 14,3 °C 55 % 85 % 1011,3 hPa 0,0 l/m² 5,9 km/h (2 Bft) SW 234 ° 1 min 304 W/m² 11,8 °C 14,3 °C 8,0 km/h (2 Bft)
26.07.2023 08:45 22,1 °C 14,4 °C 55 % 85 % 1011,3 hPa 0,0 l/m² 8,0 km/h (2 Bft) SW 232 ° 2 min 272 W/m² 11,9 °C 13,5 °C 12,9 km/h (3 Bft)
26.07.2023 08:47 22,1 °C 14,5 °C 55 % 84 % 1011,3 hPa 0,0 l/m² 12,9 km/h (3 Bft) W-SW 249 ° 2 min 239 W/m² 11,8 °C 11,3 °C 17,7 km/h (3 Bft)
26.07.2023 08:49 22,1 °C 14,6 °C 55 % 83 % 1011,3 hPa 0,0 l/m² 10,8 km/h (2 Bft) SW 222 ° 2 min 213 W/m² 11,7 °C 12,3 °C 14,5 km/h (3 Bft)
26.07.2023 08:51 22,1 °C 14,7 °C 55 % 84 % 1011,3 hPa 0,0 l/m² 8,5 km/h (2 Bft) SW 221 ° 2 min 332 W/m² 12,0 °C 13,5 °C 12,9 km/h (3 Bft)
26.07.2023 08:52 22,1 °C 14,7 °C 55 % 83 % 1011,4 hPa 0,0 l/m² 8,1 km/h (2 Bft) SW 221 ° 1 min 387 W/m² 11,8 °C 13,7 °C 11,3 km/h (2 Bft)
26.07.2023 08:53 22,1 °C 14,7 °C 55 % 83 % 1011,3 hPa 0,0 l/m² 6,7 km/h (2 Bft) SW 216 ° 1 min 464 W/m² 11,8 °C 14,5 °C 9,7 km/h (2 Bft)
26.07.2023 08:56 22,1 °C 14,9 °C 55 % 84 % 1011,4 hPa 0,0 l/m² 9,9 km/h (2 Bft) W-SW 247 ° 3 min 425 W/m² 12,2 °C 13,1 °C 14,5 km/h (3 Bft)
26.07.2023 08:58 22,1 °C 15,1 °C 55 % 83 % 1011,3 hPa 0,0 l/m² 8,8 km/h (2 Bft) W-SW 239 ° 2 min 431 W/m² 12,2 °C 13,8 °C 14,5 km/h (3 Bft)
26.07.2023 09:00 22,1 °C 15,2 °C 55 % 83 % 1011,4 hPa 0,0 l/m² 9,6 km/h (2 Bft) W-SW 242 ° 2 min 482 W/m² 12,3 °C 13,5 °C 12,9 km/h (3 Bft)
26.07.2023 09:01 22,1 °C 15,2 °C 55 % 83 % 1011,4 hPa 0,0 l/m² 11,6 km/h (2 Bft) W 261 ° 1 min 448 W/m² 12,3 °C 12,7 °C 14,5 km/h (3 Bft)
26.07.2023 09:02 22,1 °C 15,3 °C 55 % 83 % 1011,4 hPa 0,0 l/m² 10,4 km/h (2 Bft) SW 232 ° 1 min 406 W/m² 12,4 °C 13,3 °C 14,5 km/h (3 Bft)
26.07.2023 09:03 22,2 °C 15,3 °C 55 % 82 % 1011,5 hPa 0,0 l/m² 11,0 km/h (2 Bft) W-SW 254 ° 1 min 464 W/m² 12,2 °C 13,0 °C 16,1 km/h (3 Bft)
26.07.2023 09:04 22,2 °C 15,4 °C 55 % 82 % 1011,5 hPa 0,0 l/m² 9,3 km/h (2 Bft) W-SW 244 ° 1 min 471 W/m² 12,3 °C 13,9 °C 14,5 km/h (3 Bft)
26.07.2023 09:06 22,1 °C 15,5 °C 55 % 81 % 1011,5 hPa 0,0 l/m² 9,7 km/h (2 Bft) W-SW 243 ° 2 min 403 W/m² 12,3 °C 13,8 °C 14,5 km/h (3 Bft)
26.07.2023 09:08 22,1 °C 15,6 °C 55 % 80 % 1011,5 hPa 0,0 l/m² 11,7 km/h (2 Bft) SW 236 ° 2 min 392 W/m² 12,2 °C 13,1 °C 16,1 km/h (3 Bft)
26.07.2023 09:10 22,2 °C 15,6 °C 55 % 79 % 1011,5 hPa 0,0 l/m² 14,0 km/h (3 Bft) W 265 ° 2 min 411 W/m² 12,0 °C 12,2 °C 19,3 km/h (3 Bft)
26.07.2023 09:11 22,2 °C 15,7 °C 55 % 79 % 1011,5 hPa 0,0 l/m² 14,1 km/h (3 Bft) W-SW 242 ° 1 min 272 W/m² 12,1 °C 12,3 °C 17,7 km/h (3 Bft)
26.07.2023 09:12 22,1 °C 15,7 °C 55 % 79 % 1011,5 hPa 0,0 l/m² 9,6 km/h (2 Bft) SW 235 ° 1 min 323 W/m² 12,1 °C 14,1 °C 14,5 km/h (3 Bft)
26.07.2023 09:13 22,2 °C 15,7 °C 55 % 79 % 1011,5 hPa 0,0 l/m² 7,5 km/h (2 Bft) W 275 ° 1 min 323 W/m² 12,1 °C 15,1 °C 12,9 km/h (3 Bft)
26.07.2023 09:14 22,2 °C 15,7 °C 55 % 79 % 1011,5 hPa 0,0 l/m² 5,7 km/h (2 Bft) W 260 ° 1 min 510 W/m² 12,1 °C 15,7 °C 11,3 km/h (2 Bft)
26.07.2023 09:16 22,1 °C 15,8 °C 55 % 79 % 1011,4 hPa 0,0 l/m² 7,7 km/h (2 Bft) W 260 ° 2 min 512 W/m² 12,2 °C 15,1 °C 14,5 km/h (3 Bft)
26.07.2023 09:18 22,2 °C 15,9 °C 55 % 79 % 1011,4 hPa 0,0 l/m² 10,9 km/h (2 Bft) SW 225 ° 2 min 494 W/m² 12,3 °C 13,7 °C 17,7 km/h (3 Bft)
26.07.2023 09:20 22,2 °C 16,1 °C 55 % 78 % 1011,5 hPa 0,0 l/m² 11,2 km/h (2 Bft) SW 221 ° 2 min 503 W/m² 12,3 °C 13,8 °C 16,1 km/h (3 Bft)
26.07.2023 09:21 22,2 °C 16,1 °C 55 % 77 % 1011,5 hPa 0,0 l/m² 12,1 km/h (2 Bft) SW 231 ° 1 min 555 W/m² 12,1 °C 13,5 °C 14,5 km/h (3 Bft)
26.07.2023 09:22 22,2 °C 16,2 °C 55 % 77 % 1011,5 hPa 0,0 l/m² 10,3 km/h (2 Bft) W-NW 294 ° 1 min 536 W/m² 12,2 °C 14,3 °C 12,9 km/h (3 Bft)
26.07.2023 09:23 22,2 °C 16,2 °C 55 % 77 % 1011,5 hPa 0,0 l/m² 10,2 km/h (2 Bft) W 261 ° 1 min 566 W/m² 12,2 °C 14,4 °C 16,1 km/h (3 Bft)
26.07.2023 09:24 22,2 °C 16,3 °C 55 % 76 % 1011,5 hPa 0,0 l/m² 12,3 km/h (2 Bft) SW 229 ° 1 min 559 W/m² 12,1 °C 13,7 °C 16,1 km/h (3 Bft)
26.07.2023 09:26 22,2 °C 16,3 °C 55 % 76 % 1011,4 hPa 0,0 l/m² 8,8 km/h (2 Bft) W 259 ° 2 min 621 W/m² 12,1 °C 15,1 °C 14,5 km/h (3 Bft)
26.07.2023 09:28 22,2 °C 16,5 °C 55 % 74 % 1011,5 hPa 0,0 l/m² 11,5 km/h (2 Bft) SW 227 ° 2 min 594 W/m² 11,8 °C 14,2 °C 16,1 km/h (3 Bft)
26.07.2023 09:30 22,2 °C 16,7 °C 55 % 74 % 1011,5 hPa 0,0 l/m² 10,2 km/h (2 Bft) W 261 ° 2 min 677 W/m² 12,0 °C 14,9 °C 19,3 km/h (3 Bft)
26.07.2023 09:31 22,2 °C 16,7 °C 55 % 75 % 1011,4 hPa 0,0 l/m² 12,6 km/h (3 Bft) W-SW 244 ° 1 min 700 W/m² 12,2 °C 14,0 °C 16,1 km/h (3 Bft)
26.07.2023 09:32 22,2 °C 16,8 °C 55 % 74 % 1011,4 hPa 0,0 l/m² 12,3 km/h (2 Bft) W-SW 239 ° 1 min 622 W/m² 12,1 °C 14,2 °C 16,1 km/h (3 Bft)
26.07.2023 09:33 22,2 °C 16,9 °C 55 % 73 % 1011,5 hPa 0,0 l/m² 12,8 km/h (3 Bft) SW 227 ° 1 min 622 W/m² 12,0 °C 14,2 °C 16,1 km/h (3 Bft)
26.07.2023 09:34 22,2 °C 16,9 °C 55 % 73 % 1011,4 hPa 0,0 l/m² 14,8 km/h (3 Bft) SW 227 ° 1 min 622 W/m² 12,0 °C 13,6 °C 19,3 km/h (3 Bft)
26.07.2023 09:36 22,2 °C 17,1 °C 55 % 73 % 1011,6 hPa 0,0 l/m² 10,3 km/h (2 Bft) SW 232 ° 2 min 622 W/m² 12,2 °C 15,3 °C 14,5 km/h (3 Bft)
26.07.2023 09:38 22,2 °C 17,2 °C 55 % 73 % 1011,5 hPa 0,0 l/m² 5,5 km/h (2 Bft) SW 229 ° 2 min 689 W/m² 12,3 °C 17,2 °C 9,7 km/h (2 Bft)
26.07.2023 09:40 22,2 °C 17,3 °C 55 % 72 % 1011,5 hPa 0,0 l/m² 11,1 km/h (2 Bft) W-SW 256 ° 2 min 689 W/m² 12,2 °C 15,2 °C 17,7 km/h (3 Bft)
26.07.2023 09:41 22,2 °C 17,3 °C 55 % 71 % 1011,5 hPa 0,0 l/m² 16,0 km/h (3 Bft) W 262 ° 1 min 308 W/m² 12,0 °C 13,7 °C 19,3 km/h (3 Bft)
26.07.2023 09:42 22,2 °C 17,3 °C 55 % 70 % 1011,5 hPa 0,0 l/m² 15,6 km/h (3 Bft) W 270 ° 1 min 301 W/m² 11,8 °C 13,8 °C 19,3 km/h (3 Bft)
26.07.2023 09:43 22,2 °C 17,3 °C 55 % 69 % 1011,5 hPa 0,0 l/m² 9,3 km/h (2 Bft) W-SW 248 ° 1 min 301 W/m² 11,6 °C 15,9 °C 14,5 km/h (3 Bft)
26.07.2023 09:44 22,2 °C 17,3 °C 55 % 70 % 1011,5 hPa 0,0 l/m² 8,0 km/h (2 Bft) W-SW 237 ° 1 min 301 W/m² 11,8 °C 16,5 °C 14,5 km/h (3 Bft)
26.07.2023 09:46 22,2 °C 17,4 °C 55 % 70 % 1011,4 hPa 0,0 l/m² 7,5 km/h (2 Bft) W 269 ° 2 min 229 W/m² 11,9 °C 16,9 °C 12,9 km/h (3 Bft)
26.07.2023 09:47 22,2 °C 17,4 °C 55 % 70 % 1011,4 hPa 0,0 l/m² 11,0 km/h (2 Bft) W-NW 284 ° 1 min 232 W/m² 11,9 °C 15,4 °C 16,1 km/h (3 Bft)
26.07.2023 09:49 22,2 °C 17,4 °C 55 % 68 % 1011,4 hPa 0,0 l/m² 11,6 km/h (2 Bft) W-SW 254 ° 2 min 255 W/m² 11,4 °C 15,2 °C 22,5 km/h (4 Bft)
26.07.2023 09:50 22,2 °C 17,4 °C 55 % 67 % 1011,5 hPa 0,0 l/m² 7,7 km/h (2 Bft) W 263 ° 1 min 255 W/m² 11,2 °C 16,8 °C 11,3 km/h (2 Bft)
26.07.2023 09:52 22,2 °C 17,4 °C 55 % 66 % 1011,4 hPa 0,0 l/m² 7,2 km/h (2 Bft) W-NW 286 ° 2 min 457 W/m² 11,0 °C 17,0 °C 14,5 km/h (3 Bft)
26.07.2023 09:54 22,2 °C 17,4 °C 55 % 66 % 1011,4 hPa 0,0 l/m² 6,2 km/h (2 Bft) W-NW 288 ° 2 min 513 W/m² 11,0 °C 17,4 °C 12,9 km/h (3 Bft)
26.07.2023 09:56 22,2 °C 17,5 °C 55 % 68 % 1011,4 hPa 0,0 l/m² 6,3 km/h (2 Bft) W 259 ° 2 min 413 W/m² 11,5 °C 17,5 °C 12,9 km/h (3 Bft)
26.07.2023 09:58 22,2 °C 17,6 °C 55 % 66 % 1011,4 hPa 0,0 l/m² 8,1 km/h (2 Bft) SW 226 ° 2 min 292 W/m² 11,2 °C 16,8 °C 14,5 km/h (3 Bft)
26.07.2023 10:00 22,2 °C 17,6 °C 55 % 68 % 1011,4 hPa 0,0 l/m² 10,9 km/h (2 Bft) SW 234 ° 2 min 292 W/m² 11,6 °C 15,7 °C 17,7 km/h (3 Bft)
26.07.2023 10:01 22,2 °C 17,6 °C 55 % 68 % 1011,4 hPa 0,0 l/m² 12,2 km/h (2 Bft) SW 232 ° 1 min 260 W/m² 11,6 °C 15,2 °C 19,3 km/h (3 Bft)
26.07.2023 10:02 22,2 °C 17,6 °C 55 % 67 % 1011,4 hPa 0,0 l/m² 12,5 km/h (2 Bft) SW 228 ° 1 min 248 W/m² 11,4 °C 15,1 °C 17,7 km/h (3 Bft)
26.07.2023 10:03 22,2 °C 17,6 °C 55 % 67 % 1011,4 hPa 0,0 l/m² 8,0 km/h (2 Bft) W-SW 248 ° 1 min 253 W/m² 11,4 °C 16,8 °C 16,1 km/h (3 Bft)
26.07.2023 10:04 22,2 °C 17,6 °C 55 % 67 % 1011,4 hPa 0,0 l/m² 13,1 km/h (3 Bft) W-SW 254 ° 1 min 276 W/m² 11,4 °C 14,9 °C 17,7 km/h (3 Bft)
26.07.2023 10:06 22,2 °C 17,6 °C 55 % 68 % 1011,4 hPa 0,0 l/m² 13,1 km/h (3 Bft) SW 214 ° 2 min 294 W/m² 11,6 °C 14,9 °C 16,1 km/h (3 Bft)
26.07.2023 10:08 22,2 °C 17,6 °C 55 % 68 % 1011,4 hPa 0,0 l/m² 9,5 km/h (2 Bft) S-SW 201 ° 2 min 251 W/m² 11,6 °C 16,2 °C 12,9 km/h (3 Bft)
26.07.2023 10:10 22,2 °C 17,5 °C 55 % 69 % 1011,5 hPa 0,0 l/m² 10,0 km/h (2 Bft) S 179 ° 2 min 241 W/m² 11,7 °C 15,9 °C 12,9 km/h (3 Bft)
26.07.2023 10:11 22,2 °C 17,4 °C 55 % 69 % 1011,4 hPa 0,0 l/m² 12,5 km/h (2 Bft) SW 234 ° 1 min 253 W/m² 11,7 °C 14,9 °C 16,1 km/h (3 Bft)
26.07.2023 10:12 22,2 °C 17,4 °C 55 % 69 % 1011,4 hPa 0,0 l/m² 7,8 km/h (2 Bft) SW 215 ° 1 min 265 W/m² 11,7 °C 16,7 °C 9,7 km/h (2 Bft)
26.07.2023 10:13 22,2 °C 17,4 °C 55 % 69 % 1011,5 hPa 0,0 l/m² 11,1 km/h (2 Bft) S-SW 213 ° 1 min 265 W/m² 11,7 °C 15,4 °C 12,9 km/h (3 Bft)
26.07.2023 10:14 22,2 °C 17,4 °C 55 % 69 % 1011,4 hPa 0,0 l/m² 9,3 km/h (2 Bft) S-SW 209 ° 1 min 418 W/m² 11,7 °C 16,1 °C 12,9 km/h (3 Bft)
26.07.2023 10:16 22,2 °C 17,4 °C 55 % 70 % 1011,5 hPa 0,0 l/m² 13,9 km/h (3 Bft) S-SW 205 ° 2 min 283 W/m² 11,9 °C 14,4 °C 19,3 km/h (3 Bft)
26.07.2023 10:18 22,2 °C 17,3 °C 55 % 71 % 1011,4 hPa 0,0 l/m² 14,3 km/h (3 Bft) SW 221 ° 2 min 276 W/m² 12,0 °C 14,2 °C 19,3 km/h (3 Bft)
26.07.2023 10:20 22,2 °C 17,3 °C 55 % 72 % 1011,4 hPa 0,0 l/m² 16,1 km/h (3 Bft) SW 215 ° 2 min 316 W/m² 12,2 °C 13,7 °C 19,3 km/h (3 Bft)
26.07.2023 10:21 22,2 °C 17,2 °C 55 % 72 % 1011,5 hPa 0,0 l/m² 15,7 km/h (3 Bft) SW 229 ° 1 min 316 W/m² 12,1 °C 13,7 °C 17,7 km/h (3 Bft)
26.07.2023 10:22 22,2 °C 17,3 °C 55 % 72 % 1011,5 hPa 0,0 l/m² 16,8 km/h (3 Bft) S-SW 194 ° 1 min 673 W/m² 12,2 °C 13,5 °C 19,3 km/h (3 Bft)
26.07.2023 10:23 22,2 °C 17,3 °C 55 % 73 % 1011,4 hPa 0,0 l/m² 14,0 km/h (3 Bft) S 189 ° 1 min 675 W/m² 12,4 °C 14,3 °C 16,1 km/h (3 Bft)
26.07.2023 10:24 22,2 °C 17,3 °C 55 % 72 % 1011,4 hPa 0,0 l/m² 14,8 km/h (3 Bft) S-SW 202 ° 1 min 675 W/m² 12,2 °C 14,0 °C 17,7 km/h (3 Bft)
26.07.2023 10:26 22,2 °C 17,4 °C 55 % 73 % 1011,5 hPa 0,0 l/m² 13,8 km/h (3 Bft) SW 227 ° 2 min 439 W/m² 12,5 °C 14,5 °C 17,7 km/h (3 Bft)
26.07.2023 10:28 22,2 °C 17,4 °C 55 % 72 % 1011,4 hPa 0,0 l/m² 13,0 km/h (3 Bft) W 265 ° 2 min 302 W/m² 12,3 °C 14,7 °C 17,7 km/h (3 Bft)
26.07.2023 10:30 22,2 °C 17,4 °C 55 % 72 % 1011,4 hPa 0,0 l/m² 10,1 km/h (2 Bft) SW 215 ° 2 min 884 W/m² 12,3 °C 15,7 °C 16,1 km/h (3 Bft)
26.07.2023 10:31 22,2 °C 17,6 °C 55 % 72 % 1011,5 hPa 0,0 l/m² 9,7 km/h (2 Bft) S-SW 202 ° 1 min 882 W/m² 12,5 °C 16,1 °C 11,3 km/h (2 Bft)
26.07.2023 10:32 22,2 °C 17,6 °C 55 % 73 % 1011,5 hPa 0,0 l/m² 12,3 km/h (2 Bft) W-SW 245 ° 1 min 882 W/m² 12,7 °C 15,2 °C 17,7 km/h (3 Bft)
26.07.2023 10:33 22,2 °C 17,7 °C 55 % 72 % 1011,4 hPa 0,0 l/m² 10,7 km/h (2 Bft) W-SW 242 ° 1 min 882 W/m² 12,6 °C 15,8 °C 14,5 km/h (3 Bft)
26.07.2023 10:34 22,2 °C 17,8 °C 55 % 72 % 1011,4 hPa 0,0 l/m² 12,6 km/h (3 Bft) W 259 ° 1 min 330 W/m² 12,7 °C 15,3 °C 16,1 km/h (3 Bft)
26.07.2023 10:36 22,2 °C 17,8 °C 55 % 71 % 1011,4 hPa 0,0 l/m² 10,7 km/h (2 Bft) SW 224 ° 2 min 350 W/m² 12,5 °C 15,9 °C 14,5 km/h (3 Bft)
26.07.2023 10:38 22,2 °C 18,0 °C 55 % 70 % 1011,4 hPa 0,0 l/m² 8,8 km/h (2 Bft) S-SW 211 ° 2 min 914 W/m² 12,4 °C 16,9 °C 12,9 km/h (3 Bft)
26.07.2023 10:40 22,2 °C 18,1 °C 55 % 69 % 1011,3 hPa 0,0 l/m² 6,9 km/h (2 Bft) W 260 ° 2 min 313 W/m² 12,3 °C 17,9 °C 12,9 km/h (3 Bft)
26.07.2023 10:41 22,2 °C 18,1 °C 55 % 69 % 1011,3 hPa 0,0 l/m² 6,4 km/h (2 Bft) S-SW 200 ° 1 min 311 W/m² 12,3 °C 18,1 °C 11,3 km/h (2 Bft)
26.07.2023 10:42 22,2 °C 18,1 °C 55 % 68 % 1011,3 hPa 0,0 l/m² 14,3 km/h (3 Bft) W-SW 239 ° 1 min 316 W/m² 12,1 °C 15,1 °C 20,9 km/h (4 Bft)
26.07.2023 10:43 22,2 °C 18,1 °C 55 % 68 % 1011,2 hPa 0,0 l/m² 16,4 km/h (3 Bft) W 267 ° 1 min 320 W/m² 12,1 °C 14,6 °C 22,5 km/h (4 Bft)
26.07.2023 10:44 22,2 °C 18,1 °C 55 % 66 % 1011,3 hPa 0,0 l/m² 13,2 km/h (3 Bft) W-NW 290 ° 1 min 315 W/m² 11,6 °C 15,5 °C 19,3 km/h (3 Bft)
26.07.2023 10:46 22,2 °C 18,1 °C 55 % 65 % 1011,3 hPa 0,0 l/m² 7,6 km/h (2 Bft) W 268 ° 2 min 269 W/m² 11,4 °C 17,5 °C 14,5 km/h (3 Bft)
26.07.2023 10:48 22,2 °C 18,1 °C 55 % 65 % 1011,4 hPa 0,0 l/m² 7,2 km/h (2 Bft) W 263 ° 2 min 181 W/m² 11,4 °C 17,7 °C 12,9 km/h (3 Bft)
26.07.2023 10:50 22,2 °C 18,1 °C 55 % 65 % 1011,4 hPa 0,0 l/m² 8,1 km/h (2 Bft) W 264 ° 2 min 137 W/m² 11,4 °C 17,3 °C 14,5 km/h (3 Bft)
26.07.2023 10:51 22,2 °C 18,1 °C 55 % 64 % 1011,3 hPa 0,0 l/m² 8,3 km/h (2 Bft) W-SW 248 ° 1 min 104 W/m² 11,2 °C 17,2 °C 12,9 km/h (3 Bft)
26.07.2023 10:52 22,2 °C 18,1 °C 55 % 65 % 1011,3 hPa 0,0 l/m² 10,3 km/h (2 Bft) W-SW 252 ° 1 min 90 W/m² 11,4 °C 16,4 °C 12,9 km/h (3 Bft)
26.07.2023 10:53 22,2 °C 18,1 °C 55 % 65 % 1011,3 hPa 0,0 l/m² 11,0 km/h (2 Bft) W 259 ° 1 min 81 W/m² 11,4 °C 16,2 °C 14,5 km/h (3 Bft)
26.07.2023 10:54 22,2 °C 18,1 °C 55 % 65 % 1011,4 hPa 0,0 l/m² 8,7 km/h (2 Bft) W 279 ° 1 min 76 W/m² 11,4 °C 17,1 °C 14,5 km/h (3 Bft)
26.07.2023 10:56 22,2 °C 18,0 °C 55 % 65 % 1011,2 hPa 0,0 l/m² 7,2 km/h (2 Bft) W 277 ° 2 min 74 W/m² 11,3 °C 17,6 °C 12,9 km/h (3 Bft)
26.07.2023 10:58 22,2 °C 18,0 °C 55 % 65 % 1011,3 hPa 0,0 l/m² 8,0 km/h (2 Bft) SW 236 ° 2 min 72 W/m² 11,3 °C 17,3 °C 14,5 km/h (3 Bft)
26.07.2023 11:00 22,2 °C 17,9 °C 55 % 65 % 1011,4 hPa 0,0 l/m² 7,4 km/h (2 Bft) W-SW 244 ° 2 min 72 W/m² 11,2 °C 17,4 °C 12,9 km/h (3 Bft)
26.07.2023 11:01 22,2 °C 17,9 °C 55 % 66 % 1011,4 hPa 0,0 l/m² 6,3 km/h (2 Bft) W-NW 291 ° 1 min 76 W/m² 11,5 °C 17,9 °C 9,7 km/h (2 Bft)
26.07.2023 11:02 22,2 °C 17,9 °C 55 % 66 % 1011,3 hPa 0,0 l/m² 6,0 km/h (2 Bft) W 281 ° 1 min 81 W/m² 11,5 °C 17,9 °C 11,3 km/h (2 Bft)
26.07.2023 11:03 22,2 °C 17,8 °C 55 % 66 % 1011,3 hPa 0,0 l/m² 8,2 km/h (2 Bft) W 279 ° 1 min 105 W/m² 11,4 °C 17,0 °C 16,1 km/h (3 Bft)
26.07.2023 11:04 22,2 °C 17,8 °C 55 % 66 % 1011,3 hPa 0,0 l/m² 14,1 km/h (3 Bft) W-NW 288 ° 1 min 123 W/m² 11,4 °C 14,8 °C 17,7 km/h (3 Bft)
26.07.2023 11:06 22,2 °C 17,7 °C 55 % 64 % 1011,4 hPa 0,0 l/m² 12,9 km/h (3 Bft) W 259 ° 2 min 155 W/m² 10,8 °C 15,1 °C 20,9 km/h (4 Bft)
26.07.2023 11:08 22,2 °C 17,7 °C 55 % 65 % 1011,3 hPa 0,0 l/m² 14,4 km/h (3 Bft) S-SW 204 ° 2 min 188 W/m² 11,0 °C 14,6 °C 20,9 km/h (4 Bft)
26.07.2023 11:10 22,2 °C 17,6 °C 55 % 65 % 1011,3 hPa 0,0 l/m² 16,2 km/h (3 Bft) SW 226 ° 2 min 267 W/m² 10,9 °C 14,0 °C 24,1 km/h (4 Bft)
26.07.2023 11:11 22,2 °C 17,6 °C 55 % 65 % 1011,3 hPa 0,0 l/m² 14,0 km/h (3 Bft) W-SW 254 ° 1 min 267 W/m² 10,9 °C 14,6 °C 19,3 km/h (3 Bft)
26.07.2023 11:12 22,2 °C 17,6 °C 55 % 65 % 1011,3 hPa 0,0 l/m² 16,9 km/h (3 Bft) W 269 ° 1 min 830 W/m² 10,9 °C 13,8 °C 22,5 km/h (4 Bft)
26.07.2023 11:13 22,2 °C 17,7 °C 55 % 66 % 1011,3 hPa 0,0 l/m² 14,3 km/h (3 Bft) SW 227 ° 1 min 830 W/m² 11,3 °C 14,7 °C 19,3 km/h (3 Bft)
26.07.2023 11:14 22,2 °C 17,7 °C 55 % 65 % 1011,3 hPa 0,0 l/m² 19,9 km/h (4 Bft) SW 232 ° 1 min 830 W/m² 11,0 °C 13,3 °C 22,5 km/h (4 Bft)
26.07.2023 11:16 22,2 °C 17,9 °C 55 % 64 % 1011,3 hPa 0,0 l/m² 20,9 km/h (4 Bft) SW 217 ° 2 min 573 W/m² 11,0 °C 13,3 °C 27,4 km/h (5 Bft)
26.07.2023 11:18 22,2 °C 18,1 °C 55 % 63 % 1011,3 hPa 0,0 l/m² 20,5 km/h (4 Bft) W-SW 246 ° 2 min 257 W/m² 10,9 °C 13,6 °C 30,6 km/h (5 Bft)
26.07.2023 11:20 22,2 °C 18,2 °C 55 % 62 % 1011,3 hPa 0,0 l/m² 20,4 km/h (4 Bft) W-SW 241 ° 2 min 812 W/m² 10,8 °C 13,8 °C 27,4 km/h (5 Bft)
26.07.2023 11:21 22,2 °C 18,2 °C 55 % 62 % 1011,2 hPa 0,0 l/m² 18,2 km/h (3 Bft) SW 218 ° 1 min 717 W/m² 10,8 °C 14,3 °C 22,5 km/h (4 Bft)
26.07.2023 11:22 22,2 °C 18,3 °C 55 % 63 % 1011,2 hPa 0,0 l/m² 20,7 km/h (4 Bft) W-SW 241 ° 1 min 680 W/m² 11,1 °C 13,9 °C 25,7 km/h (4 Bft)
26.07.2023 11:23 22,2 °C 18,4 °C 55 % 62 % 1011,3 hPa 0,0 l/m² 19,6 km/h (3 Bft) W-SW 239 ° 1 min 694 W/m² 11,0 °C 14,2 °C 25,7 km/h (4 Bft)
26.07.2023 11:24 22,2 °C 18,4 °C 55 % 63 % 1011,2 hPa 0,0 l/m² 19,0 km/h (3 Bft) W-SW 251 ° 1 min 694 W/m² 11,2 °C 14,4 °C 22,5 km/h (4 Bft)
26.07.2023 11:26 22,2 °C 18,6 °C 55 % 62 % 1011,1 hPa 0,0 l/m² 15,9 km/h (3 Bft) W-SW 241 ° 2 min 907 W/m² 11,2 °C 15,3 °C 29,0 km/h (5 Bft)
26.07.2023 11:28 22,2 °C 18,8 °C 55 % 62 % 1011,2 hPa 0,0 l/m² 23,1 km/h (4 Bft) SW 221 ° 2 min 983 W/m² 11,4 °C 14,1 °C 27,4 km/h (5 Bft)
26.07.2023 11:30 22,2 °C 18,9 °C 55 % 62 % 1011,2 hPa 0,0 l/m² 18,8 km/h (3 Bft) SW 225 ° 2 min 979 W/m² 11,5 °C 15,0 °C 29,0 km/h (5 Bft)
26.07.2023 11:31 22,2 °C 19,0 °C 55 % 63 % 1011,1 hPa 0,0 l/m² 23,7 km/h (4 Bft) SW 234 ° 1 min 984 W/m² 11,8 °C 14,2 °C 29,0 km/h (5 Bft)
26.07.2023 11:32 22,2 °C 19,1 °C 55 % 62 % 1011,1 hPa 0,0 l/m² 25,5 km/h (4 Bft) SW 231 ° 1 min 1060 W/m² 11,6 °C 14,1 °C 32,2 km/h (5 Bft)
26.07.2023 11:33 22,2 °C 19,2 °C 55 % 62 % 1011,2 hPa 0,0 l/m² 16,8 km/h (3 Bft) S-SW 212 ° 1 min 974 W/m² 11,7 °C 15,8 °C 24,1 km/h (4 Bft)
26.07.2023 11:34 22,2 °C 19,3 °C 55 % 61 % 1011,2 hPa 0,0 l/m² 15,4 km/h (3 Bft) W-SW 249 ° 1 min 1056 W/m² 11,6 °C 16,3 °C 20,9 km/h (4 Bft)
26.07.2023 11:36 22,2 °C 19,4 °C 55 % 60 % 1011,2 hPa 0,0 l/m² 19,4 km/h (3 Bft) SW 228 ° 2 min 785 W/m² 11,4 °C 15,5 °C 29,0 km/h (5 Bft)
26.07.2023 11:38 22,2 °C 19,6 °C 55 % 61 % 1011,3 hPa 0,0 l/m² 16,8 km/h (3 Bft) SW 219 ° 2 min 787 W/m² 11,9 °C 16,3 °C 24,1 km/h (4 Bft)
26.07.2023 11:40 22,2 °C 19,7 °C 55 % 61 % 1011,2 hPa 0,0 l/m² 20,0 km/h (4 Bft) W 263 ° 2 min 789 W/m² 12,0 °C 15,8 °C 24,1 km/h (4 Bft)
26.07.2023 11:41 22,2 °C 19,7 °C 55 % 59 % 1011,2 hPa 0,0 l/m² 18,8 km/h (3 Bft) W-SW 240 ° 1 min 790 W/m² 11,5 °C 16,1 °C 22,5 km/h (4 Bft)
26.07.2023 11:42 22,2 °C 19,7 °C 55 % 59 % 1011,2 hPa 0,0 l/m² 15,5 km/h (3 Bft) S-SW 212 ° 1 min 1078 W/m² 11,5 °C 16,8 °C 19,3 km/h (3 Bft)
26.07.2023 11:43 22,2 °C 19,8 °C 55 % 61 % 1011,2 hPa 0,0 l/m² 12,8 km/h (3 Bft) W-SW 244 ° 1 min 1078 W/m² 12,1 °C 17,6 °C 17,7 km/h (3 Bft)
26.07.2023 11:44 22,2 °C 19,8 °C 55 % 61 % 1011,3 hPa 0,0 l/m² 14,6 km/h (3 Bft) W-SW 248 ° 1 min 582 W/m² 12,1 °C 17,1 °C 19,3 km/h (3 Bft)
26.07.2023 11:46 22,2 °C 19,9 °C 55 % 60 % 1011,2 hPa 0,0 l/m² 18,9 km/h (3 Bft) W-SW 247 ° 2 min 318 W/m² 11,9 °C 16,3 °C 29,0 km/h (5 Bft)
26.07.2023 11:48 22,3 °C 19,9 °C 55 % 58 % 1011,2 hPa 0,0 l/m² 16,0 km/h (3 Bft) SW 227 ° 2 min 322 W/m² 11,4 °C 16,9 °C 20,9 km/h (4 Bft)
26.07.2023 11:50 22,2 °C 19,9 °C 55 % 57 % 1011,3 hPa 0,0 l/m² 17,4 km/h (3 Bft) W-SW 249 ° 2 min 935 W/m² 11,1 °C 16,6 °C 30,6 km/h (5 Bft)
26.07.2023 11:51 22,2 °C 19,9 °C 55 % 59 % 1011,3 hPa 0,0 l/m² 29,6 km/h (5 Bft) W-SW 246 ° 1 min 260 W/m² 11,6 °C 14,6 °C 40,2 km/h (6 Bft)
26.07.2023 11:52 22,2 °C 19,8 °C 55 % 60 % 1011,3 hPa 0,0 l/m² 19,5 km/h (3 Bft) SW 222 ° 1 min 260 W/m² 11,8 °C 16,0 °C 24,1 km/h (4 Bft)
26.07.2023 11:53 22,2 °C 19,7 °C 55 % 61 % 1011,3 hPa 0,0 l/m² 25,9 km/h (4 Bft) SW 216 ° 1 min 262 W/m² 12,0 °C 14,8 °C 35,4 km/h (5 Bft)
26.07.2023 11:54 22,2 °C 19,6 °C 55 % 61 % 1011,3 hPa 0,0 l/m² 30,4 km/h (5 Bft) W-SW 246 ° 1 min 283 W/m² 11,9 °C 14,1 °C 40,2 km/h (6 Bft)
26.07.2023 11:56 22,2 °C 19,1 °C 55 % 61 % 1011,4 hPa 0,0 l/m² 29,6 km/h (5 Bft) W-SW 243 ° 2 min 425 W/m² 11,4 °C 13,5 °C 43,5 km/h (6 Bft)
26.07.2023 11:58 22,3 °C 18,7 °C 55 % 62 % 1011,4 hPa 0,0 l/m² 30,0 km/h (5 Bft) W-SW 244 ° 2 min 206 W/m² 11,3 °C 12,9 °C 37,0 km/h (5 Bft)
26.07.2023 12:00 22,2 °C 18,2 °C 55 % 65 % 1011,4 hPa 0,0 l/m² 27,6 km/h (5 Bft) SW 222 ° 2 min 190 W/m² 11,5 °C 12,5 °C 35,4 km/h (5 Bft)
26.07.2023 12:01 22,2 °C 17,9 °C 55 % 65 % 1011,4 hPa 0,0 l/m² 25,1 km/h (4 Bft) SW 221 ° 1 min 190 W/m² 11,2 °C 12,5 °C 32,2 km/h (5 Bft)
26.07.2023 12:02 22,2 °C 17,8 °C 55 % 66 % 1011,4 hPa 0,0 l/m² 20,4 km/h (4 Bft) NW 315 ° 1 min 188 W/m² 11,4 °C 13,3 °C 29,0 km/h (5 Bft)
26.07.2023 12:03 22,2 °C 17,6 °C 55 % 68 % 1011,5 hPa 0,0 l/m² 22,7 km/h (4 Bft) W-SW 248 ° 1 min 188 W/m² 11,6 °C 12,6 °C 29,0 km/h (5 Bft)
26.07.2023 12:04 22,2 °C 17,4 °C 55 % 69 % 1011,5 hPa 0,0 l/m² 23,7 km/h (4 Bft) W-SW 246 ° 1 min 188 W/m² 11,7 °C 12,1 °C 32,2 km/h (5 Bft)
26.07.2023 12:06 22,2 °C 17,0 °C 55 % 71 % 1011,5 hPa 0,0 l/m² 18,0 km/h (3 Bft) SW 228 ° 2 min 192 W/m² 11,7 °C 12,8 °C 25,7 km/h (4 Bft)
26.07.2023 12:08 22,2 °C 16,7 °C 55 % 72 % 1011,5 hPa 0,0 l/m² 18,2 km/h (3 Bft) SW 219 ° 2 min 243 W/m² 11,6 °C 12,4 °C 24,1 km/h (4 Bft)
26.07.2023 12:10 22,2 °C 16,4 °C 55 % 72 % 1011,5 hPa 0,0 l/m² 15,4 km/h (3 Bft) S-SW 209 ° 2 min 327 W/m² 11,3 °C 12,8 °C 22,5 km/h (4 Bft)
26.07.2023 12:11 22,2 °C 16,3 °C 55 % 74 % 1011,5 hPa 0,0 l/m² 14,8 km/h (3 Bft) SW 221 ° 1 min 411 W/m² 11,7 °C 12,8 °C 19,3 km/h (3 Bft)
26.07.2023 12:12 22,2 °C 16,3 °C 55 % 75 % 1011,5 hPa 0,0 l/m² 13,7 km/h (3 Bft) SW 231 ° 1 min 411 W/m² 11,9 °C 13,2 °C 19,3 km/h (3 Bft)
26.07.2023 12:13 22,2 °C 16,2 °C 55 % 76 % 1011,5 hPa 0,0 l/m² 14,9 km/h (3 Bft) SW 217 ° 1 min 411 W/m² 12,0 °C 12,7 °C 19,3 km/h (3 Bft)
26.07.2023 12:14 22,2 °C 16,2 °C 55 % 77 % 1011,5 hPa 0,0 l/m² 15,9 km/h (3 Bft) SW 222 ° 1 min 411 W/m² 12,2 °C 12,4 °C 19,3 km/h (3 Bft)
26.07.2023 12:16 22,2 °C 16,3 °C 55 % 78 % 1011,5 hPa 0,0 l/m² 15,8 km/h (3 Bft) SW 222 ° 2 min 411 W/m² 12,5 °C 12,5 °C 33,8 km/h (5 Bft)
26.07.2023 12:18 22,2 °C 16,5 °C 55 % 77 % 1011,5 hPa 0,0 l/m² 26,6 km/h (4 Bft) S-SW 202 ° 2 min 822 W/m² 12,5 °C 10,4 °C 33,8 km/h (5 Bft)
26.07.2023 12:20 22,2 °C 16,7 °C 55 % 75 % 1011,4 hPa 0,0 l/m² 23,5 km/h (4 Bft) SW 215 ° 2 min 823 W/m² 12,2 °C 11,2 °C 32,2 km/h (5 Bft)
26.07.2023 12:22 22,2 °C 16,9 °C 55 % 73 % 1011,5 hPa 0,0 l/m² 21,0 km/h (4 Bft) SW 217 ° 2 min 825 W/m² 12,0 °C 12,0 °C 29,0 km/h (5 Bft)
26.07.2023 12:23 22,2 °C 16,9 °C 55 % 74 % 1011,5 hPa 0,0 l/m² 20,1 km/h (4 Bft) S-SW 213 ° 1 min 1093 W/m² 12,2 °C 12,2 °C 25,7 km/h (4 Bft)
26.07.2023 12:24 22,2 °C 17,1 °C 55 % 74 % 1011,5 hPa 0,0 l/m² 28,0 km/h (5 Bft) SW 215 ° 1 min 1060 W/m² 12,4 °C 10,9 °C 33,8 km/h (5 Bft)
26.07.2023 12:25 22,2 °C 17,2 °C 55 % 72 % 1011,5 hPa 0,0 l/m² 22,5 km/h (4 Bft) W-SW 249 ° 1 min 1049 W/m² 12,1 °C 12,1 °C 27,4 km/h (5 Bft)
26.07.2023 12:27 22,2 °C 17,4 °C 55 % 70 % 1011,5 hPa 0,0 l/m² 25,5 km/h (4 Bft) S-SW 211 ° 2 min 1109 W/m² 11,9 °C 11,8 °C 33,8 km/h (5 Bft)
26.07.2023 12:28 22,2 °C 17,5 °C 55 % 66 % 1011,5 hPa 0,0 l/m² 27,0 km/h (5 Bft) SW 226 ° 1 min 1120 W/m² 11,1 °C 11,7 °C 32,2 km/h (5 Bft)
26.07.2023 12:29 22,2 °C 17,7 °C 54 % 65 % 1011,4 hPa 0,0 l/m² 28,0 km/h (5 Bft) SW 223 ° 1 min 1120 W/m² 11,0 °C 11,8 °C 35,4 km/h (5 Bft)
26.07.2023 12:31 22,3 °C 17,8 °C 55 % 63 % 1011,5 hPa 0,0 l/m² 25,5 km/h (4 Bft) SW 215 ° 2 min 527 W/m² 10,7 °C 12,3 °C 35,4 km/h (5 Bft)
26.07.2023 12:32 22,3 °C 17,8 °C 55 % 63 % 1011,5 hPa 0,0 l/m² 22,9 km/h (4 Bft) SW 234 ° 1 min 355 W/m² 10,7 °C 12,8 °C 29,0 km/h (5 Bft)
26.07.2023 12:33 22,3 °C 17,9 °C 55 % 63 % 1011,5 hPa 0,0 l/m² 23,8 km/h (4 Bft) SW 219 ° 1 min 339 W/m² 10,8 °C 12,7 °C 27,4 km/h (5 Bft)
26.07.2023 12:34 22,3 °C 17,8 °C 54 % 64 % 1011,5 hPa 0,0 l/m² 21,8 km/h (4 Bft) S-SW 212 ° 1 min 315 W/m² 10,9 °C 13,0 °C 25,7 km/h (4 Bft)
26.07.2023 12:35 22,2 °C 17,8 °C 55 % 63 % 1011,5 hPa 0,0 l/m² 24,2 km/h (4 Bft) SW 214 ° 1 min 306 W/m² 10,7 °C 12,5 °C 33,8 km/h (5 Bft)
26.07.2023 12:36 22,3 °C 17,8 °C 54 % 63 % 1011,5 hPa 0,0 l/m² 19,4 km/h (3 Bft) S-SW 200 ° 1 min 308 W/m² 10,7 °C 13,5 °C 25,7 km/h (4 Bft)
26.07.2023 12:37 22,3 °C 17,7 °C 54 % 64 % 1011,5 hPa 0,0 l/m² 22,1 km/h (4 Bft) S-SW 211 ° 1 min 302 W/m² 10,8 °C 12,8 °C 30,6 km/h (5 Bft)
26.07.2023 12:38 22,2 °C 17,6 °C 54 % 63 % 1011,5 hPa 0,0 l/m² 20,5 km/h (4 Bft) SW 229 ° 1 min 301 W/m² 10,5 °C 13,0 °C 29,0 km/h (5 Bft)
26.07.2023 12:39 22,2 °C 17,5 °C 54 % 64 % 1011,5 hPa 0,0 l/m² 21,0 km/h (4 Bft) S-SW 213 ° 1 min 315 W/m² 10,6 °C 12,8 °C 27,4 km/h (5 Bft)
26.07.2023 12:41 22,3 °C 17,3 °C 54 % 64 % 1011,6 hPa 0,0 l/m² 21,0 km/h (4 Bft) SW 214 ° 2 min 360 W/m² 10,4 °C 12,5 °C 35,4 km/h (5 Bft)
26.07.2023 12:43 22,3 °C 17,2 °C 54 % 65 % 1011,5 hPa 0,0 l/m² 22,9 km/h (4 Bft) SW 220 ° 2 min 360 W/m² 10,6 °C 12,0 °C 29,0 km/h (5 Bft)
26.07.2023 12:45 22,3 °C 17,3 °C 54 % 66 % 1011,5 hPa 0,0 l/m² 18,8 km/h (3 Bft) SW 223 ° 2 min 360 W/m² 10,9 °C 13,0 °C 24,1 km/h (4 Bft)
26.07.2023 12:46 22,2 °C 17,3 °C 54 % 67 % 1011,5 hPa 0,0 l/m² 18,9 km/h (3 Bft) S-SW 192 ° 1 min 360 W/m² 11,1 °C 13,0 °C 24,1 km/h (4 Bft)
26.07.2023 12:47 22,2 °C 17,4 °C 54 % 66 % 1011,4 hPa 0,0 l/m² 23,3 km/h (4 Bft) S-SW 203 ° 1 min 965 W/m² 11,0 °C 12,2 °C 27,4 km/h (5 Bft)
26.07.2023 12:48 22,3 °C 17,4 °C 54 % 66 % 1011,4 hPa 0,0 l/m² 18,8 km/h (3 Bft) S-SW 213 ° 1 min 914 W/m² 11,0 °C 13,1 °C 25,7 km/h (4 Bft)
26.07.2023 12:49 22,3 °C 17,6 °C 54 % 67 % 1011,4 hPa 0,0 l/m² 22,9 km/h (4 Bft) SW 221 ° 1 min 914 W/m² 11,4 °C 12,5 °C 25,7 km/h (4 Bft)
26.07.2023 12:51 22,3 °C 17,7 °C 54 % 67 % 1011,3 hPa 0,0 l/m² 19,3 km/h (3 Bft) SW 227 ° 2 min 923 W/m² 11,5 °C 13,4 °C 30,6 km/h (5 Bft)
26.07.2023 12:53 22,3 °C 17,8 °C 54 % 65 % 1011,3 hPa 0,0 l/m² 20,8 km/h (4 Bft) SW 221 ° 2 min 911 W/m² 11,1 °C 13,2 °C 29,0 km/h (5 Bft)
26.07.2023 12:54 22,3 °C 17,9 °C 54 % 66 % 1011,4 hPa 0,0 l/m² 17,5 km/h (3 Bft) SW 220 ° 1 min 911 W/m² 11,5 °C 14,1 °C 22,5 km/h (4 Bft)
26.07.2023 12:55 22,3 °C 18,0 °C 54 % 66 % 1011,3 hPa 0,0 l/m² 15,5 km/h (3 Bft) S-SW 205 ° 1 min 909 W/m² 11,6 °C 14,7 °C 19,3 km/h (3 Bft)
26.07.2023 12:56 22,2 °C 18,1 °C 54 % 66 % 1011,3 hPa 0,0 l/m² 11,8 km/h (2 Bft) W-SW 247 ° 1 min 909 W/m² 11,6 °C 15,9 °C 16,1 km/h (3 Bft)
26.07.2023 12:57 22,2 °C 18,2 °C 54 % 67 % 1011,3 hPa 0,0 l/m² 15,9 km/h (3 Bft) W-SW 253 ° 1 min 907 W/m² 12,0 °C 14,8 °C 19,3 km/h (3 Bft)
26.07.2023 12:58 22,3 °C 18,4 °C 54 % 66 % 1011,3 hPa 0,0 l/m² 15,4 km/h (3 Bft) S-SW 209 ° 1 min 905 W/m² 11,9 °C 15,2 °C 19,3 km/h (3 Bft)
26.07.2023 12:59 22,3 °C 18,4 °C 54 % 65 % 1011,3 hPa 0,0 l/m² 21,6 km/h (4 Bft) SW 223 ° 1 min 911 W/m² 11,7 °C 13,8 °C 25,7 km/h (4 Bft)
26.07.2023 13:01 22,3 °C 18,7 °C 54 % 65 % 1011,3 hPa 0,0 l/m² 17,5 km/h (3 Bft) SW 230 ° 2 min 905 W/m² 12,0 °C 15,1 °C 22,5 km/h (4 Bft)
26.07.2023 13:03 22,3 °C 18,9 °C 54 % 65 % 1011,2 hPa 0,0 l/m² 14,7 km/h (3 Bft) SW 236 ° 2 min 907 W/m² 12,2 °C 16,0 °C 20,9 km/h (4 Bft)
26.07.2023 13:04 22,3 °C 18,9 °C 54 % 63 % 1011,3 hPa 0,0 l/m² 12,0 km/h (2 Bft) SW 225 ° 1 min 909 W/m² 11,7 °C 16,8 °C 17,7 km/h (3 Bft)
26.07.2023 13:05 22,3 °C 19,0 °C 54 % 63 % 1011,2 hPa 0,0 l/m² 19,0 km/h (3 Bft) S-SW 211 ° 1 min 911 W/m² 11,8 °C 15,1 °C 25,7 km/h (4 Bft)
26.07.2023 13:06 22,3 °C 19,1 °C 54 % 63 % 1011,2 hPa 0,0 l/m² 22,3 km/h (4 Bft) SW 232 ° 1 min 918 W/m² 11,9 °C 14,6 °C 25,7 km/h (4 Bft)
26.07.2023 13:07 22,3 °C 19,1 °C 54 % 62 % 1011,3 hPa 0,0 l/m² 15,8 km/h (3 Bft) S-SW 209 ° 1 min 918 W/m² 11,6 °C 16,0 °C 24,1 km/h (4 Bft)
26.07.2023 13:08 22,3 °C 19,2 °C 54 % 64 % 1011,2 hPa 0,0 l/m² 16,7 km/h (3 Bft) S-SW 211 ° 1 min 918 W/m² 12,2 °C 15,9 °C 22,5 km/h (4 Bft)
26.07.2023 13:09 22,3 °C 19,2 °C 54 % 63 % 1011,3 hPa 0,0 l/m² 20,3 km/h (4 Bft) SW 227 ° 1 min 919 W/m² 12,0 °C 15,1 °C 24,1 km/h (4 Bft)
26.07.2023 13:11 22,3 °C 19,3 °C 54 % 62 % 1011,2 hPa 0,0 l/m² 12,6 km/h (3 Bft) SW 219 ° 2 min 930 W/m² 11,8 °C 17,0 °C 19,3 km/h (3 Bft)
26.07.2023 13:13 22,3 °C 19,4 °C 54 % 62 % 1011,2 hPa 0,0 l/m² 15,4 km/h (3 Bft) S-SW 201 ° 2 min 940 W/m² 11,9 °C 16,4 °C 24,1 km/h (4 Bft)
26.07.2023 13:14 22,3 °C 19,5 °C 54 % 61 % 1011,2 hPa 0,0 l/m² 14,3 km/h (3 Bft) SW 227 ° 1 min 940 W/m² 11,8 °C 16,8 °C 17,7 km/h (3 Bft)
26.07.2023 13:15 22,3 °C 19,6 °C 54 % 61 % 1011,2 hPa 0,0 l/m² 18,5 km/h (3 Bft) SW 217 ° 1 min 991 W/m² 11,9 °C 16,0 °C 27,4 km/h (5 Bft)
26.07.2023 13:16 22,3 °C 19,7 °C 54 % 62 % 1011,2 hPa 0,0 l/m² 17,2 km/h (3 Bft) SW 224 ° 1 min 1013 W/m² 12,2 °C 16,4 °C 22,5 km/h (4 Bft)
26.07.2023 13:17 22,3 °C 19,7 °C 54 % 60 % 1011,1 hPa 0,0 l/m² 23,9 km/h (4 Bft) W-SW 250 ° 1 min 979 W/m² 11,7 °C 15,1 °C 33,8 km/h (5 Bft)
26.07.2023 13:18 22,3 °C 19,7 °C 54 % 60 % 1011,2 hPa 0,0 l/m² 18,3 km/h (3 Bft) SW 216 ° 1 min 963 W/m² 11,7 °C 16,2 °C 25,7 km/h (4 Bft)
26.07.2023 13:19 22,3 °C 19,8 °C 54 % 60 % 1011,1 hPa 0,0 l/m² 21,4 km/h (4 Bft) SW 219 ° 1 min 962 W/m² 11,8 °C 15,7 °C 27,4 km/h (5 Bft)
26.07.2023 13:21 22,3 °C 19,9 °C 54 % 59 % 1011,1 hPa 0,0 l/m² 17,4 km/h (3 Bft) SW 219 ° 2 min 974 W/m² 11,6 °C 16,6 °C 27,4 km/h (5 Bft)
26.07.2023 13:23 22,3 °C 19,9 °C 54 % 58 % 1011,0 hPa 0,0 l/m² 18,3 km/h (3 Bft) SW 215 ° 2 min 977 W/m² 11,4 °C 16,4 °C 25,7 km/h (4 Bft)
26.07.2023 13:24 22,3 °C 19,9 °C 54 % 57 % 1011,0 hPa 0,0 l/m² 18,3 km/h (3 Bft) SW 215 ° 1 min 970 W/m² 11,1 °C 16,4 °C 24,1 km/h (4 Bft)
26.07.2023 13:25 22,3 °C 19,9 °C 54 % 59 % 1011,0 hPa 0,0 l/m² 20,7 km/h (4 Bft) SW 223 ° 1 min 951 W/m² 11,6 °C 15,9 °C 25,7 km/h (4 Bft)
26.07.2023 13:26 22,3 °C 20,0 °C 54 % 59 % 1011,0 hPa 0,0 l/m² 19,1 km/h (3 Bft) SW 223 ° 1 min 951 W/m² 11,7 °C 16,4 °C 24,1 km/h (4 Bft)
26.07.2023 13:27 22,3 °C 20,1 °C 54 % 57 % 1011,0 hPa 0,0 l/m² 22,6 km/h (4 Bft) SW 218 ° 1 min 928 W/m² 11,3 °C 15,9 °C 29,0 km/h (5 Bft)
26.07.2023 13:28 22,3 °C 20,1 °C 54 % 57 % 1011,0 hPa 0,0 l/m² 22,0 km/h (4 Bft) S-SW 209 ° 1 min 925 W/m² 11,3 °C 16,0 °C 27,4 km/h (5 Bft)
26.07.2023 13:29 22,3 °C 20,1 °C 54 % 56 % 1011,0 hPa 0,0 l/m² 20,4 km/h (4 Bft) SW 214 ° 1 min 911 W/m² 11,0 °C 16,3 °C 25,7 km/h (4 Bft)
26.07.2023 13:31 22,3 °C 20,1 °C 54 % 56 % 1011,0 hPa 0,0 l/m² 19,5 km/h (3 Bft) S-SW 203 ° 2 min 902 W/m² 11,0 °C 16,4 °C 24,1 km/h (4 Bft)
26.07.2023 13:33 22,3 °C 20,2 °C 54 % 55 % 1010,9 hPa 0,0 l/m² 13,1 km/h (3 Bft) S-SW 213 ° 2 min 895 W/m² 10,9 °C 18,0 °C 19,3 km/h (3 Bft)
26.07.2023 13:34 22,3 °C 20,2 °C 54 % 55 % 1010,9 hPa 0,0 l/m² 20,0 km/h (4 Bft) SW 223 ° 1 min 896 W/m² 10,9 °C 16,5 °C 25,7 km/h (4 Bft)
26.07.2023 13:35 22,3 °C 20,2 °C 54 % 57 % 1010,9 hPa 0,0 l/m² 15,9 km/h (3 Bft) SW 217 ° 1 min 891 W/m² 11,4 °C 17,3 °C 20,9 km/h (4 Bft)
26.07.2023 13:36 22,3 °C 20,2 °C 54 % 56 % 1011,0 hPa 0,0 l/m² 11,7 km/h (2 Bft) W-SW 248 ° 1 min 891 W/m² 11,1 °C 18,3 °C 19,3 km/h (3 Bft)
26.07.2023 13:37 22,3 °C 20,2 °C 54 % 57 % 1011,0 hPa 0,0 l/m² 13,4 km/h (3 Bft) SW 234 ° 1 min 898 W/m² 11,4 °C 17,9 °C 17,7 km/h (3 Bft)
26.07.2023 13:38 22,3 °C 20,3 °C 54 % 57 % 1011,0 hPa 0,0 l/m² 10,9 km/h (2 Bft) W-SW 254 ° 1 min 902 W/m² 11,5 °C 18,7 °C 17,7 km/h (3 Bft)
26.07.2023 13:39 22,3 °C 20,3 °C 54 % 56 % 1011,0 hPa 0,0 l/m² 9,3 km/h (2 Bft) S-SW 210 ° 1 min 904 W/m² 11,2 °C 19,2 °C 14,5 km/h (3 Bft)
26.07.2023 13:41 22,3 °C 20,5 °C 54 % 57 % 1010,9 hPa 0,0 l/m² 15,8 km/h (3 Bft) SW 235 ° 2 min 911 W/m² 11,7 °C 17,7 °C 24,1 km/h (4 Bft)
26.07.2023 13:43 22,3 °C 20,6 °C 54 % 54 % 1010,9 hPa 0,0 l/m² 8,8 km/h (2 Bft) S-SW 202 ° 2 min 944 W/m² 11,0 °C 19,7 °C 16,1 km/h (3 Bft)
26.07.2023 13:44 22,3 °C 20,7 °C 54 % 54 % 1010,9 hPa 0,0 l/m² 11,0 km/h (2 Bft) S 187 ° 1 min 944 W/m² 11,1 °C 19,1 °C 16,1 km/h (3 Bft)
26.07.2023 13:45 22,3 °C 20,7 °C 54 % 55 % 1010,8 hPa 0,0 l/m² 12,1 km/h (2 Bft) S-SW 194 ° 1 min 944 W/m² 11,3 °C 18,8 °C 16,1 km/h (3 Bft)
26.07.2023 13:46 22,3 °C 20,7 °C 54 % 56 % 1010,7 hPa 0,0 l/m² 22,3 km/h (4 Bft) S-SW 208 ° 1 min 958 W/m² 11,6 °C 16,7 °C 27,4 km/h (5 Bft)
26.07.2023 13:47 22,3 °C 20,8 °C 54 % 56 % 1010,8 hPa 0,0 l/m² 21,2 km/h (4 Bft) W-SW 249 ° 1 min 972 W/m² 11,7 °C 17,0 °C 25,7 km/h (4 Bft)
26.07.2023 13:48 22,3 °C 20,9 °C 54 % 55 % 1010,9 hPa 0,0 l/m² 15,9 km/h (3 Bft) W-SW 244 ° 1 min 977 W/m² 11,5 °C 18,1 °C 24,1 km/h (4 Bft)
26.07.2023 13:49 22,3 °C 20,9 °C 54 % 54 % 1010,9 hPa 0,0 l/m² 12,7 km/h (3 Bft) W-NW 284 ° 1 min 995 W/m² 11,2 °C 18,9 °C 17,7 km/h (3 Bft)
26.07.2023 13:51 22,3 °C 21,0 °C 54 % 54 % 1010,8 hPa 0,0 l/m² 9,4 km/h (2 Bft) S-SW 209 ° 2 min 991 W/m² 11,3 °C 19,9 °C 16,1 km/h (3 Bft)
26.07.2023 13:53 22,3 °C 20,9 °C 54 % 53 % 1010,8 hPa 0,0 l/m² 12,1 km/h (2 Bft) SW 229 ° 2 min 234 W/m² 11,0 °C 19,0 °C 22,5 km/h (4 Bft)
26.07.2023 13:54 22,3 °C 20,9 °C 54 % 53 % 1010,8 hPa 0,0 l/m² 18,8 km/h (3 Bft) SW 216 ° 1 min 237 W/m² 11,0 °C 17,6 °C 22,5 km/h (4 Bft)
26.07.2023 13:55 22,3 °C 20,9 °C 54 % 52 % 1010,9 hPa 0,0 l/m² 13,8 km/h (3 Bft) W-SW 254 ° 1 min 237 W/m² 10,7 °C 18,6 °C 19,3 km/h (3 Bft)
26.07.2023 13:56 22,3 °C 20,9 °C 54 % 52 % 1010,8 hPa 0,0 l/m² 11,2 km/h (2 Bft) SW 219 ° 1 min 1005 W/m² 10,7 °C 19,3 °C 14,5 km/h (3 Bft)
26.07.2023 13:57 22,3 °C 20,9 °C 54 % 53 % 1010,9 hPa 0,0 l/m² 10,7 km/h (2 Bft) SW 218 ° 1 min 1000 W/m² 11,0 °C 19,4 °C 16,1 km/h (3 Bft)
26.07.2023 13:58 22,3 °C 21,0 °C 54 % 53 % 1010,7 hPa 0,0 l/m² 10,2 km/h (2 Bft) W-SW 239 ° 1 min 1000 W/m² 11,0 °C 19,7 °C 14,5 km/h (3 Bft)
26.07.2023 13:59 22,3 °C 21,1 °C 54 % 53 % 1010,8 hPa 0,0 l/m² 16,0 km/h (3 Bft) S-SW 199 ° 1 min 1034 W/m² 11,1 °C 18,4 °C 19,3 km/h (3 Bft)
26.07.2023 14:01 22,3 °C 21,2 °C 54 % 52 % 1010,8 hPa 0,0 l/m² 13,7 km/h (3 Bft) SW 217 ° 2 min 1069 W/m² 10,9 °C 19,0 °C 17,7 km/h (3 Bft)
26.07.2023 14:03 22,3 °C 21,4 °C 54 % 52 % 1010,8 hPa 0,0 l/m² 15,5 km/h (3 Bft) S 189 ° 2 min 1113 W/m² 11,1 °C 18,8 °C 24,1 km/h (4 Bft)
26.07.2023 14:04 22,3 °C 21,5 °C 54 % 52 % 1010,8 hPa 0,0 l/m² 9,3 km/h (2 Bft) S-SW 195 ° 1 min 1083 W/m² 11,2 °C 20,5 °C 16,1 km/h (3 Bft)
26.07.2023 14:05 22,3 °C 21,6 °C 54 % 52 % 1010,7 hPa 0,0 l/m² 9,0 km/h (2 Bft) W 261 ° 1 min 1083 W/m² 11,3 °C 20,7 °C 12,9 km/h (3 Bft)
26.07.2023 14:06 22,3 °C 21,7 °C 54 % 52 % 1010,9 hPa 0,0 l/m² 11,8 km/h (2 Bft) W-SW 240 ° 1 min 1083 W/m² 11,4 °C 20,0 °C 16,1 km/h (3 Bft)
26.07.2023 14:07 22,3 °C 21,7 °C 54 % 51 % 1010,8 hPa 0,0 l/m² 16,7 km/h (3 Bft) SW 219 ° 1 min 1083 W/m² 11,1 °C 19,0 °C 20,9 km/h (4 Bft)
26.07.2023 14:08 22,3 °C 21,6 °C 54 % 51 % 1010,8 hPa 0,0 l/m² 13,7 km/h (3 Bft) SW 222 ° 1 min 302 W/m² 11,0 °C 19,5 °C 19,3 km/h (3 Bft)
26.07.2023 14:09 22,3 °C 21,6 °C 54 % 50 % 1010,9 hPa 0,0 l/m² 12,5 km/h (2 Bft) S-SW 213 ° 1 min 283 W/m² 10,7 °C 19,7 °C 14,5 km/h (3 Bft)
26.07.2023 14:11 22,3 °C 21,4 °C 54 % 51 % 1010,9 hPa 0,0 l/m² 12,6 km/h (3 Bft) W-SW 252 ° 2 min 309 W/m² 10,8 °C 19,5 °C 20,9 km/h (4 Bft)
26.07.2023 14:12 22,3 °C 21,4 °C 54 % 53 % 1010,9 hPa 0,0 l/m² 13,5 km/h (3 Bft) S-SW 211 ° 1 min 309 W/m² 11,4 °C 19,3 °C 22,5 km/h (4 Bft)
26.07.2023 14:13 22,3 °C 21,3 °C 54 % 52 % 1010,9 hPa 0,0 l/m² 18,1 km/h (3 Bft) W-SW 243 ° 1 min 230 W/m² 11,0 °C 18,2 °C 24,1 km/h (4 Bft)
26.07.2023 14:14 22,3 °C 21,2 °C 54 % 52 % 1010,9 hPa 0,0 l/m² 19,7 km/h (3 Bft) W-NW 292 ° 1 min 213 W/m² 10,9 °C 17,8 °C 25,7 km/h (4 Bft)
26.07.2023 14:15 22,3 °C 21,2 °C 54 % 52 % 1010,9 hPa 0,0 l/m² 17,1 km/h (3 Bft) W 262 ° 1 min 200 W/m² 10,9 °C 18,3 °C 24,1 km/h (4 Bft)
26.07.2023 14:17 22,3 °C 21,0 °C 54 % 52 % 1010,9 hPa 0,0 l/m² 15,5 km/h (3 Bft) W-NW 297 ° 2 min 181 W/m² 10,8 °C 18,4 °C 29,0 km/h (5 Bft)
26.07.2023 14:18 22,3 °C 20,9 °C 54 % 52 % 1010,9 hPa 0,0 l/m² 14,7 km/h (3 Bft) W 273 ° 1 min 176 W/m² 10,7 °C 18,4 °C 22,5 km/h (4 Bft)
26.07.2023 14:19 22,3 °C 20,8 °C 54 % 51 % 1010,9 hPa 0,0 l/m² 15,2 km/h (3 Bft) NW 309 ° 1 min 172 W/m² 10,3 °C 18,2 °C 22,5 km/h (4 Bft)
26.07.2023 14:21 22,3 °C 20,6 °C 54 % 53 % 1010,9 hPa 0,0 l/m² 9,0 km/h (2 Bft) S-SW 205 ° 2 min 174 W/m² 10,7 °C 19,6 °C 16,1 km/h (3 Bft)
26.07.2023 14:23 22,3 °C 20,4 °C 54 % 54 % 1011,0 hPa 0,0 l/m² 10,5 km/h (2 Bft) W 273 ° 2 min 176 W/m² 10,8 °C 18,9 °C 22,5 km/h (4 Bft)
26.07.2023 14:24 22,3 °C 20,3 °C 54 % 55 % 1010,9 hPa 0,0 l/m² 12,4 km/h (2 Bft) W-NW 301 ° 1 min 174 W/m² 11,0 °C 18,3 °C 20,9 km/h (4 Bft)
26.07.2023 14:25 22,3 °C 20,2 °C 54 % 55 % 1011,0 hPa 0,0 l/m² 10,8 km/h (2 Bft) W-NW 288 ° 1 min 171 W/m² 10,9 °C 18,6 °C 17,7 km/h (3 Bft)
26.07.2023 14:27 22,3 °C 19,9 °C 54 % 55 % 1011,0 hPa 0,0 l/m² 9,3 km/h (2 Bft) N-NW 328 ° 2 min 165 W/m² 10,6 °C 18,8 °C 17,7 km/h (3 Bft)
26.07.2023 14:28 22,3 °C 19,8 °C 54 % 56 % 1011,0 hPa 0,0 l/m² 10,9 km/h (2 Bft) N 349 ° 1 min 167 W/m² 10,8 °C 18,1 °C 20,9 km/h (4 Bft)
26.07.2023 14:29 22,3 °C 19,7 °C 54 % 56 % 1010,9 hPa 0,0 l/m² 7,8 km/h (2 Bft) NW 310 ° 1 min 171 W/m² 10,7 °C 19,1 °C 14,5 km/h (3 Bft)
26.07.2023 14:31 22,3 °C 19,6 °C 54 % 57 % 1011,0 hPa 0,0 l/m² 11,7 km/h (2 Bft) N-NW 342 ° 2 min 183 W/m² 10,8 °C 17,7 °C 19,3 km/h (3 Bft)
26.07.2023 14:33 22,3 °C 19,4 °C 54 % 58 % 1011,0 hPa 0,0 l/m² 10,4 km/h (2 Bft) W-NW 295 ° 2 min 202 W/m² 10,9 °C 17,8 °C 22,5 km/h (4 Bft)
26.07.2023 14:34 22,3 °C 19,3 °C 54 % 57 % 1011,1 hPa 0,0 l/m² 12,5 km/h (2 Bft) NW 325 ° 1 min 225 W/m² 10,6 °C 17,1 °C 17,7 km/h (3 Bft)
26.07.2023 14:35 22,3 °C 19,3 °C 54 % 58 % 1011,0 hPa 0,0 l/m² 8,5 km/h (2 Bft) W-NW 296 ° 1 min 239 W/m² 10,8 °C 18,4 °C 14,5 km/h (3 Bft)
26.07.2023 14:36 22,3 °C 19,3 °C 54 % 58 % 1011,1 hPa 0,0 l/m² 6,4 km/h (2 Bft) NW 315 ° 1 min 253 W/m² 10,8 °C 19,3 °C 9,7 km/h (2 Bft)
26.07.2023 14:37 22,3 °C 19,2 °C 54 % 59 % 1011,1 hPa 0,0 l/m² 3,3 km/h (1 Bft) W-NW 285 ° 1 min 272 W/m² 11,0 °C 19,2 °C 4,8 km/h (1 Bft)
26.07.2023 14:38 22,3 °C 19,2 °C 54 % 58 % 1011,1 hPa 0,0 l/m² 3,3 km/h (1 Bft) NW 304 ° 1 min 294 W/m² 10,7 °C 19,2 °C 6,4 km/h (2 Bft)
26.07.2023 14:39 22,3 °C 19,2 °C 54 % 59 % 1011,1 hPa 0,0 l/m² 8,7 km/h (2 Bft) W-NW 286 ° 1 min 313 W/m² 11,0 °C 18,2 °C 16,1 km/h (3 Bft)
26.07.2023 14:41 22,3 °C 19,1 °C 54 % 58 % 1011,1 hPa 0,0 l/m² 8,2 km/h (2 Bft) NW 305 ° 2 min 343 W/m² 10,6 °C 18,3 °C 17,7 km/h (3 Bft)
26.07.2023 14:43 22,3 °C 19,1 °C 54 % 58 % 1011,1 hPa 0,0 l/m² 10,9 km/h (2 Bft) W 281 ° 2 min 355 W/m² 10,6 °C 17,3 °C 17,7 km/h (3 Bft)
26.07.2023 14:44 22,3 °C 19,1 °C 54 % 58 % 1011,1 hPa 0,0 l/m² 7,6 km/h (2 Bft) NW 314 ° 1 min 366 W/m² 10,6 °C 18,6 °C 17,7 km/h (3 Bft)
26.07.2023 14:45 22,3 °C 19,1 °C 54 % 58 % 1011,2 hPa 0,0 l/m² 4,7 km/h (1 Bft) W 273 ° 1 min 376 W/m² 10,6 °C 19,1 °C 16,1 km/h (3 Bft)
26.07.2023 14:46 22,3 °C 19,1 °C 54 % 59 % 1011,2 hPa 0,0 l/m² 5,4 km/h (2 Bft) W 279 ° 1 min 399 W/m² 10,9 °C 19,1 °C 14,5 km/h (3 Bft)
26.07.2023 14:47 22,3 °C 19,1 °C 54 % 59 % 1011,1 hPa 0,0 l/m² 8,4 km/h (2 Bft) W-NW 289 ° 1 min 403 W/m² 10,9 °C 18,2 °C 12,9 km/h (3 Bft)
26.07.2023 14:48 22,3 °C 19,1 °C 54 % 59 % 1011,1 hPa 0,0 l/m² 7,3 km/h (2 Bft) N-NW 330 ° 1 min 399 W/m² 10,9 °C 18,7 °C 14,5 km/h (3 Bft)
26.07.2023 14:49 22,3 °C 19,1 °C 54 % 58 % 1011,1 hPa 0,0 l/m² 10,5 km/h (2 Bft) W-NW 302 ° 1 min 392 W/m² 10,6 °C 17,5 °C 16,1 km/h (3 Bft)
26.07.2023 14:51 22,3 °C 19,1 °C 54 % 58 % 1011,1 hPa 0,0 l/m² 8,4 km/h (2 Bft) W-NW 303 ° 2 min 371 W/m² 10,6 °C 18,2 °C 16,1 km/h (3 Bft)
26.07.2023 14:53 22,3 °C 19,2 °C 54 % 59 % 1011,1 hPa 0,0 l/m² 6,7 km/h (2 Bft) W 266 ° 2 min 374 W/m² 11,0 °C 19,1 °C 14,5 km/h (3 Bft)
26.07.2023 14:54 22,3 °C 19,2 °C 54 % 59 % 1011,1 hPa 0,0 l/m² 3,3 km/h (1 Bft) W-NW 282 ° 1 min 385 W/m² 11,0 °C 19,2 °C 6,4 km/h (2 Bft)
26.07.2023 14:55 22,3 °C 19,2 °C 54 % 59 % 1011,1 hPa 0,0 l/m² 10,4 km/h (2 Bft) W 277 ° 1 min 396 W/m² 11,0 °C 17,6 °C 17,7 km/h (3 Bft)
26.07.2023 14:56 22,3 °C 19,3 °C 54 % 58 % 1011,1 hPa 0,0 l/m² 8,3 km/h (2 Bft) NW 314 ° 1 min 443 W/m² 10,8 °C 18,5 °C 17,7 km/h (3 Bft)
26.07.2023 14:57 22,3 °C 19,3 °C 54 % 58 % 1011,1 hPa 0,0 l/m² 11,7 km/h (2 Bft) W-NW 301 ° 1 min 371 W/m² 10,8 °C 17,3 °C 16,1 km/h (3 Bft)
26.07.2023 14:58 22,3 °C 19,3 °C 54 % 57 % 1011,1 hPa 0,0 l/m² 9,4 km/h (2 Bft) W-NW 289 ° 1 min 360 W/m² 10,6 °C 18,1 °C 16,1 km/h (3 Bft)
26.07.2023 14:59 22,3 °C 19,3 °C 54 % 58 % 1011,1 hPa 0,0 l/m² 9,0 km/h (2 Bft) NW 309 ° 1 min 353 W/m² 10,8 °C 18,2 °C 16,1 km/h (3 Bft)
26.07.2023 15:01 22,3 °C 19,4 °C 54 % 57 % 1011,1 hPa 0,0 l/m² 7,6 km/h (2 Bft) W-NW 294 ° 2 min 355 W/m² 10,7 °C 18,9 °C 17,7 km/h (3 Bft)
26.07.2023 15:03 22,3 °C 19,5 °C 54 % 57 % 1011,1 hPa 0,0 l/m² 7,1 km/h (2 Bft) W-NW 303 ° 2 min 366 W/m² 10,8 °C 19,2 °C 14,5 km/h (3 Bft)
26.07.2023 15:04 22,3 °C 19,5 °C 54 % 56 % 1011,2 hPa 0,0 l/m² 9,7 km/h (2 Bft) NW 311 ° 1 min 369 W/m² 10,5 °C 18,2 °C 16,1 km/h (3 Bft)
26.07.2023 15:05 22,3 °C 19,5 °C 54 % 56 % 1011,1 hPa 0,0 l/m² 8,1 km/h (2 Bft) W-NW 284 ° 1 min 376 W/m² 10,5 °C 18,8 °C 12,9 km/h (3 Bft)
26.07.2023 15:06 22,3 °C 19,6 °C 54 % 56 % 1011,1 hPa 0,0 l/m² 10,5 km/h (2 Bft) W-NW 299 ° 1 min 408 W/m² 10,6 °C 18,0 °C 14,5 km/h (3 Bft)
26.07.2023 15:07 22,3 °C 19,6 °C 54 % 56 % 1011,2 hPa 0,0 l/m² 5,3 km/h (1 Bft) W-NW 285 ° 1 min 422 W/m² 10,6 °C 19,6 °C 12,9 km/h (3 Bft)
26.07.2023 15:08 22,3 °C 19,6 °C 54 % 56 % 1011,1 hPa 0,0 l/m² 8,7 km/h (2 Bft) NW 309 ° 1 min 432 W/m² 10,6 °C 18,7 °C 16,1 km/h (3 Bft)
26.07.2023 15:09 22,3 °C 19,6 °C 54 % 56 % 1011,1 hPa 0,0 l/m² 8,1 km/h (2 Bft) W 279 ° 1 min 424 W/m² 10,6 °C 18,9 °C 17,7 km/h (3 Bft)
26.07.2023 15:11 22,3 °C 19,7 °C 54 % 55 % 1011,2 hPa 0,0 l/m² 7,4 km/h (2 Bft) W-NW 288 ° 2 min 455 W/m² 10,4 °C 19,3 °C 16,1 km/h (3 Bft)
26.07.2023 15:12 22,3 °C 19,7 °C 54 % 56 % 1011,1 hPa 0,0 l/m² 9,5 km/h (2 Bft) W 259 ° 1 min 482 W/m² 10,7 °C 18,5 °C 16,1 km/h (3 Bft)
26.07.2023 15:13 22,3 °C 19,7 °C 54 % 57 % 1011,1 hPa 0,0 l/m² 5,8 km/h (2 Bft) W-NW 290 ° 1 min 520 W/m² 10,9 °C 19,7 °C 12,9 km/h (3 Bft)
26.07.2023 15:14 22,3 °C 19,8 °C 54 % 56 % 1011,1 hPa 0,0 l/m² 9,6 km/h (2 Bft) W-NW 283 ° 1 min 584 W/m² 10,8 °C 18,6 °C 16,1 km/h (3 Bft)
26.07.2023 15:15 22,3 °C 19,9 °C 54 % 56 % 1011,1 hPa 0,0 l/m² 5,5 km/h (2 Bft) W 277 ° 1 min 664 W/m² 10,9 °C 19,9 °C 9,7 km/h (2 Bft)
26.07.2023 15:16 22,3 °C 19,9 °C 54 % 56 % 1011,2 hPa 0,0 l/m² 7,1 km/h (2 Bft) N-NW 340 ° 1 min 548 W/m² 10,9 °C 19,6 °C 12,9 km/h (3 Bft)
26.07.2023 15:17 22,3 °C 19,9 °C 54 % 55 % 1011,2 hPa 0,0 l/m² 10,1 km/h (2 Bft) W-NW 286 ° 1 min 548 W/m² 10,6 °C 18,5 °C 14,5 km/h (3 Bft)
26.07.2023 15:18 22,3 °C 20,0 °C 54 % 55 % 1011,1 hPa 0,0 l/m² 3,5 km/h (1 Bft) NW 317 ° 1 min 775 W/m² 10,7 °C 20,0 °C 9,7 km/h (2 Bft)
26.07.2023 15:19 22,3 °C 20,1 °C 54 % 56 % 1011,1 hPa 0,0 l/m² 4,7 km/h (1 Bft) NW 323 ° 1 min 687 W/m² 11,0 °C 20,1 °C 8,0 km/h (2 Bft)
26.07.2023 15:21 22,3 °C 20,2 °C 54 % 56 % 1011,1 hPa 0,0 l/m² 8,0 km/h (2 Bft) W-SW 239 ° 2 min 687 W/m² 11,1 °C 19,6 °C 14,5 km/h (3 Bft)
26.07.2023 15:23 22,3 °C 20,4 °C 54 % 55 % 1011,1 hPa 0,0 l/m² 5,2 km/h (1 Bft) W 277 ° 2 min 1034 W/m² 11,1 °C 20,4 °C 14,5 km/h (3 Bft)
26.07.2023 15:24 22,3 °C 20,5 °C 54 % 52 % 1011,1 hPa 0,0 l/m² 3,4 km/h (1 Bft) W-SW 254 ° 1 min 1034 W/m² 10,3 °C 20,5 °C 4,8 km/h (1 Bft)
26.07.2023 15:25 22,3 °C 20,6 °C 54 % 53 % 1011,1 hPa 0,0 l/m² 0,7 km/h (0 Bft) W-SW 247 ° 1 min 1034 W/m² 10,7 °C 20,6 °C 3,2 km/h (1 Bft)
26.07.2023 15:26 22,3 °C 20,7 °C 54 % 52 % 1011,1 hPa 0,0 l/m² 3,0 km/h (1 Bft) W-SW 242 ° 1 min 849 W/m² 10,5 °C 20,7 °C 4,8 km/h (1 Bft)
26.07.2023 15:27 22,3 °C 20,8 °C 54 % 52 % 1010,9 hPa 0,0 l/m² 0,9 km/h (0 Bft) W-SW 244 ° 1 min 849 W/m² 10,6 °C 20,8 °C 3,2 km/h (1 Bft)
26.07.2023 15:28 22,3 °C 20,9 °C 54 % 52 % 1011,0 hPa 0,0 l/m² 4,1 km/h (1 Bft) W 272 ° 1 min 478 W/m² 10,7 °C 20,9 °C 9,7 km/h (2 Bft)
26.07.2023 15:29 22,3 °C 21,1 °C 54 % 52 % 1011,1 hPa 0,0 l/m² 5,9 km/h (2 Bft) NW 306 ° 1 min 378 W/m² 10,9 °C 21,1 °C 9,7 km/h (2 Bft)
26.07.2023 15:31 22,3 °C 21,2 °C 54 % 50 % 1011,1 hPa 0,0 l/m² 10,6 km/h (2 Bft) W-NW 303 ° 2 min 320 W/m² 10,4 °C 19,8 °C 17,7 km/h (3 Bft)
26.07.2023 15:33 22,3 °C 21,2 °C 54 % 47 % 1011,1 hPa 0,0 l/m² 12,3 km/h (2 Bft) W 280 ° 2 min 612 W/m² 9,4 °C 19,3 °C 22,5 km/h (4 Bft)
26.07.2023 15:34 22,3 °C 21,3 °C 54 % 47 % 1011,1 hPa 0,0 l/m² 9,5 km/h (2 Bft) W-NW 288 ° 1 min 526 W/m² 9,5 °C 20,2 °C 14,5 km/h (3 Bft)
26.07.2023 15:35 22,3 °C 21,3 °C 54 % 47 % 1011,1 hPa 0,0 l/m² 6,4 km/h (2 Bft) W-SW 248 ° 1 min 526 W/m² 9,5 °C 21,3 °C 11,3 km/h (2 Bft)
26.07.2023 15:36 22,3 °C 21,3 °C 54 % 49 % 1011,0 hPa 0,0 l/m² 10,4 km/h (2 Bft) S-SW 203 ° 1 min 780 W/m² 10,1 °C 20,0 °C 17,7 km/h (3 Bft)
26.07.2023 15:37 22,3 °C 21,4 °C 54 % 48 % 1011,1 hPa 0,0 l/m² 12,3 km/h (2 Bft) W 275 ° 1 min 752 W/m² 9,9 °C 19,6 °C 17,7 km/h (3 Bft)
26.07.2023 15:38 22,3 °C 21,5 °C 54 % 47 % 1011,1 hPa 0,0 l/m² 15,0 km/h (3 Bft) W 273 ° 1 min 796 W/m² 9,7 °C 19,1 °C 20,9 km/h (4 Bft)
26.07.2023 15:39 22,3 °C 21,6 °C 54 % 45 % 1011,0 hPa 0,0 l/m² 12,8 km/h (3 Bft) SW 232 ° 1 min 796 W/m² 9,2 °C 19,7 °C 17,7 km/h (3 Bft)
26.07.2023 15:41 22,3 °C 21,6 °C 54 % 45 % 1010,9 hPa 0,0 l/m² 9,2 km/h (2 Bft) W 267 ° 2 min 798 W/m² 9,2 °C 20,6 °C 22,5 km/h (4 Bft)
26.07.2023 15:43 22,3 °C 21,8 °C 54 % 45 % 1010,9 hPa 0,0 l/m² 14,4 km/h (3 Bft) W-SW 254 ° 2 min 770 W/m² 9,3 °C 19,6 °C 24,1 km/h (4 Bft)
26.07.2023 15:45 22,3 °C 21,9 °C 54 % 45 % 1010,9 hPa 0,0 l/m² 15,2 km/h (3 Bft) W-SW 238 ° 2 min 671 W/m² 9,4 °C 19,5 °C 27,4 km/h (5 Bft)
26.07.2023 15:46 22,3 °C 21,9 °C 54 % 44 % 1010,9 hPa 0,0 l/m² 15,4 km/h (3 Bft) W 273 ° 1 min 809 W/m² 9,1 °C 19,5 °C 22,5 km/h (4 Bft)
26.07.2023 15:47 22,3 °C 22,0 °C 54 % 41 % 1011,0 hPa 0,0 l/m² 19,5 km/h (3 Bft) W 266 ° 1 min 807 W/m² 8,1 °C 18,9 °C 24,1 km/h (4 Bft)
26.07.2023 15:48 22,3 °C 22,1 °C 54 % 42 % 1011,1 hPa 0,0 l/m² 18,2 km/h (3 Bft) W-SW 245 ° 1 min 796 W/m² 8,6 °C 19,2 °C 27,4 km/h (5 Bft)
26.07.2023 15:49 22,3 °C 22,1 °C 54 % 42 % 1011,0 hPa 0,0 l/m² 15,7 km/h (3 Bft) W-SW 245 ° 1 min 788 W/m² 8,6 °C 19,7 °C 19,3 km/h (3 Bft)
26.07.2023 15:51 22,3 °C 22,2 °C 54 % 43 % 1011,1 hPa 0,0 l/m² 14,7 km/h (3 Bft) W 275 ° 2 min 775 W/m² 9,0 °C 20,0 °C 25,7 km/h (4 Bft)
26.07.2023 15:53 22,3 °C 22,3 °C 54 % 43 % 1011,1 hPa 0,0 l/m² 17,1 km/h (3 Bft) W-SW 249 ° 2 min 773 W/m² 9,1 °C 19,6 °C 24,1 km/h (4 Bft)
26.07.2023 15:54 22,3 °C 22,3 °C 54 % 42 % 1011,0 hPa 0,0 l/m² 15,7 km/h (3 Bft) W 264 ° 1 min 773 W/m² 8,8 °C 19,9 °C 22,5 km/h (4 Bft)
26.07.2023 15:55 22,3 °C 22,3 °C 54 % 42 % 1011,1 hPa 0,0 l/m² 17,5 km/h (3 Bft) W-NW 300 ° 1 min 770 W/m² 8,8 °C 19,6 °C 25,7 km/h (4 Bft)
26.07.2023 15:56 22,3 °C 22,3 °C 54 % 42 % 1011,1 hPa 0,0 l/m² 17,8 km/h (3 Bft) W 279 ° 1 min 765 W/m² 8,8 °C 19,5 °C 24,1 km/h (4 Bft)
26.07.2023 15:57 22,3 °C 22,3 °C 54 % 43 % 1011,1 hPa 0,0 l/m² 11,5 km/h (2 Bft) W-NW 288 ° 1 min 765 W/m² 9,1 °C 20,8 °C 17,7 km/h (3 Bft)
26.07.2023 15:58 22,3 °C 22,4 °C 54 % 43 % 1011,0 hPa 0,0 l/m² 11,3 km/h (2 Bft) W-NW 297 ° 1 min 745 W/m² 9,2 °C 21,0 °C 17,7 km/h (3 Bft)
26.07.2023 15:59 22,3 °C 22,4 °C 54 % 44 % 1010,9 hPa 0,0 l/m² 8,3 km/h (2 Bft) W-NW 289 ° 1 min 744 W/m² 9,5 °C 21,8 °C 17,7 km/h (3 Bft)
26.07.2023 16:01 22,3 °C 22,4 °C 54 % 42 % 1011,0 hPa 0,0 l/m² 12,9 km/h (3 Bft) W 265 ° 2 min 735 W/m² 8,9 °C 20,6 °C 22,5 km/h (4 Bft)
26.07.2023 16:03 22,3 °C 22,5 °C 54 % 43 % 1010,9 hPa 0,0 l/m² 10,0 km/h (2 Bft) W-SW 240 ° 2 min 745 W/m² 9,3 °C 21,4 °C 17,7 km/h (3 Bft)
26.07.2023 16:04 22,3 °C 22,6 °C 54 % 44 % 1011,0 hPa 0,0 l/m² 14,2 km/h (3 Bft) W-SW 240 ° 1 min 744 W/m² 9,7 °C 20,6 °C 17,7 km/h (3 Bft)
26.07.2023 16:05 22,3 °C 22,6 °C 54 % 44 % 1010,9 hPa 0,0 l/m² 9,0 km/h (2 Bft) W-SW 240 ° 1 min 756 W/m² 9,7 °C 21,8 °C 12,9 km/h (3 Bft)
26.07.2023 16:07 22,3 °C 22,7 °C 54 % 45 % 1010,9 hPa 0,0 l/m² 5,2 km/h (1 Bft) W 277 ° 2 min 759 W/m² 10,1 °C 22,7 °C 12,9 km/h (3 Bft)
26.07.2023 16:08 22,3 °C 22,8 °C 54 % 43 % 1010,9 hPa 0,0 l/m² 7,4 km/h (2 Bft) NW 315 ° 1 min 761 W/m² 9,6 °C 22,5 °C 12,9 km/h (3 Bft)
26.07.2023 16:09 22,3 °C 22,8 °C 54 % 44 % 1011,0 hPa 0,0 l/m² 5,8 km/h (2 Bft) NW 322 ° 1 min 765 W/m² 9,9 °C 22,8 °C 12,9 km/h (3 Bft)
26.07.2023 16:11 22,3 °C 22,9 °C 54 % 42 % 1011,0 hPa 0,0 l/m² 13,9 km/h (3 Bft) SW 222 ° 2 min 782 W/m² 9,3 °C 21,0 °C 22,5 km/h (4 Bft)
26.07.2023 16:13 22,3 °C 23,0 °C 54 % 42 % 1011,0 hPa 0,0 l/m² 16,5 km/h (3 Bft) W-SW 254 ° 2 min 782 W/m² 9,4 °C 20,6 °C 22,5 km/h (4 Bft)
26.07.2023 16:14 22,3 °C 23,0 °C 54 % 41 % 1011,0 hPa 0,0 l/m² 11,3 km/h (2 Bft) N-NW 328 ° 1 min 156 W/m² 9,0 °C 21,6 °C 19,3 km/h (3 Bft)
26.07.2023 16:15 22,3 °C 22,9 °C 54 % 41 % 1011,0 hPa 0,0 l/m² 9,8 km/h (2 Bft) SW 221 ° 1 min 149 W/m² 8,9 °C 21,9 °C 16,1 km/h (3 Bft)
26.07.2023 16:16 22,3 °C 22,9 °C 54 % 41 % 1011,0 hPa 0,0 l/m² 7,9 km/h (2 Bft) W-NW 286 ° 1 min 156 W/m² 8,9 °C 22,4 °C 11,3 km/h (2 Bft)
26.07.2023 16:17 22,3 °C 22,8 °C 54 % 40 % 1011,1 hPa 0,0 l/m² 10,2 km/h (2 Bft) W 276 ° 1 min 148 W/m² 8,5 °C 21,7 °C 16,1 km/h (3 Bft)
26.07.2023 16:18 22,3 °C 22,8 °C 54 % 41 % 1010,9 hPa 0,0 l/m² 4,7 km/h (1 Bft) NW 306 ° 1 min 148 W/m² 8,9 °C 22,8 °C 6,4 km/h (2 Bft)
26.07.2023 16:19 22,3 °C 22,8 °C 54 % 44 % 1011,0 hPa 0,0 l/m² 4,0 km/h (1 Bft) NW 316 ° 1 min 775 W/m² 9,9 °C 22,8 °C 8,0 km/h (2 Bft)
26.07.2023 16:21 22,3 °C 22,7 °C 54 % 43 % 1011,0 hPa 0,0 l/m² 5,3 km/h (1 Bft) W-NW 288 ° 2 min 775 W/m² 9,5 °C 22,7 °C 11,3 km/h (2 Bft)
26.07.2023 16:23 22,3 °C 22,8 °C 54 % 43 % 1011,0 hPa 0,0 l/m² 3,3 km/h (1 Bft) W 280 ° 2 min 775 W/m² 9,6 °C 22,8 °C 11,3 km/h (2 Bft)
26.07.2023 16:24 22,3 °C 22,8 °C 54 % 43 % 1011,0 hPa 0,0 l/m² 9,4 km/h (2 Bft) W-SW 251 ° 1 min 775 W/m² 9,6 °C 21,9 °C 14,5 km/h (3 Bft)
26.07.2023 16:25 22,3 °C 22,8 °C 54 % 42 % 1010,9 hPa 0,0 l/m² 10,2 km/h (2 Bft) W-SW 243 ° 1 min 775 W/m² 9,2 °C 21,7 °C 16,1 km/h (3 Bft)
26.07.2023 16:26 22,3 °C 22,8 °C 54 % 43 % 1010,9 hPa 0,0 l/m² 13,8 km/h (3 Bft) W-NW 293 ° 1 min 775 W/m² 9,6 °C 20,9 °C 19,3 km/h (3 Bft)
26.07.2023 16:27 22,3 °C 22,8 °C 54 % 43 % 1011,0 hPa 0,0 l/m² 12,0 km/h (2 Bft) N 5 ° 1 min 733 W/m² 9,6 °C 21,3 °C 16,1 km/h (3 Bft)
26.07.2023 16:28 22,3 °C 22,8 °C 54 % 44 % 1011,0 hPa 0,0 l/m² 13,0 km/h (3 Bft) W-SW 252 ° 1 min 735 W/m² 9,9 °C 21,0 °C 17,7 km/h (3 Bft)
26.07.2023 16:29 22,3 °C 22,9 °C 54 % 44 % 1011,0 hPa 0,0 l/m² 13,1 km/h (3 Bft) W-SW 250 ° 1 min 735 W/m² 10,0 °C 21,1 °C 16,1 km/h (3 Bft)
26.07.2023 16:31 22,3 °C 23,0 °C 54 % 43 % 1011,0 hPa 0,0 l/m² 12,1 km/h (2 Bft) W-SW 257 ° 2 min 689 W/m² 9,7 °C 21,5 °C 19,3 km/h (3 Bft)
26.07.2023 16:33 22,3 °C 23,1 °C 54 % 44 % 1011,0 hPa 0,0 l/m² 5,3 km/h (1 Bft) W-SW 258 ° 2 min 701 W/m² 10,2 °C 23,1 °C 12,9 km/h (3 Bft)
26.07.2023 16:34 22,3 °C 23,1 °C 54 % 43 % 1010,9 hPa 0,0 l/m² 8,9 km/h (2 Bft) W 278 ° 1 min 118 W/m² 9,8 °C 22,4 °C 16,1 km/h (3 Bft)
26.07.2023 16:35 22,3 °C 23,1 °C 54 % 42 % 1010,9 hPa 0,0 l/m² 8,5 km/h (2 Bft) W-SW 248 ° 1 min 165 W/m² 9,5 °C 22,5 °C 14,5 km/h (3 Bft)
26.07.2023 16:36 22,3 °C 23,1 °C 54 % 43 % 1010,9 hPa 0,0 l/m² 11,4 km/h (2 Bft) W 263 ° 1 min 165 W/m² 9,8 °C 21,7 °C 14,5 km/h (3 Bft)
26.07.2023 16:37 22,3 °C 23,1 °C 54 % 43 % 1011,0 hPa 0,0 l/m² 9,8 km/h (2 Bft) W 275 ° 1 min 165 W/m² 9,8 °C 22,1 °C 12,9 km/h (3 Bft)
26.07.2023 16:38 22,3 °C 23,1 °C 54 % 42 % 1010,9 hPa 0,0 l/m² 3,2 km/h (1 Bft) W-SW 238 ° 1 min 165 W/m² 9,5 °C 23,1 °C 6,4 km/h (2 Bft)
26.07.2023 16:39 22,3 °C 23,1 °C 54 % 43 % 1010,9 hPa 0,0 l/m² 1,9 km/h (1 Bft) SW 217 ° 1 min 142 W/m² 9,8 °C 23,1 °C 6,4 km/h (2 Bft)
26.07.2023 16:41 22,3 °C 23,1 °C 54 % 43 % 1010,9 hPa 0,0 l/m² 6,6 km/h (2 Bft) W-SW 246 ° 2 min 689 W/m² 9,8 °C 23,0 °C 9,7 km/h (2 Bft)
26.07.2023 16:43 22,3 °C 23,1 °C 54 % 42 % 1010,8 hPa 0,0 l/m² 10,8 km/h (2 Bft) W 275 ° 2 min 677 W/m² 9,5 °C 21,9 °C 22,5 km/h (4 Bft)
26.07.2023 16:44 22,3 °C 23,1 °C 54 % 41 % 1010,8 hPa 0,0 l/m² 16,0 km/h (3 Bft) W-SW 254 ° 1 min 682 W/m² 9,1 °C 20,8 °C 20,9 km/h (4 Bft)
26.07.2023 16:45 22,3 °C 23,2 °C 54 % 41 % 1010,9 hPa 0,0 l/m² 14,2 km/h (3 Bft) W 259 ° 1 min 703 W/m² 9,2 °C 21,3 °C 19,3 km/h (3 Bft)
26.07.2023 16:46 22,3 °C 23,1 °C 54 % 41 % 1010,9 hPa 0,0 l/m² 8,8 km/h (2 Bft) W-SW 248 ° 1 min 703 W/m² 9,1 °C 22,4 °C 12,9 km/h (3 Bft)
26.07.2023 16:47 22,3 °C 23,2 °C 54 % 42 % 1011,0 hPa 0,0 l/m² 3,8 km/h (1 Bft) W-NW 293 ° 1 min 703 W/m² 9,6 °C 23,2 °C 8,0 km/h (2 Bft)
26.07.2023 16:48 22,3 °C 23,2 °C 54 % 43 % 1010,9 hPa 0,0 l/m² 4,9 km/h (1 Bft) W 271 ° 1 min 738 W/m² 9,9 °C 23,2 °C 14,5 km/h (3 Bft)
26.07.2023 16:49 22,3 °C 23,2 °C 54 % 42 % 1010,9 hPa 0,0 l/m² 8,8 km/h (2 Bft) W-NW 285 ° 1 min 700 W/m² 9,6 °C 22,5 °C 11,3 km/h (2 Bft)
26.07.2023 16:51 22,3 °C 23,3 °C 54 % 41 % 1010,8 hPa 0,0 l/m² 15,5 km/h (3 Bft) SW 226 ° 2 min 719 W/m² 9,3 °C 21,2 °C 22,5 km/h (4 Bft)
26.07.2023 16:53 22,3 °C 23,4 °C 54 % 41 % 1010,9 hPa 0,0 l/m² 17,2 km/h (3 Bft) SW 231 ° 2 min 752 W/m² 9,4 °C 21,0 °C 20,9 km/h (4 Bft)
26.07.2023 16:54 22,3 °C 23,4 °C 54 % 40 % 1010,9 hPa 0,0 l/m² 12,5 km/h (2 Bft) W-SW 257 ° 1 min 752 W/m² 9,0 °C 21,8 °C 16,1 km/h (3 Bft)
26.07.2023 16:55 22,3 °C 23,4 °C 54 % 41 % 1010,9 hPa 0,0 l/m² 15,0 km/h (3 Bft) SW 224 ° 1 min 744 W/m² 9,4 °C 21,4 °C 20,9 km/h (4 Bft)
26.07.2023 16:56 22,3 °C 23,5 °C 54 % 40 % 1010,9 hPa 0,0 l/m² 9,9 km/h (2 Bft) W-NW 292 ° 1 min 728 W/m² 9,1 °C 22,5 °C 12,9 km/h (3 Bft)
26.07.2023 16:57 22,3 °C 23,6 °C 54 % 40 % 1010,9 hPa 0,0 l/m² 12,0 km/h (2 Bft) W 266 ° 1 min 712 W/m² 9,2 °C 22,2 °C 16,1 km/h (3 Bft)
26.07.2023 16:58 22,3 °C 23,6 °C 54 % 41 % 1010,9 hPa 0,0 l/m² 12,6 km/h (3 Bft) W-SW 258 ° 1 min 696 W/m² 9,6 °C 22,1 °C 19,3 km/h (3 Bft)
26.07.2023 16:59 22,3 °C 23,6 °C 54 % 41 % 1010,9 hPa 0,0 l/m² 11,6 km/h (2 Bft) W 271 ° 1 min 682 W/m² 9,6 °C 22,3 °C 20,9 km/h (4 Bft)
26.07.2023 17:01 22,3 °C 23,6 °C 54 % 40 % 1010,9 hPa 0,0 l/m² 12,1 km/h (2 Bft) W 261 ° 2 min 673 W/m² 9,2 °C 22,2 °C 20,9 km/h (4 Bft)
26.07.2023 17:03 22,3 °C 23,7 °C 54 % 40 % 1010,9 hPa 0,0 l/m² 8,0 km/h (2 Bft) W-SW 251 ° 2 min 652 W/m² 9,3 °C 23,2 °C 12,9 km/h (3 Bft)
26.07.2023 17:04 22,3 °C 23,7 °C 54 % 41 % 1010,9 hPa 0,0 l/m² 13,7 km/h (3 Bft) W 263 ° 1 min 643 W/m² 9,7 °C 22,0 °C 22,5 km/h (4 Bft)
26.07.2023 17:05 22,3 °C 23,7 °C 54 % 40 % 1010,9 hPa 0,0 l/m² 17,7 km/h (3 Bft) W 270 ° 1 min 645 W/m² 9,3 °C 21,3 °C 22,5 km/h (4 Bft)
26.07.2023 17:06 22,3 °C 23,7 °C 54 % 40 % 1010,9 hPa 0,0 l/m² 14,2 km/h (3 Bft) W-SW 239 ° 1 min 645 W/m² 9,3 °C 21,9 °C 19,3 km/h (3 Bft)
26.07.2023 17:07 22,3 °C 23,7 °C 54 % 39 % 1010,9 hPa 0,0 l/m² 9,7 km/h (2 Bft) SW 229 ° 1 min 645 W/m² 8,9 °C 22,8 °C 14,5 km/h (3 Bft)
26.07.2023 17:08 22,3 °C 23,6 °C 54 % 40 % 1010,9 hPa 0,0 l/m² 11,3 km/h (2 Bft) S-SW 213 ° 1 min 645 W/m² 9,2 °C 22,3 °C 14,5 km/h (3 Bft)
26.07.2023 17:09 22,3 °C 23,6 °C 54 % 40 % 1011,0 hPa 0,0 l/m² 11,2 km/h (2 Bft) S-SW 213 ° 1 min 171 W/m² 9,2 °C 22,3 °C 14,5 km/h (3 Bft)
26.07.2023 17:11 22,3 °C 23,4 °C 54 % 41 % 1010,9 hPa 0,0 l/m² 12,7 km/h (3 Bft) W 273 ° 2 min 169 W/m² 9,4 °C 21,8 °C 20,9 km/h (4 Bft)
26.07.2023 17:13 22,3 °C 23,2 °C 54 % 41 % 1011,0 hPa 0,0 l/m² 11,8 km/h (2 Bft) W-SW 249 ° 2 min 211 W/m² 9,2 °C 21,8 °C 17,7 km/h (3 Bft)
26.07.2023 17:14 22,3 °C 23,1 °C 54 % 42 % 1011,0 hPa 0,0 l/m² 17,9 km/h (3 Bft) W-NW 302 ° 1 min 195 W/m² 9,5 °C 20,5 °C 46,7 km/h (6 Bft)
26.07.2023 17:15 22,3 °C 22,9 °C 54 % 42 % 1011,0 hPa 0,0 l/m² 10,5 km/h (2 Bft) NW 304 ° 1 min 192 W/m² 9,3 °C 21,7 °C 19,3 km/h (3 Bft)
26.07.2023 17:16 22,3 °C 22,9 °C 54 % 42 % 1011,0 hPa 0,0 l/m² 6,7 km/h (2 Bft) W-NW 297 ° 1 min 195 W/m² 9,3 °C 22,8 °C 12,9 km/h (3 Bft)
26.07.2023 17:17 22,3 °C 22,8 °C 54 % 41 % 1011,0 hPa 0,0 l/m² 12,3 km/h (2 Bft) W-NW 283 ° 1 min 207 W/m² 8,9 °C 21,2 °C 16,1 km/h (3 Bft)
26.07.2023 17:18 22,3 °C 22,8 °C 54 % 41 % 1011,0 hPa 0,0 l/m² 10,1 km/h (2 Bft) S-SW 209 ° 1 min 255 W/m² 8,9 °C 21,7 °C 17,7 km/h (3 Bft)
26.07.2023 17:19 22,3 °C 22,7 °C 54 % 42 % 1011,0 hPa 0,0 l/m² 12,3 km/h (2 Bft) W 272 ° 1 min 255 W/m² 9,1 °C 21,1 °C 19,3 km/h (3 Bft)
26.07.2023 17:21 22,3 °C 22,7 °C 54 % 43 % 1010,9 hPa 0,0 l/m² 9,4 km/h (2 Bft) NW 306 ° 2 min 255 W/m² 9,5 °C 21,8 °C 17,7 km/h (3 Bft)
26.07.2023 17:23 22,3 °C 22,7 °C 54 % 42 % 1010,9 hPa 0,0 l/m² 17,7 km/h (3 Bft) W-NW 287 ° 2 min 255 W/m² 9,1 °C 20,0 °C 27,4 km/h (5 Bft)
26.07.2023 17:24 22,3 °C 22,7 °C 54 % 42 % 1010,9 hPa 0,0 l/m² 9,5 km/h (2 Bft) NW 317 ° 1 min 737 W/m² 9,1 °C 21,8 °C 17,7 km/h (3 Bft)
26.07.2023 17:25 22,3 °C 22,7 °C 54 % 43 % 1010,9 hPa 0,0 l/m² 5,6 km/h (2 Bft) W-NW 283 ° 1 min 236 W/m² 9,5 °C 22,7 °C 9,7 km/h (2 Bft)
26.07.2023 17:27 22,3 °C 22,7 °C 54 % 43 % 1011,1 hPa 0,0 l/m² 3,4 km/h (1 Bft) W-NW 286 ° 2 min 229 W/m² 9,5 °C 22,7 °C 9,7 km/h (2 Bft)
26.07.2023 17:28 22,3 °C 22,7 °C 54 % 43 % 1011,1 hPa 0,0 l/m² 6,0 km/h (2 Bft) NW 312 ° 1 min 220 W/m² 9,5 °C 22,7 °C 11,3 km/h (2 Bft)
26.07.2023 17:29 22,3 °C 22,7 °C 54 % 43 % 1010,9 hPa 0,0 l/m² 7,2 km/h (2 Bft) NW 315 ° 1 min 267 W/m² 9,5 °C 22,4 °C 11,3 km/h (2 Bft)
26.07.2023 17:31 22,3 °C 22,7 °C 54 % 43 % 1011,0 hPa 0,0 l/m² 8,3 km/h (2 Bft) W-NW 302 ° 2 min 615 W/m² 9,5 °C 22,1 °C 12,9 km/h (3 Bft)
26.07.2023 17:33 22,3 °C 22,8 °C 54 % 42 % 1010,9 hPa 0,0 l/m² 5,4 km/h (2 Bft) W 275 ° 2 min 633 W/m² 9,2 °C 22,8 °C 11,3 km/h (2 Bft)
26.07.2023 17:34 22,3 °C 22,8 °C 54 % 43 % 1011,0 hPa 0,0 l/m² 3,0 km/h (1 Bft) NW 312 ° 1 min 636 W/m² 9,6 °C 22,8 °C 4,8 km/h (1 Bft)
26.07.2023 17:35 22,3 °C 22,8 °C 54 % 43 % 1011,0 hPa 0,0 l/m² 3,9 km/h (1 Bft) NW 307 ° 1 min 624 W/m² 9,6 °C 22,8 °C 14,5 km/h (3 Bft)
26.07.2023 17:36 22,3 °C 22,8 °C 54 % 43 % 1011,0 hPa 0,0 l/m² 11,8 km/h (2 Bft) NW 309 ° 1 min 624 W/m² 9,6 °C 21,3 °C 19,3 km/h (3 Bft)
26.07.2023 17:37 22,3 °C 22,9 °C 54 % 42 % 1010,9 hPa 0,0 l/m² 11,2 km/h (2 Bft) N-NW 327 ° 1 min 624 W/m² 9,3 °C 21,6 °C 17,7 km/h (3 Bft)
26.07.2023 17:38 22,3 °C 22,9 °C 54 % 43 % 1010,9 hPa 0,0 l/m² 12,0 km/h (2 Bft) N-NW 328 ° 1 min 624 W/m² 9,6 °C 21,4 °C 16,1 km/h (3 Bft)
26.07.2023 17:39 22,3 °C 23,0 °C 54 % 42 % 1011,0 hPa 0,0 l/m² 8,6 km/h (2 Bft) NW 307 ° 1 min 624 W/m² 9,4 °C 22,3 °C 11,3 km/h (2 Bft)
26.07.2023 17:40 22,3 °C 23,0 °C 54 % 44 % 1011,0 hPa 0,0 l/m² 7,0 km/h (2 Bft) W-SW 240 ° 1 min 670 W/m² 10,1 °C 22,8 °C 12,9 km/h (3 Bft)
26.07.2023 17:42 22,3 °C 23,2 °C 54 % 42 % 1011,0 hPa 0,0 l/m² 11,4 km/h (2 Bft) W 268 ° 2 min 657 W/m² 9,6 °C 21,8 °C 19,3 km/h (3 Bft)
26.07.2023 17:43 22,3 °C 23,2 °C 54 % 42 % 1011,0 hPa 0,0 l/m² 13,6 km/h (3 Bft) W 262 ° 1 min 657 W/m² 9,6 °C 21,4 °C 20,9 km/h (4 Bft)
26.07.2023 17:44 22,3 °C 23,2 °C 54 % 42 % 1010,9 hPa 0,0 l/m² 17,6 km/h (3 Bft) W 259 ° 1 min 654 W/m² 9,6 °C 20,7 °C 24,1 km/h (4 Bft)
26.07.2023 17:45 22,3 °C 23,3 °C 54 % 40 % 1011,0 hPa 0,0 l/m² 14,9 km/h (3 Bft) NW 324 ° 1 min 647 W/m² 8,9 °C 21,3 °C 20,9 km/h (4 Bft)
26.07.2023 17:47 22,3 °C 23,4 °C 54 % 41 % 1011,0 hPa 0,0 l/m² 11,3 km/h (2 Bft) W-SW 248 ° 2 min 239 W/m² 9,4 °C 22,1 °C 19,3 km/h (3 Bft)
26.07.2023 17:48 22,3 °C 23,4 °C 54 % 41 % 1011,0 hPa 0,0 l/m² 13,8 km/h (3 Bft) W 261 ° 1 min 225 W/m² 9,4 °C 21,6 °C 17,7 km/h (3 Bft)
26.07.2023 17:49 22,3 °C 23,4 °C 54 % 40 % 1011,0 hPa 0,0 l/m² 12,5 km/h (2 Bft) W-SW 250 ° 1 min 283 W/m² 9,0 °C 21,8 °C 16,1 km/h (3 Bft)
26.07.2023 17:51 22,3 °C 23,4 °C 54 % 41 % 1011,0 hPa 0,0 l/m² 11,8 km/h (2 Bft) W-SW 240 ° 2 min 186 W/m² 9,4 °C 22,0 °C 27,4 km/h (5 Bft)
26.07.2023 17:53 22,3 °C 23,4 °C 54 % 41 % 1011,1 hPa 0,0 l/m² 12,5 km/h (2 Bft) W-SW 244 ° 2 min 547 W/m² 9,4 °C 21,8 °C 16,1 km/h (3 Bft)
26.07.2023 17:54 22,3 °C 23,3 °C 54 % 41 % 1011,0 hPa 0,0 l/m² 11,9 km/h (2 Bft) W-NW 292 ° 1 min 540 W/m² 9,3 °C 21,9 °C 17,7 km/h (3 Bft)
26.07.2023 17:55 22,3 °C 23,4 °C 54 % 42 % 1010,9 hPa 0,0 l/m² 13,2 km/h (3 Bft) SW 236 ° 1 min 529 W/m² 9,7 °C 21,7 °C 19,3 km/h (3 Bft)
26.07.2023 17:56 22,3 °C 23,3 °C 54 % 41 % 1010,9 hPa 0,0 l/m² 17,9 km/h (3 Bft) W-SW 238 ° 1 min 533 W/m² 9,3 °C 20,8 °C 22,5 km/h (4 Bft)
26.07.2023 17:57 22,3 °C 23,3 °C 54 % 41 % 1010,9 hPa 0,0 l/m² 17,4 km/h (3 Bft) W-SW 247 ° 1 min 531 W/m² 9,3 °C 20,8 °C 22,5 km/h (4 Bft)
26.07.2023 17:58 22,3 °C 23,3 °C 54 % 40 % 1010,9 hPa 0,0 l/m² 13,1 km/h (3 Bft) W-NW 290 ° 1 min 531 W/m² 8,9 °C 21,6 °C 22,5 km/h (4 Bft)
26.07.2023 17:59 22,3 °C 23,3 °C 54 % 41 % 1011,0 hPa 0,0 l/m² 11,5 km/h (2 Bft) W-NW 290 ° 1 min 534 W/m² 9,3 °C 21,9 °C 16,1 km/h (3 Bft)
26.07.2023 18:00 22,3 °C 23,4 °C 54 % 41 % 1011,0 hPa 0,0 l/m² 14,4 km/h (3 Bft) W-SW 256 ° 1 min 174 W/m² 9,4 °C 21,5 °C 19,3 km/h (3 Bft)
26.07.2023 18:02 22,3 °C 23,3 °C 54 % 40 % 1011,0 hPa 0,0 l/m² 8,3 km/h (2 Bft) W-NW 302 ° 2 min 174 W/m² 8,9 °C 22,7 °C 16,1 km/h (3 Bft)
26.07.2023 18:03 22,3 °C 23,3 °C 54 % 40 % 1011,0 hPa 0,0 l/m² 4,4 km/h (1 Bft) W 265 ° 1 min 174 W/m² 8,9 °C 23,3 °C 8,0 km/h (2 Bft)
26.07.2023 18:04 22,3 °C 23,3 °C 54 % 41 % 1010,9 hPa 0,0 l/m² 6,0 km/h (2 Bft) W-SW 244 ° 1 min 174 W/m² 9,3 °C 23,3 °C 12,9 km/h (3 Bft)
26.07.2023 18:05 22,3 °C 23,2 °C 54 % 41 % 1011,0 hPa 0,0 l/m² 12,2 km/h (2 Bft) W-NW 289 ° 1 min 167 W/m² 9,2 °C 21,7 °C 22,5 km/h (4 Bft)
26.07.2023 18:07 22,3 °C 23,2 °C 54 % 43 % 1011,0 hPa 0,0 l/m² 7,0 km/h (2 Bft) W 278 ° 2 min 193 W/m² 9,9 °C 23,0 °C 14,5 km/h (3 Bft)
26.07.2023 18:08 22,3 °C 23,3 °C 54 % 43 % 1011,0 hPa 0,0 l/m² 4,2 km/h (1 Bft) W-NW 284 ° 1 min 202 W/m² 10,0 °C 23,3 °C 6,4 km/h (2 Bft)
26.07.2023 18:09 22,3 °C 23,2 °C 54 % 44 % 1010,9 hPa 0,0 l/m² 3,0 km/h (1 Bft) W 265 ° 1 min 202 W/m² 10,3 °C 23,2 °C 4,8 km/h (1 Bft)
26.07.2023 18:11 22,3 °C 23,2 °C 54 % 43 % 1010,9 hPa 0,0 l/m² 3,7 km/h (1 Bft) NW 322 ° 2 min 555 W/m² 9,9 °C 23,2 °C 6,4 km/h (2 Bft)
26.07.2023 18:13 22,3 °C 23,2 °C 54 % 43 % 1010,9 hPa 0,0 l/m² 10,7 km/h (2 Bft) N-NW 340 ° 2 min 540 W/m² 9,9 °C 22,0 °C 17,7 km/h (3 Bft)
26.07.2023 18:14 22,3 °C 23,2 °C 54 % 44 % 1010,9 hPa 0,0 l/m² 12,2 km/h (2 Bft) N-NW 329 ° 1 min 527 W/m² 10,3 °C 21,7 °C 16,1 km/h (3 Bft)
26.07.2023 18:15 22,3 °C 23,2 °C 54 % 44 % 1010,9 hPa 0,0 l/m² 5,7 km/h (2 Bft) N-NW 328 ° 1 min 512 W/m² 10,3 °C 23,2 °C 12,9 km/h (3 Bft)
26.07.2023 18:16 22,3 °C 23,2 °C 54 % 44 % 1010,9 hPa 0,0 l/m² 8,3 km/h (2 Bft) N-NW 340 ° 1 min 512 W/m² 10,3 °C 22,6 °C 12,9 km/h (3 Bft)
26.07.2023 18:17 22,3 °C 23,2 °C 54 % 43 % 1010,9 hPa 0,0 l/m² 8,8 km/h (2 Bft) NW 322 ° 1 min 512 W/m² 9,9 °C 22,5 °C 12,9 km/h (3 Bft)
26.07.2023 18:18 22,3 °C 23,2 °C 55 % 43 % 1010,9 hPa 0,0 l/m² 10,2 km/h (2 Bft) N 355 ° 1 min 230 W/m² 9,9 °C 22,1 °C 14,5 km/h (3 Bft)
26.07.2023 18:19 22,3 °C 23,2 °C 55 % 43 % 1010,9 hPa 0,0 l/m² 12,4 km/h (2 Bft) NW 324 ° 1 min 230 W/m² 9,9 °C 21,6 °C 16,1 km/h (3 Bft)
26.07.2023 18:20 22,3 °C 23,2 °C 55 % 43 % 1010,9 hPa 0,0 l/m² 6,1 km/h (2 Bft) NW 324 ° 1 min 469 W/m² 9,9 °C 23,2 °C 12,9 km/h (3 Bft)
26.07.2023 18:22 22,3 °C 23,2 °C 55 % 43 % 1010,9 hPa 0,0 l/m² 8,1 km/h (2 Bft) W-NW 290 ° 2 min 151 W/m² 9,9 °C 22,7 °C 16,1 km/h (3 Bft)
26.07.2023 18:23 22,3 °C 23,2 °C 55 % 43 % 1011,0 hPa 0,0 l/m² 8,9 km/h (2 Bft) NW 304 ° 1 min 141 W/m² 9,9 °C 22,5 °C 12,9 km/h (3 Bft)
26.07.2023 18:24 22,3 °C 23,1 °C 55 % 43 % 1011,0 hPa 0,0 l/m² 7,6 km/h (2 Bft) NW 309 ° 1 min 135 W/m² 9,8 °C 22,7 °C 11,3 km/h (2 Bft)
26.07.2023 18:25 22,3 °C 23,1 °C 55 % 43 % 1011,0 hPa 0,0 l/m² 9,5 km/h (2 Bft) NW 304 ° 1 min 132 W/m² 9,8 °C 22,2 °C 14,5 km/h (3 Bft)
26.07.2023 18:26 22,3 °C 23,1 °C 55 % 43 % 1011,0 hPa 0,0 l/m² 12,7 km/h (3 Bft) NW 318 ° 1 min 130 W/m² 9,8 °C 21,5 °C 16,1 km/h (3 Bft)
26.07.2023 18:27 22,3 °C 22,9 °C 55 % 43 % 1011,0 hPa 0,0 l/m² 8,3 km/h (2 Bft) W-NW 300 ° 1 min 127 W/m² 9,6 °C 22,3 °C 11,3 km/h (2 Bft)
26.07.2023 18:28 22,4 °C 22,9 °C 55 % 43 % 1011,0 hPa 0,0 l/m² 4,3 km/h (1 Bft) NW 321 ° 1 min 121 W/m² 9,6 °C 22,9 °C 6,4 km/h (2 Bft)
26.07.2023 18:29 22,4 °C 22,9 °C 55 % 44 % 1011,0 hPa 0,0 l/m² 1,7 km/h (1 Bft) N-NW 330 ° 1 min 120 W/m² 10,0 °C 22,9 °C 3,2 km/h (1 Bft)
26.07.2023 18:31 22,4 °C 22,8 °C 55 % 44 % 1010,9 hPa 0,0 l/m² 1,4 km/h (1 Bft) W 280 ° 2 min 114 W/m² 9,9 °C 22,8 °C 4,8 km/h (1 Bft)
26.07.2023 18:33 22,4 °C 22,7 °C 55 % 45 % 1011,0 hPa 0,0 l/m² 6,8 km/h (2 Bft) NW 313 ° 2 min 109 W/m² 10,1 °C 22,6 °C 14,5 km/h (3 Bft)
26.07.2023 18:34 22,4 °C 22,7 °C 55 % 45 % 1011,0 hPa 0,0 l/m² 4,6 km/h (1 Bft) NW 321 ° 1 min 109 W/m² 10,1 °C 22,7 °C 9,7 km/h (2 Bft)
26.07.2023 18:35 22,4 °C 22,7 °C 55 % 45 % 1011,1 hPa 0,0 l/m² 2,5 km/h (1 Bft) N-NW 332 ° 1 min 111 W/m² 10,1 °C 22,7 °C 8,0 km/h (2 Bft)
26.07.2023 18:36 22,4 °C 22,6 °C 55 % 45 % 1011,0 hPa 0,0 l/m² 4,9 km/h (1 Bft) W-NW 298 ° 1 min 111 W/m² 10,1 °C 22,6 °C 6,4 km/h (2 Bft)
26.07.2023 18:37 22,4 °C 22,6 °C 55 % 45 % 1011,0 hPa 0,0 l/m² 8,6 km/h (2 Bft) NW 320 ° 1 min 105 W/m² 10,1 °C 21,9 °C 14,5 km/h (3 Bft)
26.07.2023 18:38 22,4 °C 22,6 °C 55 % 46 % 1011,0 hPa 0,0 l/m² 1,8 km/h (1 Bft) W 279 ° 1 min 104 W/m² 10,4 °C 22,6 °C 4,8 km/h (1 Bft)
26.07.2023 18:39 22,4 °C 22,4 °C 55 % 46 % 1011,0 hPa 0,0 l/m² 3,1 km/h (1 Bft) W 271 ° 1 min 100 W/m² 10,2 °C 22,4 °C 4,8 km/h (1 Bft)
26.07.2023 18:40 22,4 °C 22,4 °C 55 % 45 % 1011,0 hPa 0,0 l/m² 5,0 km/h (1 Bft) NW 313 ° 1 min 98 W/m² 9,9 °C 22,4 °C 8,0 km/h (2 Bft)
26.07.2023 18:42 22,4 °C 22,4 °C 55 % 45 % 1011,0 hPa 0,0 l/m² 4,7 km/h (1 Bft) NW 325 ° 2 min 98 W/m² 9,9 °C 22,4 °C 8,0 km/h (2 Bft)
26.07.2023 18:43 22,4 °C 22,3 °C 55 % 46 % 1011,0 hPa 0,0 l/m² 5,0 km/h (1 Bft) N-NW 335 ° 1 min 98 W/m² 10,1 °C 22,3 °C 6,4 km/h (2 Bft)
26.07.2023 18:44 22,4 °C 22,3 °C 55 % 45 % 1011,0 hPa 0,0 l/m² 4,8 km/h (1 Bft) NW 321 ° 1 min 98 W/m² 9,8 °C 22,3 °C 8,0 km/h (2 Bft)
26.07.2023 18:45 22,4 °C 22,3 °C 55 % 45 % 1011,0 hPa 0,0 l/m² 5,2 km/h (1 Bft) N-NW 329 ° 1 min 100 W/m² 9,8 °C 22,3 °C 8,0 km/h (2 Bft)
26.07.2023 18:46 22,4 °C 22,2 °C 55 % 45 % 1011,0 hPa 0,0 l/m² 4,2 km/h (1 Bft) N-NW 336 ° 1 min 105 W/m² 9,7 °C 22,2 °C 6,4 km/h (2 Bft)
26.07.2023 18:47 22,4 °C 22,2 °C 55 % 45 % 1011,0 hPa 0,0 l/m² 3,0 km/h (1 Bft) N-NW 336 ° 1 min 107 W/m² 9,7 °C 22,2 °C 4,8 km/h (1 Bft)
26.07.2023 18:48 22,4 °C 22,2 °C 55 % 46 % 1011,0 hPa 0,0 l/m² 3,3 km/h (1 Bft) N-NW 336 ° 1 min 109 W/m² 10,0 °C 22,2 °C 4,8 km/h (1 Bft)
26.07.2023 18:49 22,4 °C 22,1 °C 55 % 47 % 1011,0 hPa 0,0 l/m² 5,8 km/h (2 Bft) N-NW 344 ° 1 min 109 W/m² 10,3 °C 22,1 °C 8,0 km/h (2 Bft)
26.07.2023 18:51 22,4 °C 22,1 °C 55 % 47 % 1011,0 hPa 0,0 l/m² 7,5 km/h (2 Bft) NW 321 ° 2 min 111 W/m² 10,3 °C 21,7 °C 9,7 km/h (2 Bft)
26.07.2023 18:53 22,4 °C 21,9 °C 55 % 47 % 1011,0 hPa 0,0 l/m² 7,4 km/h (2 Bft) N-NW 343 ° 2 min 107 W/m² 10,1 °C 21,5 °C 9,7 km/h (2 Bft)
26.07.2023 18:55 22,4 °C 21,9 °C 55 % 48 % 1011,0 hPa 0,0 l/m² 5,1 km/h (1 Bft) N-NW 346 ° 2 min 104 W/m² 10,4 °C 21,9 °C 8,0 km/h (2 Bft)
26.07.2023 18:56 22,4 °C 21,8 °C 55 % 48 % 1011,1 hPa 0,0 l/m² 6,7 km/h (2 Bft) N-NW 332 ° 1 min 102 W/m² 10,3 °C 21,7 °C 9,7 km/h (2 Bft)
26.07.2023 18:57 22,4 °C 21,8 °C 55 % 48 % 1011,1 hPa 0,0 l/m² 8,7 km/h (2 Bft) NW 324 ° 1 min 102 W/m² 10,3 °C 21,0 °C 12,9 km/h (3 Bft)
26.07.2023 18:58 22,4 °C 21,8 °C 55 % 48 % 1011,1 hPa 0,0 l/m² 5,8 km/h (2 Bft) N-NW 335 ° 1 min 102 W/m² 10,3 °C 21,8 °C 8,0 km/h (2 Bft)
26.07.2023 18:59 22,4 °C 21,7 °C 55 % 48 % 1011,1 hPa 0,0 l/m² 9,7 km/h (2 Bft) N 355 ° 1 min 102 W/m² 10,2 °C 20,6 °C 12,9 km/h (3 Bft)
26.07.2023 19:01 22,4 °C 21,6 °C 55 % 48 % 1011,1 hPa 0,0 l/m² 7,2 km/h (2 Bft) N-NW 338 ° 2 min 100 W/m² 10,1 °C 21,3 °C 12,9 km/h (3 Bft)
26.07.2023 19:03 22,4 °C 21,5 °C 55 % 48 % 1011,1 hPa 0,0 l/m² 3,9 km/h (1 Bft) N-NW 329 ° 2 min 97 W/m² 10,0 °C 21,5 °C 6,4 km/h (2 Bft)
26.07.2023 19:04 22,4 °C 21,4 °C 55 % 48 % 1011,1 hPa 0,0 l/m² 3,7 km/h (1 Bft) N-NW 333 ° 1 min 93 W/m² 9,9 °C 21,4 °C 4,8 km/h (1 Bft)
26.07.2023 19:05 22,4 °C 21,4 °C 55 % 48 % 1011,1 hPa 0,0 l/m² 3,6 km/h (1 Bft) N-NW 337 ° 1 min 90 W/m² 9,9 °C 21,4 °C 4,8 km/h (1 Bft)
26.07.2023 19:07 22,4 °C 21,3 °C 55 % 49 % 1011,2 hPa 0,0 l/m² 2,4 km/h (1 Bft) N 355 ° 2 min 84 W/m² 10,1 °C 21,3 °C 4,8 km/h (1 Bft)
26.07.2023 19:08 22,4 °C 21,3 °C 55 % 49 % 1011,2 hPa 0,0 l/m² 3,5 km/h (1 Bft) N-NO 19 ° 1 min 84 W/m² 10,1 °C 21,3 °C 4,8 km/h (1 Bft)
26.07.2023 19:09 22,4 °C 21,3 °C 55 % 49 % 1011,1 hPa 0,0 l/m² 2,9 km/h (1 Bft) N 355 ° 1 min 79 W/m² 10,1 °C 21,3 °C 4,8 km/h (1 Bft)
26.07.2023 19:11 22,4 °C 21,3 °C 55 % 49 % 1011,2 hPa 0,0 l/m² 2,5 km/h (1 Bft) N 355 ° 2 min 76 W/m² 10,1 °C 21,3 °C 4,8 km/h (1 Bft)
26.07.2023 19:13 22,4 °C 21,2 °C 55 % 49 % 1011,2 hPa 0,0 l/m² 4,4 km/h (1 Bft) N 355 ° 2 min 70 W/m² 10,1 °C 21,2 °C 6,4 km/h (2 Bft)
26.07.2023 19:14 22,4 °C 21,2 °C 55 % 49 % 1011,2 hPa 0,0 l/m² 4,9 km/h (1 Bft) N-NW 342 ° 1 min 67 W/m² 10,1 °C 21,2 °C 8,0 km/h (2 Bft)
26.07.2023 19:15 22,4 °C 21,2 °C 55 % 49 % 1011,1 hPa 0,0 l/m² 4,6 km/h (1 Bft) N-NW 333 ° 1 min 60 W/m² 10,1 °C 21,2 °C 6,4 km/h (2 Bft)
26.07.2023 19:16 22,4 °C 21,1 °C 55 % 49 % 1011,2 hPa 0,0 l/m² 5,0 km/h (1 Bft) N 355 ° 1 min 58 W/m² 10,0 °C 21,1 °C 8,0 km/h (2 Bft)
26.07.2023 19:17 22,4 °C 21,1 °C 55 % 50 % 1011,1 hPa 0,0 l/m² 2,7 km/h (1 Bft) N 11 ° 1 min 56 W/m² 10,3 °C 21,1 °C 4,8 km/h (1 Bft)
26.07.2023 19:18 22,4 °C 21,1 °C 55 % 49 % 1011,2 hPa 0,0 l/m² 2,9 km/h (1 Bft) N 355 ° 1 min 53 W/m² 10,0 °C 21,1 °C 4,8 km/h (1 Bft)
26.07.2023 19:19 22,4 °C 21,1 °C 55 % 50 % 1011,2 hPa 0,0 l/m² 5,6 km/h (2 Bft) N 360 ° 0 min 51 W/m² 10,3 °C 21,1 °C 8,0 km/h (2 Bft)
26.07.2023 19:21 22,4 °C 20,9 °C 55 % 49 % 1011,2 hPa 0,0 l/m² 4,8 km/h (1 Bft) N 360 ° 0 min 46 W/m² 9,8 °C 20,9 °C 6,4 km/h (2 Bft)
26.07.2023 19:23 22,4 °C 20,9 °C 55 % 49 % 1011,2 hPa 0,0 l/m² 3,0 km/h (1 Bft) N 355 ° 0 min 42 W/m² 9,8 °C 20,9 °C 4,8 km/h (1 Bft)
26.07.2023 19:24 22,4 °C 20,9 °C 55 % 50 % 1011,1 hPa 0,0 l/m² 1,7 km/h (1 Bft) N 355 ° 0 min 40 W/m² 10,1 °C 20,9 °C 3,2 km/h (1 Bft)
26.07.2023 19:25 22,4 °C 20,9 °C 55 % 50 % 1011,1 hPa 0,0 l/m² 1,2 km/h (1 Bft) N 355 ° 0 min 39 W/m² 10,1 °C 20,9 °C 3,2 km/h (1 Bft)
26.07.2023 19:26 22,4 °C 20,8 °C 55 % 50 % 1011,2 hPa 0,0 l/m² 0,1 km/h (0 Bft) N 355 ° 0 min 37 W/m² 10,0 °C 20,8 °C 1,6 km/h (1 Bft)
26.07.2023 19:27 22,4 °C 20,8 °C 55 % 50 % 1011,2 hPa 0,0 l/m² 0,6 km/h (0 Bft) N 355 ° 0 min 32 W/m² 10,0 °C 20,8 °C 1,6 km/h (1 Bft)
26.07.2023 19:28 22,4 °C 20,8 °C 55 % 50 % 1011,2 hPa 0,0 l/m² 0,0 km/h (0 Bft) N 355 ° 0 min 30 W/m² 10,0 °C 20,8 °C 0,0 km/h (0 Bft)
26.07.2023 19:29 22,4 °C 20,8 °C 55 % 50 % 1011,1 hPa 0,0 l/m² 0,0 km/h (0 Bft) N 355 ° 0 min 28 W/m² 10,0 °C 20,8 °C 0,0 km/h (0 Bft)
26.07.2023 19:30 22,4 °C 20,8 °C 55 % 50 % 1011,2 hPa 0,0 l/m² 3,8 km/h (1 Bft) N 355 ° 0 min 28 W/m² 10,0 °C 20,8 °C 4,8 km/h (1 Bft)
26.07.2023 19:32 22,4 °C 20,7 °C 55 % 50 % 1011,2 hPa 0,0 l/m² 2,4 km/h (1 Bft) N-NW 338 ° 0 min 25 W/m² 9,9 °C 20,7 °C 4,8 km/h (1 Bft)
26.07.2023 19:33 22,4 °C 20,7 °C 55 % 50 % 1011,2 hPa 0,0 l/m² 0,4 km/h (0 Bft) N-NW 338 ° 0 min 23 W/m² 9,9 °C 20,7 °C 1,6 km/h (1 Bft)
26.07.2023 19:34 22,4 °C 20,7 °C 55 % 51 % 1011,2 hPa 0,0 l/m² 2,4 km/h (1 Bft) N-NW 338 ° 0 min 21 W/m² 10,2 °C 20,7 °C 3,2 km/h (1 Bft)
26.07.2023 19:35 22,4 °C 20,7 °C 55 % 51 % 1011,2 hPa 0,0 l/m² 2,8 km/h (1 Bft) N-NW 338 ° 0 min 21 W/m² 10,2 °C 20,7 °C 4,8 km/h (1 Bft)
26.07.2023 19:36 22,4 °C 20,7 °C 55 % 51 % 1011,2 hPa 0,0 l/m² 0,7 km/h (0 Bft) N-NW 338 ° 0 min 21 W/m² 10,2 °C 20,7 °C 3,2 km/h (1 Bft)
26.07.2023 19:37 22,4 °C 20,7 °C 55 % 51 % 1011,2 hPa 0,0 l/m² 0,2 km/h (0 Bft) N-NW 338 ° 0 min 19 W/m² 10,2 °C 20,7 °C 1,6 km/h (1 Bft)
26.07.2023 19:38 22,4 °C 20,7 °C 55 % 51 % 1011,3 hPa 0,0 l/m² 3,7 km/h (1 Bft) SW 234 ° 0 min 19 W/m² 10,2 °C 20,7 °C 6,4 km/h (2 Bft)
26.07.2023 19:39 22,4 °C 20,6 °C 55 % 52 % 1011,3 hPa 0,0 l/m² 8,2 km/h (2 Bft) SW 223 ° 0 min 18 W/m² 10,4 °C 19,9 °C 11,3 km/h (2 Bft)
26.07.2023 19:41 22,4 °C 20,6 °C 55 % 53 % 1011,3 hPa 0,0 l/m² 11,3 km/h (2 Bft) S-SW 209 ° 0 min 18 W/m² 10,7 °C 18,9 °C 17,7 km/h (3 Bft)
26.07.2023 19:43 22,4 °C 20,4 °C 55 % 52 % 1011,3 hPa 0,0 l/m² 11,3 km/h (2 Bft) W-SW 239 ° 0 min 18 W/m² 10,2 °C 18,7 °C 19,3 km/h (3 Bft)
26.07.2023 19:44 22,4 °C 20,3 °C 55 % 52 % 1011,2 hPa 0,0 l/m² 9,3 km/h (2 Bft) SW 225 ° 0 min 18 W/m² 10,1 °C 19,2 °C 12,9 km/h (3 Bft)
26.07.2023 19:45 22,4 °C 20,3 °C 55 % 52 % 1011,3 hPa 0,0 l/m² 9,2 km/h (2 Bft) W-SW 242 ° 0 min 18 W/m² 10,1 °C 19,2 °C 12,9 km/h (3 Bft)
26.07.2023 19:46 22,4 °C 20,3 °C 55 % 52 % 1011,3 hPa 0,0 l/m² 8,8 km/h (2 Bft) W 263 ° 0 min 16 W/m² 10,1 °C 19,4 °C 12,9 km/h (3 Bft)
26.07.2023 19:47 22,4 °C 20,2 °C 55 % 53 % 1011,3 hPa 0,0 l/m² 9,4 km/h (2 Bft) SW 216 ° 0 min 16 W/m² 10,3 °C 19,1 °C 12,9 km/h (3 Bft)
26.07.2023 19:48 22,4 °C 20,2 °C 55 % 54 % 1011,4 hPa 0,0 l/m² 8,9 km/h (2 Bft) SW 223 ° 0 min 16 W/m² 10,6 °C 19,2 °C 11,3 km/h (2 Bft)
26.07.2023 19:49 22,4 °C 20,2 °C 55 % 54 % 1011,4 hPa 0,0 l/m² 8,4 km/h (2 Bft) S-SW 206 ° 0 min 14 W/m² 10,6 °C 19,4 °C 12,9 km/h (3 Bft)
26.07.2023 19:51 22,4 °C 20,1 °C 55 % 54 % 1011,5 hPa 0,0 l/m² 12,8 km/h (3 Bft) S-SW 210 ° 0 min 14 W/m² 10,5 °C 17,9 °C 19,3 km/h (3 Bft)
26.07.2023 19:53 22,3 °C 20,1 °C 55 % 55 % 1011,4 hPa 0,0 l/m² 14,9 km/h (3 Bft) SW 218 ° 0 min 14 W/m² 10,8 °C 17,4 °C 22,5 km/h (4 Bft)
26.07.2023 19:54 22,3 °C 19,9 °C 55 % 55 % 1011,4 hPa 0,0 l/m² 13,3 km/h (3 Bft) W-SW 238 ° 0 min 14 W/m² 10,6 °C 17,6 °C 16,1 km/h (3 Bft)
26.07.2023 19:55 22,4 °C 19,9 °C 55 % 55 % 1011,4 hPa 0,0 l/m² 16,5 km/h (3 Bft) SW 219 ° 0 min 14 W/m² 10,6 °C 16,8 °C 20,9 km/h (4 Bft)
26.07.2023 19:56 22,3 °C 19,9 °C 55 % 56 % 1011,5 hPa 0,0 l/m² 13,9 km/h (3 Bft) SW 221 ° 0 min 14 W/m² 10,9 °C 17,4 °C 20,9 km/h (4 Bft)
26.07.2023 19:57 22,3 °C 19,8 °C 55 % 56 % 1011,4 hPa 0,0 l/m² 10,6 km/h (2 Bft) W 269 ° 0 min 14 W/m² 10,8 °C 18,2 °C 12,9 km/h (3 Bft)
26.07.2023 19:58 22,3 °C 19,8 °C 55 % 56 % 1011,5 hPa 0,0 l/m² 11,0 km/h (2 Bft) SW 219 ° 0 min 14 W/m² 10,8 °C 18,1 °C 14,5 km/h (3 Bft)
26.07.2023 19:59 22,4 °C 19,8 °C 55 % 56 % 1011,4 hPa 0,0 l/m² 10,1 km/h (2 Bft) S-SW 209 ° 0 min 16 W/m² 10,8 °C 18,4 °C 16,1 km/h (3 Bft)
26.07.2023 20:01 22,3 °C 19,7 °C 55 % 57 % 1011,5 hPa 0,0 l/m² 14,8 km/h (3 Bft) SW 223 ° 0 min 18 W/m² 10,9 °C 16,9 °C 20,9 km/h (4 Bft)
26.07.2023 20:03 22,4 °C 19,6 °C 55 % 57 % 1011,4 hPa 0,0 l/m² 19,5 km/h (3 Bft) SW 215 ° 0 min 23 W/m² 10,8 °C 15,8 °C 25,7 km/h (4 Bft)
26.07.2023 20:04 22,3 °C 19,6 °C 55 % 58 % 1011,5 hPa 0,0 l/m² 14,7 km/h (3 Bft) SW 214 ° 0 min 25 W/m² 11,1 °C 16,8 °C 17,7 km/h (3 Bft)
26.07.2023 20:05 22,3 °C 19,5 °C 55 % 58 % 1011,4 hPa 0,0 l/m² 18,8 km/h (3 Bft) S-SW 209 ° 0 min 26 W/m² 11,0 °C 15,8 °C 25,7 km/h (4 Bft)
26.07.2023 20:06 22,3 °C 19,5 °C 55 % 58 % 1011,4 hPa 0,0 l/m² 20,2 km/h (4 Bft) SW 223 ° 0 min 28 W/m² 11,0 °C 15,5 °C 24,1 km/h (4 Bft)
26.07.2023 20:07 22,3 °C 19,4 °C 55 % 59 % 1011,5 hPa 0,0 l/m² 19,2 km/h (3 Bft) S-SW 211 ° 0 min 28 W/m² 11,2 °C 15,6 °C 25,7 km/h (4 Bft)
26.07.2023 20:08 22,3 °C 19,4 °C 55 % 59 % 1011,4 hPa 0,0 l/m² 15,4 km/h (3 Bft) SW 219 ° 0 min 30 W/m² 11,2 °C 16,4 °C 17,7 km/h (3 Bft)
26.07.2023 20:09 22,3 °C 19,3 °C 55 % 59 % 1011,4 hPa 0,0 l/m² 15,2 km/h (3 Bft) SW 230 ° 0 min 30 W/m² 11,1 °C 16,4 °C 20,9 km/h (4 Bft)
26.07.2023 20:11 22,4 °C 19,3 °C 55 % 59 % 1011,5 hPa 0,0 l/m² 17,0 km/h (3 Bft) SW 221 ° 0 min 32 W/m² 11,1 °C 15,9 °C 24,1 km/h (4 Bft)
26.07.2023 20:13 22,3 °C 19,2 °C 55 % 59 % 1011,4 hPa 0,0 l/m² 15,5 km/h (3 Bft) SW 230 ° 0 min 33 W/m² 11,0 °C 16,2 °C 22,5 km/h (4 Bft)
26.07.2023 20:14 22,4 °C 19,2 °C 56 % 60 % 1011,5 hPa 0,0 l/m² 18,1 km/h (3 Bft) S-SW 209 ° 0 min 37 W/m² 11,2 °C 15,6 °C 24,1 km/h (4 Bft)
26.07.2023 20:15 22,4 °C 19,2 °C 56 % 59 % 1011,5 hPa 0,0 l/m² 20,0 km/h (4 Bft) SW 225 ° 0 min 39 W/m² 11,0 °C 15,2 °C 22,5 km/h (4 Bft)
26.07.2023 20:16 22,4 °C 19,1 °C 56 % 59 % 1011,5 hPa 0,0 l/m² 18,7 km/h (3 Bft) S-SW 209 ° 0 min 40 W/m² 10,9 °C 15,3 °C 22,5 km/h (4 Bft)
26.07.2023 20:17 22,4 °C 19,1 °C 56 % 59 % 1011,5 hPa 0,0 l/m² 16,9 km/h (3 Bft) S-SW 207 ° 0 min 42 W/m² 10,9 °C 15,7 °C 20,9 km/h (4 Bft)
26.07.2023 20:18 22,4 °C 19,1 °C 56 % 60 % 1011,5 hPa 0,0 l/m² 17,1 km/h (3 Bft) SW 223 ° 0 min 42 W/m² 11,1 °C 15,7 °C 29,0 km/h (5 Bft)
26.07.2023 20:19 22,4 °C 19,0 °C 56 % 60 % 1011,4 hPa 0,0 l/m² 18,7 km/h (3 Bft) SW 225 ° 0 min 42 W/m² 11,1 °C 15,2 °C 24,1 km/h (4 Bft)
26.07.2023 20:21 22,4 °C 18,9 °C 56 % 60 % 1011,5 hPa 0,0 l/m² 18,9 km/h (3 Bft) SW 219 ° 0 min 39 W/m² 11,0 °C 15,0 °C 25,7 km/h (4 Bft)
26.07.2023 20:23 22,4 °C 18,9 °C 56 % 60 % 1011,5 hPa 0,0 l/m² 19,6 km/h (3 Bft) SW 236 ° 0 min 35 W/m² 11,0 °C 14,9 °C 27,4 km/h (5 Bft)
26.07.2023 20:24 22,4 °C 18,8 °C 56 % 60 % 1011,5 hPa 0,0 l/m² 19,9 km/h (4 Bft) SW 225 ° 0 min 35 W/m² 10,9 °C 14,7 °C 25,7 km/h (4 Bft)
26.07.2023 20:25 22,4 °C 18,8 °C 56 % 60 % 1011,5 hPa 0,0 l/m² 15,1 km/h (3 Bft) SW 223 ° 0 min 33 W/m² 10,9 °C 15,8 °C 19,3 km/h (3 Bft)
26.07.2023 20:26 22,4 °C 18,8 °C 56 % 61 % 1011,6 hPa 0,0 l/m² 14,1 km/h (3 Bft) SW 229 ° 0 min 32 W/m² 11,1 °C 16,0 °C 19,3 km/h (3 Bft)
26.07.2023 20:27 22,4 °C 18,8 °C 56 % 61 % 1011,6 hPa 0,0 l/m² 14,9 km/h (3 Bft) SW 224 ° 0 min 32 W/m² 11,1 °C 15,8 °C 20,9 km/h (4 Bft)
26.07.2023 20:28 22,4 °C 18,8 °C 56 % 61 % 1011,5 hPa 0,0 l/m² 20,3 km/h (4 Bft) SW 234 ° 0 min 33 W/m² 11,1 °C 14,6 °C 24,1 km/h (4 Bft)
26.07.2023 20:29 22,4 °C 18,7 °C 56 % 61 % 1011,6 hPa 0,0 l/m² 13,5 km/h (3 Bft) SW 229 ° 0 min 33 W/m² 11,0 °C 16,1 °C 20,9 km/h (4 Bft)
26.07.2023 20:31 22,4 °C 18,7 °C 56 % 61 % 1011,6 hPa 0,0 l/m² 14,3 km/h (3 Bft) SW 221 ° 0 min 35 W/m² 11,0 °C 15,9 °C 20,9 km/h (4 Bft)
26.07.2023 20:33 22,4 °C 18,6 °C 56 % 61 % 1011,6 hPa 0,0 l/m² 15,2 km/h (3 Bft) SW 234 ° 0 min 32 W/m² 10,9 °C 15,5 °C 22,5 km/h (4 Bft)
26.07.2023 20:34 22,4 °C 18,6 °C 56 % 61 % 1011,6 hPa 0,0 l/m² 13,7 km/h (3 Bft) SW 230 ° 0 min 30 W/m² 10,9 °C 15,9 °C 19,3 km/h (3 Bft)
26.07.2023 20:35 22,4 °C 18,6 °C 56 % 61 % 1011,6 hPa 0,0 l/m² 12,5 km/h (2 Bft) SW 223 ° 0 min 28 W/m² 10,9 °C 16,3 °C 17,7 km/h (3 Bft)
26.07.2023 20:36 22,4 °C 18,6 °C 56 % 61 % 1011,6 hPa 0,0 l/m² 12,2 km/h (2 Bft) SW 223 ° 0 min 26 W/m² 10,9 °C 16,4 °C 17,7 km/h (3 Bft)
26.07.2023 20:37 22,4 °C 18,6 °C 56 % 61 % 1011,6 hPa 0,0 l/m² 11,2 km/h (2 Bft) W-SW 238 ° 0 min 25 W/m² 10,9 °C 16,7 °C 16,1 km/h (3 Bft)
26.07.2023 20:38 22,4 °C 18,6 °C 56 % 61 % 1011,6 hPa 0,0 l/m² 10,4 km/h (2 Bft) W-SW 240 ° 0 min 25 W/m² 10,9 °C 17,0 °C 14,5 km/h (3 Bft)
26.07.2023 20:39 22,4 °C 18,6 °C 56 % 61 % 1011,6 hPa 0,0 l/m² 14,5 km/h (3 Bft) SW 219 ° 0 min 25 W/m² 10,9 °C 15,7 °C 19,3 km/h (3 Bft)
26.07.2023 20:40 22,4 °C 18,5 °C 56 % 61 % 1011,6 hPa 0,0 l/m² 12,5 km/h (2 Bft) SW 233 ° 0 min 25 W/m² 10,8 °C 16,1 °C 17,7 km/h (3 Bft)
26.07.2023 20:41 22,4 °C 18,5 °C 56 % 61 % 1011,6 hPa 0,0 l/m² 9,7 km/h (2 Bft) W-SW 247 ° 0 min 25 W/m² 10,8 °C 17,1 °C 14,5 km/h (3 Bft)
26.07.2023 20:42 22,4 °C 18,4 °C 56 % 61 % 1011,6 hPa 0,0 l/m² 9,7 km/h (2 Bft) W-SW 247 ° 0 min 25 W/m² 10,7 °C 17,0 °C 14,5 km/h (3 Bft)
26.07.2023 20:48 22,4 °C 18,3 °C 56 % 62 % 1011,7 hPa 0,0 l/m² 11,4 km/h (2 Bft) W-SW 242 ° 0 min 14 W/m² 10,9 °C 16,3 °C 17,7 km/h (3 Bft)
26.07.2023 20:50 22,4 °C 18,3 °C 56 % 62 % 1011,8 hPa 0,0 l/m² 9,4 km/h (2 Bft) SW 236 ° 0 min 11 W/m² 10,9 °C 17,0 °C 16,1 km/h (3 Bft)
26.07.2023 20:51 22,4 °C 18,2 °C 56 % 62 % 1011,8 hPa 0,0 l/m² 9,3 km/h (2 Bft) W-SW 244 ° 0 min 9 W/m² 10,8 °C 16,9 °C 16,1 km/h (3 Bft)
26.07.2023 20:53 22,5 °C 18,2 °C 56 % 62 % 1011,8 hPa 0,0 l/m² 11,8 km/h (2 Bft) W-SW 240 ° 0 min 9 W/m² 10,8 °C 16,0 °C 16,1 km/h (3 Bft)
26.07.2023 20:55 22,5 °C 18,1 °C 56 % 63 % 1011,8 hPa 0,0 l/m² 11,1 km/h (2 Bft) SW 225 ° 0 min 7 W/m² 10,9 °C 16,1 °C 14,5 km/h (3 Bft)
26.07.2023 20:57 22,4 °C 18,1 °C 56 % 63 % 1011,9 hPa 0,0 l/m² 8,9 km/h (2 Bft) S-SW 209 ° 0 min 7 W/m² 10,9 °C 17,0 °C 12,9 km/h (3 Bft)
26.07.2023 20:59 22,5 °C 18,0 °C 56 % 64 % 1011,9 hPa 0,0 l/m² 9,4 km/h (2 Bft) SW 234 ° 0 min 7 W/m² 11,1 °C 16,7 °C 14,5 km/h (3 Bft)
26.07.2023 21:00 22,4 °C 17,9 °C 56 % 64 % 1011,9 hPa 0,0 l/m² 12,6 km/h (3 Bft) SW 221 ° 0 min 5 W/m² 11,0 °C 15,4 °C 14,5 km/h (3 Bft)
26.07.2023 21:01 22,5 °C 17,9 °C 56 % 64 % 1012,0 hPa 0,0 l/m² 15,2 km/h (3 Bft) W-SW 242 ° 0 min 5 W/m² 11,0 °C 14,7 °C 19,3 km/h (3 Bft)
26.07.2023 21:02 22,5 °C 17,9 °C 56 % 64 % 1012,0 hPa 0,0 l/m² 12,1 km/h (2 Bft) SW 232 ° 0 min 5 W/m² 11,0 °C 15,6 °C 17,7 km/h (3 Bft)
26.07.2023 21:04 22,5 °C 17,8 °C 56 % 64 % 1011,9 hPa 0,0 l/m² 14,3 km/h (3 Bft) SW 229 ° 0 min 5 W/m² 10,9 °C 14,8 °C 20,9 km/h (4 Bft)
26.07.2023 21:05 22,5 °C 17,8 °C 56 % 64 % 1012,0 hPa 0,0 l/m² 13,3 km/h (3 Bft) SW 219 ° 0 min 5 W/m² 10,9 °C 15,1 °C 17,7 km/h (3 Bft)
26.07.2023 21:07 22,5 °C 17,8 °C 55 % 64 % 1012,0 hPa 0,0 l/m² 11,0 km/h (2 Bft) W-SW 246 ° 0 min 0 W/m² 10,9 °C 15,8 °C 14,5 km/h (3 Bft)
26.07.2023 21:09 22,6 °C 17,7 °C 56 % 64 % 1012,1 hPa 0,0 l/m² 12,4 km/h (2 Bft) W 278 ° 0 min 0 W/m² 10,8 °C 15,2 °C 16,1 km/h (3 Bft)
26.07.2023 21:10 22,6 °C 17,6 °C 56 % 64 % 1012,1 hPa 0,0 l/m² 15,2 km/h (3 Bft) SW 236 ° 0 min 0 W/m² 10,7 °C 14,3 °C 19,3 km/h (3 Bft)
26.07.2023 21:11 22,6 °C 17,6 °C 56 % 64 % 1012,1 hPa 0,0 l/m² 14,6 km/h (3 Bft) SW 236 ° 0 min 0 W/m² 10,7 °C 14,5 °C 17,7 km/h (3 Bft)
26.07.2023 21:12 22,6 °C 17,6 °C 56 % 64 % 1012,1 hPa 0,0 l/m² 12,0 km/h (2 Bft) SW 217 ° 0 min 0 W/m² 10,7 °C 15,3 °C 16,1 km/h (3 Bft)
26.07.2023 21:14 22,6 °C 17,5 °C 55 % 64 % 1012,0 hPa 0,0 l/m² 10,4 km/h (2 Bft) SW 226 ° 0 min 0 W/m² 10,6 °C 15,7 °C 14,5 km/h (3 Bft)
26.07.2023 21:15 22,6 °C 17,4 °C 56 % 64 % 1012,1 hPa 0,0 l/m² 8,9 km/h (2 Bft) W-SW 253 ° 0 min 0 W/m² 10,5 °C 16,2 °C 11,3 km/h (2 Bft)
26.07.2023 21:17 22,6 °C 17,4 °C 55 % 64 % 1012,2 hPa 0,0 l/m² 9,1 km/h (2 Bft) W-SW 249 ° 0 min 0 W/m² 10,5 °C 16,1 °C 12,9 km/h (3 Bft)
26.07.2023 21:19 22,6 °C 17,3 °C 55 % 64 % 1012,1 hPa 0,0 l/m² 8,4 km/h (2 Bft) W-SW 250 ° 0 min 0 W/m² 10,4 °C 16,3 °C 11,3 km/h (2 Bft)
26.07.2023 21:20 22,6 °C 17,3 °C 55 % 64 % 1012,2 hPa 0,0 l/m² 8,6 km/h (2 Bft) W-SW 240 ° 0 min 0 W/m² 10,4 °C 16,2 °C 11,3 km/h (2 Bft)
26.07.2023 21:21 22,6 °C 17,3 °C 55 % 64 % 1012,2 hPa 0,0 l/m² 5,4 km/h (2 Bft) SW 226 ° 0 min 0 W/m² 10,4 °C 17,3 °C 8,0 km/h (2 Bft)
26.07.2023 21:22 22,6 °C 17,2 °C 55 % 64 % 1012,2 hPa 0,0 l/m² 5,8 km/h (2 Bft) SW 224 ° 0 min 0 W/m² 10,3 °C 17,2 °C 8,0 km/h (2 Bft)
26.07.2023 21:23 22,6 °C 17,2 °C 55 % 65 % 1012,2 hPa 0,0 l/m² 6,2 km/h (2 Bft) SW 233 ° 0 min 0 W/m² 10,6 °C 17,2 °C 9,7 km/h (2 Bft)
26.07.2023 21:24 22,6 °C 17,2 °C 55 % 65 % 1012,1 hPa 0,0 l/m² 7,2 km/h (2 Bft) SW 225 ° 0 min 0 W/m² 10,6 °C 16,8 °C 8,0 km/h (2 Bft)
26.07.2023 21:26 22,6 °C 17,1 °C 55 % 65 % 1012,2 hPa 0,0 l/m² 6,3 km/h (2 Bft) SW 232 ° 0 min 0 W/m² 10,5 °C 17,1 °C 9,7 km/h (2 Bft)
26.07.2023 21:28 22,5 °C 17,1 °C 55 % 65 % 1012,1 hPa 0,0 l/m² 5,7 km/h (2 Bft) SW 217 ° 0 min 0 W/m² 10,5 °C 17,1 °C 9,7 km/h (2 Bft)
26.07.2023 21:30 22,6 °C 17,0 °C 55 % 66 % 1012,2 hPa 0,0 l/m² 6,8 km/h (2 Bft) W-SW 245 ° 0 min 0 W/m² 10,6 °C 16,8 °C 9,7 km/h (2 Bft)
26.07.2023 21:31 22,6 °C 16,9 °C 55 % 66 % 1012,2 hPa 0,0 l/m² 7,9 km/h (2 Bft) SW 223 ° 0 min 0 W/m² 10,5 °C 16,1 °C 9,7 km/h (2 Bft)
26.07.2023 21:32 22,6 °C 16,9 °C 55 % 66 % 1012,2 hPa 0,0 l/m² 6,8 km/h (2 Bft) SW 223 ° 0 min 0 W/m² 10,5 °C 16,7 °C 8,0 km/h (2 Bft)
26.07.2023 21:34 22,5 °C 16,9 °C 55 % 66 % 1012,2 hPa 0,0 l/m² 5,2 km/h (1 Bft) W-SW 244 ° 0 min 0 W/m² 10,5 °C 16,9 °C 8,0 km/h (2 Bft)
26.07.2023 21:35 22,5 °C 16,8 °C 55 % 66 % 1012,2 hPa 0,0 l/m² 5,4 km/h (2 Bft) SW 225 ° 0 min 0 W/m² 10,4 °C 16,8 °C 8,0 km/h (2 Bft)
26.07.2023 21:37 22,5 °C 16,8 °C 55 % 66 % 1012,2 hPa 0,0 l/m² 5,5 km/h (2 Bft) W-SW 239 ° 0 min 0 W/m² 10,4 °C 16,8 °C 8,0 km/h (2 Bft)
26.07.2023 21:39 22,4 °C 16,7 °C 55 % 67 % 1012,2 hPa 0,0 l/m² 4,2 km/h (1 Bft) SW 234 ° 0 min 0 W/m² 10,5 °C 16,7 °C 4,8 km/h (1 Bft)
26.07.2023 21:40 22,4 °C 16,7 °C 55 % 67 % 1012,3 hPa 0,0 l/m² 5,8 km/h (2 Bft) SW 230 ° 0 min 0 W/m² 10,5 °C 16,7 °C 6,4 km/h (2 Bft)
26.07.2023 21:41 22,5 °C 16,7 °C 55 % 67 % 1012,2 hPa 0,0 l/m² 5,4 km/h (2 Bft) SW 221 ° 0 min 0 W/m² 10,5 °C 16,7 °C 8,0 km/h (2 Bft)
26.07.2023 21:42 22,5 °C 16,7 °C 55 % 67 % 1012,2 hPa 0,0 l/m² 6,0 km/h (2 Bft) SW 228 ° 0 min 0 W/m² 10,5 °C 16,7 °C 6,4 km/h (2 Bft)
26.07.2023 21:44 22,4 °C 16,6 °C 55 % 67 % 1012,3 hPa 0,0 l/m² 6,0 km/h (2 Bft) SW 228 ° 0 min 0 W/m² 10,4 °C 16,6 °C 8,0 km/h (2 Bft)
26.07.2023 21:46 22,4 °C 16,6 °C 55 % 67 % 1012,3 hPa 0,0 l/m² 6,1 km/h (2 Bft) SW 231 ° 0 min 0 W/m² 10,4 °C 16,6 °C 9,7 km/h (2 Bft)
26.07.2023 21:48 22,4 °C 16,5 °C 55 % 68 % 1012,3 hPa 0,0 l/m² 6,1 km/h (2 Bft) SW 223 ° 0 min 0 W/m² 10,6 °C 16,5 °C 8,0 km/h (2 Bft)
26.07.2023 21:50 22,4 °C 16,4 °C 55 % 68 % 1012,3 hPa 0,0 l/m² 4,8 km/h (1 Bft) SW 232 ° 0 min 0 W/m² 10,5 °C 16,4 °C 9,7 km/h (2 Bft)
26.07.2023 21:51 22,4 °C 16,4 °C 55 % 68 % 1012,2 hPa 0,0 l/m² 4,1 km/h (1 Bft) S-SW 213 ° 0 min 0 W/m² 10,5 °C 16,4 °C 6,4 km/h (2 Bft)
26.07.2023 21:52 22,4 °C 16,4 °C 55 % 68 % 1012,3 hPa 0,0 l/m² 5,0 km/h (1 Bft) SW 221 ° 0 min 0 W/m² 10,5 °C 16,4 °C 8,0 km/h (2 Bft)
26.07.2023 21:53 22,4 °C 16,3 °C 55 % 69 % 1012,3 hPa 0,0 l/m² 3,2 km/h (1 Bft) SW 229 ° 0 min 0 W/m² 10,6 °C 16,3 °C 4,8 km/h (1 Bft)
26.07.2023 21:54 22,4 °C 16,3 °C 55 % 69 % 1012,3 hPa 0,0 l/m² 4,2 km/h (1 Bft) SW 233 ° 0 min 0 W/m² 10,6 °C 16,3 °C 8,0 km/h (2 Bft)
26.07.2023 21:55 22,4 °C 16,3 °C 55 % 69 % 1012,2 hPa 0,0 l/m² 4,7 km/h (1 Bft) SW 232 ° 0 min 0 W/m² 10,6 °C 16,3 °C 6,4 km/h (2 Bft)
26.07.2023 21:57 22,4 °C 16,3 °C 55 % 69 % 1012,3 hPa 0,0 l/m² 6,4 km/h (2 Bft) W-SW 238 ° 0 min 0 W/m² 10,6 °C 16,3 °C 11,3 km/h (2 Bft)
26.07.2023 21:59 22,4 °C 16,3 °C 55 % 69 % 1012,3 hPa 0,0 l/m² 7,6 km/h (2 Bft) SW 223 ° 0 min 0 W/m² 10,6 °C 15,7 °C 11,3 km/h (2 Bft)
26.07.2023 22:00 22,4 °C 16,2 °C 55 % 69 % 1012,3 hPa 0,0 l/m² 8,0 km/h (2 Bft) SW 223 ° 0 min 0 W/m² 10,5 °C 15,4 °C 11,3 km/h (2 Bft)
26.07.2023 22:01 22,4 °C 16,2 °C 55 % 69 % 1012,4 hPa 0,0 l/m² 8,5 km/h (2 Bft) S-SW 213 ° 0 min 0 W/m² 10,5 °C 15,1 °C 11,3 km/h (2 Bft)
26.07.2023 22:02 22,4 °C 16,2 °C 55 % 69 % 1012,4 hPa 0,0 l/m² 8,0 km/h (2 Bft) SW 226 ° 0 min 0 W/m² 10,5 °C 15,4 °C 9,7 km/h (2 Bft)
26.07.2023 22:04 22,4 °C 16,2 °C 55 % 70 % 1012,3 hPa 0,0 l/m² 6,8 km/h (2 Bft) SW 229 ° 0 min 0 W/m² 10,7 °C 16,0 °C 9,7 km/h (2 Bft)
26.07.2023 22:05 22,3 °C 16,2 °C 55 % 70 % 1012,4 hPa 0,0 l/m² 7,4 km/h (2 Bft) SW 231 ° 0 min 0 W/m² 10,7 °C 15,7 °C 9,7 km/h (2 Bft)
26.07.2023 22:07 22,4 °C 16,1 °C 55 % 70 % 1012,3 hPa 0,0 l/m² 7,1 km/h (2 Bft) S-SW 212 ° 0 min 0 W/m² 10,6 °C 15,7 °C 12,9 km/h (3 Bft)
26.07.2023 22:09 22,4 °C 16,1 °C 55 % 70 % 1012,3 hPa 0,0 l/m² 7,9 km/h (2 Bft) S-SW 213 ° 0 min 0 W/m² 10,6 °C 15,3 °C 11,3 km/h (2 Bft)
26.07.2023 22:10 22,3 °C 16,1 °C 55 % 70 % 1012,3 hPa 0,0 l/m² 5,9 km/h (2 Bft) SW 223 ° 0 min 0 W/m² 10,6 °C 16,1 °C 8,0 km/h (2 Bft)
26.07.2023 22:11 22,3 °C 16,1 °C 55 % 70 % 1012,4 hPa 0,0 l/m² 7,0 km/h (2 Bft) SW 215 ° 0 min 0 W/m² 10,6 °C 15,8 °C 9,7 km/h (2 Bft)
26.07.2023 22:12 22,3 °C 16,1 °C 55 % 70 % 1012,4 hPa 0,0 l/m² 7,0 km/h (2 Bft) SW 221 ° 0 min 0 W/m² 10,6 °C 15,8 °C 9,7 km/h (2 Bft)
26.07.2023 22:13 22,3 °C 16,1 °C 55 % 70 % 1012,4 hPa 0,0 l/m² 9,2 km/h (2 Bft) SW 214 ° 0 min 0 W/m² 10,6 °C 14,7 °C 9,7 km/h (2 Bft)
26.07.2023 22:14 22,3 °C 16,1 °C 55 % 70 % 1012,4 hPa 0,0 l/m² 8,4 km/h (2 Bft) S-SW 209 ° 0 min 0 W/m² 10,6 °C 15,1 °C 11,3 km/h (2 Bft)
26.07.2023 22:16 22,3 °C 16,1 °C 55 % 70 % 1012,4 hPa 0,0 l/m² 10,4 km/h (2 Bft) S-SW 213 ° 0 min 0 W/m² 10,6 °C 14,2 °C 14,5 km/h (3 Bft)
26.07.2023 22:18 22,3 °C 16,1 °C 55 % 70 % 1012,4 hPa 0,0 l/m² 10,8 km/h (2 Bft) S-SW 205 ° 0 min 0 W/m² 10,6 °C 14,0 °C 14,5 km/h (3 Bft)
26.07.2023 22:20 22,3 °C 16,1 °C 55 % 70 % 1012,4 hPa 0,0 l/m² 10,2 km/h (2 Bft) S-SW 213 ° 0 min 0 W/m² 10,6 °C 14,2 °C 12,9 km/h (3 Bft)
26.07.2023 22:21 22,3 °C 16,1 °C 55 % 70 % 1012,5 hPa 0,0 l/m² 8,3 km/h (2 Bft) SW 220 ° 0 min 0 W/m² 10,6 °C 15,1 °C 11,3 km/h (2 Bft)
26.07.2023 22:22 22,3 °C 16,1 °C 55 % 70 % 1012,5 hPa 0,0 l/m² 9,3 km/h (2 Bft) S-SW 196 ° 0 min 0 W/m² 10,6 °C 14,6 °C 11,3 km/h (2 Bft)
26.07.2023 22:24 22,3 °C 16,1 °C 55 % 71 % 1012,5 hPa 0,0 l/m² 9,5 km/h (2 Bft) SW 217 ° 0 min 0 W/m² 10,8 °C 14,6 °C 12,9 km/h (3 Bft)
26.07.2023 22:25 22,3 °C 16,1 °C 55 % 71 % 1012,6 hPa 0,0 l/m² 10,5 km/h (2 Bft) SW 219 ° 0 min 0 W/m² 10,8 °C 14,1 °C 14,5 km/h (3 Bft)
26.07.2023 22:27 22,3 °C 16,1 °C 55 % 71 % 1012,5 hPa 0,0 l/m² 9,9 km/h (2 Bft) SW 221 ° 0 min 0 W/m² 10,8 °C 14,4 °C 14,5 km/h (3 Bft)
26.07.2023 22:29 22,3 °C 16,1 °C 55 % 71 % 1012,6 hPa 0,0 l/m² 11,9 km/h (2 Bft) W 263 ° 0 min 0 W/m² 10,8 °C 13,6 °C 16,1 km/h (3 Bft)
26.07.2023 22:30 22,3 °C 16,1 °C 55 % 71 % 1013,0 hPa 0,0 l/m² 8,3 km/h (2 Bft) NW 312 ° 0 min 0 W/m² 10,8 °C 15,1 °C 14,5 km/h (3 Bft)
26.07.2023 22:31 22,3 °C 16,1 °C 55 % 71 % 1013,0 hPa 0,0 l/m² 8,2 km/h (2 Bft) W-NW 291 ° 0 min 0 W/m² 10,8 °C 15,2 °C 14,5 km/h (3 Bft)
26.07.2023 22:32 22,3 °C 16,1 °C 55 % 71 % 1013,0 hPa 0,0 l/m² 10,8 km/h (2 Bft) W-NW 296 ° 0 min 0 W/m² 10,8 °C 14,0 °C 16,1 km/h (3 Bft)
26.07.2023 22:34 22,3 °C 16,1 °C 55 % 71 % 1012,9 hPa 0,0 l/m² 6,0 km/h (2 Bft) W 273 ° 0 min 0 W/m² 10,8 °C 16,1 °C 14,5 km/h (3 Bft)
26.07.2023 22:35 22,3 °C 16,1 °C 55 % 71 % 1012,9 hPa 0,0 l/m² 5,2 km/h (1 Bft) W-SW 257 ° 0 min 0 W/m² 10,8 °C 16,1 °C 11,3 km/h (2 Bft)
26.07.2023 22:37 22,3 °C 16,1 °C 55 % 71 % 1012,9 hPa 0,0 l/m² 6,3 km/h (2 Bft) W 277 ° 0 min 0 W/m² 10,8 °C 16,1 °C 11,3 km/h (2 Bft)
26.07.2023 22:39 22,3 °C 16,1 °C 55 % 71 % 1012,9 hPa 0,0 l/m² 4,6 km/h (1 Bft) W 271 ° 0 min 0 W/m² 10,8 °C 16,1 °C 9,7 km/h (2 Bft)
26.07.2023 22:40 22,3 °C 16,1 °C 55 % 71 % 1012,9 hPa 0,0 l/m² 3,6 km/h (1 Bft) W-SW 249 ° 0 min 0 W/m² 10,8 °C 16,1 °C 9,7 km/h (2 Bft)
26.07.2023 22:41 22,3 °C 16,1 °C 55 % 71 % 1012,9 hPa 0,0 l/m² 2,9 km/h (1 Bft) W-SW 252 ° 0 min 0 W/m² 10,8 °C 16,1 °C 4,8 km/h (1 Bft)
26.07.2023 22:42 22,3 °C 16,1 °C 55 % 71 % 1012,9 hPa 0,0 l/m² 4,1 km/h (1 Bft) W-SW 253 ° 0 min 0 W/m² 10,8 °C 16,1 °C 6,4 km/h (2 Bft)
26.07.2023 22:44 22,3 °C 16,2 °C 55 % 71 % 1013,0 hPa 0,0 l/m² 2,6 km/h (1 Bft) W 271 ° 0 min 0 W/m² 10,9 °C 16,2 °C 6,4 km/h (2 Bft)
26.07.2023 22:45 22,3 °C 16,2 °C 55 % 71 % 1013,0 hPa 0,0 l/m² 2,2 km/h (1 Bft) W 264 ° 0 min 0 W/m² 10,9 °C 16,2 °C 6,4 km/h (2 Bft)
26.07.2023 22:47 22,3 °C 16,2 °C 55 % 71 % 1012,9 hPa 0,0 l/m² 2,1 km/h (1 Bft) W 265 ° 0 min 0 W/m² 10,9 °C 16,2 °C 6,4 km/h (2 Bft)
26.07.2023 22:49 22,3 °C 16,2 °C 55 % 71 % 1013,0 hPa 0,0 l/m² 1,4 km/h (1 Bft) W 270 ° 0 min 0 W/m² 10,9 °C 16,2 °C 4,8 km/h (1 Bft)
26.07.2023 22:50 22,3 °C 16,2 °C 55 % 71 % 1013,0 hPa 0,0 l/m² 0,0 km/h (0 Bft) W 270 ° 0 min 0 W/m² 10,9 °C 16,2 °C 0,0 km/h (0 Bft)
26.07.2023 22:51 22,3 °C 16,2 °C 55 % 71 % 1013,0 hPa 0,0 l/m² 0,2 km/h (0 Bft) W 270 ° 0 min 0 W/m² 10,9 °C 16,2 °C 1,6 km/h (1 Bft)
26.07.2023 22:52 22,3 °C 16,2 °C 55 % 71 % 1013,0 hPa 0,0 l/m² 0,1 km/h (0 Bft) W 270 ° 0 min 0 W/m² 10,9 °C 16,2 °C 1,6 km/h (1 Bft)
26.07.2023 22:54 22,3 °C 16,2 °C 55 % 71 % 1013,0 hPa 0,0 l/m² 2,3 km/h (1 Bft) W 262 ° 0 min 0 W/m² 10,9 °C 16,2 °C 6,4 km/h (2 Bft)
26.07.2023 22:55 22,3 °C 16,2 °C 55 % 71 % 1012,9 hPa 0,0 l/m² 0,7 km/h (0 Bft) W 262 ° 0 min 0 W/m² 10,9 °C 16,2 °C 1,6 km/h (1 Bft)
26.07.2023 22:57 22,3 °C 16,2 °C 55 % 71 % 1012,9 hPa 0,0 l/m² 1,0 km/h (0 Bft) W 262 ° 0 min 0 W/m² 10,9 °C 16,2 °C 3,2 km/h (1 Bft)
26.07.2023 22:59 22,3 °C 16,2 °C 55 % 71 % 1012,9 hPa 0,0 l/m² 0,7 km/h (0 Bft) W 262 ° 0 min 0 W/m² 10,9 °C 16,2 °C 3,2 km/h (1 Bft)
26.07.2023 23:00 22,3 °C 16,2 °C 55 % 72 % 1013,0 hPa 0,0 l/m² 1,8 km/h (1 Bft) W 262 ° 0 min 0 W/m² 11,1 °C 16,2 °C 4,8 km/h (1 Bft)
26.07.2023 23:01 22,3 °C 16,2 °C 55 % 72 % 1013,0 hPa 0,0 l/m² 1,6 km/h (1 Bft) W 262 ° 0 min 0 W/m² 11,1 °C 16,2 °C 3,2 km/h (1 Bft)
26.07.2023 23:02 22,3 °C 16,2 °C 55 % 72 % 1013,0 hPa 0,0 l/m² 2,7 km/h (1 Bft) W 262 ° 0 min 0 W/m² 11,1 °C 16,2 °C 3,2 km/h (1 Bft)
26.07.2023 23:04 22,3 °C 16,2 °C 55 % 72 % 1013,0 hPa 0,0 l/m² 2,0 km/h (1 Bft) W 262 ° 0 min 0 W/m² 11,1 °C 16,2 °C 4,8 km/h (1 Bft)
26.07.2023 23:06 22,2 °C 16,2 °C 55 % 72 % 1013,0 hPa 0,0 l/m² 1,2 km/h (1 Bft) W 262 ° 0 min 0 W/m² 11,1 °C 16,2 °C 3,2 km/h (1 Bft)
26.07.2023 23:08 22,3 °C 16,2 °C 55 % 72 % 1013,0 hPa 0,0 l/m² 1,0 km/h (0 Bft) W 262 ° 0 min 0 W/m² 11,1 °C 16,2 °C 4,8 km/h (1 Bft)
26.07.2023 23:10 22,3 °C 16,2 °C 55 % 72 % 1013,0 hPa 0,0 l/m² 1,9 km/h (1 Bft) W 273 ° 0 min 0 W/m² 11,1 °C 16,2 °C 4,8 km/h (1 Bft)
26.07.2023 23:11 22,3 °C 16,2 °C 55 % 72 % 1013,0 hPa 0,0 l/m² 2,3 km/h (1 Bft) W-NW 286 ° 0 min 0 W/m² 11,1 °C 16,2 °C 4,8 km/h (1 Bft)
26.07.2023 23:12 22,3 °C 16,2 °C 55 % 72 % 1013,0 hPa 0,0 l/m² 2,3 km/h (1 Bft) W-NW 286 ° 0 min 0 W/m² 11,1 °C 16,2 °C 4,8 km/h (1 Bft)
26.07.2023 23:13 22,3 °C 16,2 °C 55 % 72 % 1013,0 hPa 0,0 l/m² 2,4 km/h (1 Bft) W-NW 296 ° 0 min 0 W/m² 11,1 °C 16,2 °C 6,4 km/h (2 Bft)
26.07.2023 23:15 22,3 °C 16,2 °C 55 % 72 % 1013,0 hPa 0,0 l/m² 1,1 km/h (1 Bft) W-NW 283 ° 0 min 0 W/m² 11,1 °C 16,2 °C 4,8 km/h (1 Bft)
26.07.2023 23:16 22,2 °C 16,2 °C 55 % 72 % 1012,9 hPa 0,0 l/m² 3,2 km/h (1 Bft) W 270 ° 0 min 0 W/m² 11,1 °C 16,2 °C 6,4 km/h (2 Bft)
26.07.2023 23:17 22,3 °C 16,1 °C 55 % 72 % 1013,0 hPa 0,0 l/m² 3,2 km/h (1 Bft) W 270 ° 0 min 0 W/m² 11,0 °C 16,1 °C 6,4 km/h (2 Bft)
26.07.2023 23:22 22,3 °C 16,1 °C 55 % 72 % 1013,0 hPa 0,0 l/m² 0,0 km/h (0 Bft) W 270 ° 0 min 0 W/m² 11,0 °C 16,1 °C 0,0 km/h (0 Bft)
26.07.2023 23:26 22,2 °C 16,0 °C 55 % 72 % 1013,0 hPa 0,0 l/m² 2,5 km/h (1 Bft) SW 229 ° 0 min 0 W/m² 11,0 °C 16,0 °C 3,2 km/h (1 Bft)
26.07.2023 23:28 22,2 °C 15,9 °C 55 % 72 % 1012,9 hPa 0,0 l/m² 0,8 km/h (0 Bft) SW 229 ° 0 min 0 W/m² 10,9 °C 15,9 °C 3,2 km/h (1 Bft)
26.07.2023 23:30 22,2 °C 15,9 °C 55 % 72 % 1013,0 hPa 0,0 l/m² 0,0 km/h (0 Bft) SW 229 ° 0 min 0 W/m² 10,9 °C 15,9 °C 0,0 km/h (0 Bft)
26.07.2023 23:31 22,2 °C 15,9 °C 55 % 72 % 1013,1 hPa 0,0 l/m² 0,0 km/h (0 Bft) SW 229 ° 0 min 0 W/m² 10,9 °C 15,9 °C 0,0 km/h (0 Bft)
26.07.2023 23:32 22,2 °C 15,9 °C 55 % 72 % 1013,1 hPa 0,0 l/m² 1,0 km/h (0 Bft) SW 229 ° 0 min 0 W/m² 10,9 °C 15,9 °C 1,6 km/h (1 Bft)
26.07.2023 23:33 22,2 °C 15,9 °C 55 % 72 % 1013,1 hPa 0,0 l/m² 1,4 km/h (1 Bft) SW 229 ° 0 min 0 W/m² 10,9 °C 15,9 °C 3,2 km/h (1 Bft)
26.07.2023 23:34 22,2 °C 15,9 °C 55 % 72 % 1013,0 hPa 0,0 l/m² 1,7 km/h (1 Bft) SW 229 ° 0 min 0 W/m² 10,9 °C 15,9 °C 3,2 km/h (1 Bft)
26.07.2023 23:36 22,2 °C 15,9 °C 55 % 72 % 1013,1 hPa 0,0 l/m² 1,7 km/h (1 Bft) SW 229 ° 0 min 0 W/m² 10,9 °C 15,9 °C 3,2 km/h (1 Bft)
26.07.2023 23:38 22,2 °C 15,9 °C 55 % 73 % 1013,1 hPa 0,0 l/m² 3,3 km/h (1 Bft) SW 229 ° 0 min 0 W/m² 11,1 °C 15,9 °C 4,8 km/h (1 Bft)
26.07.2023 23:40 22,2 °C 15,8 °C 55 % 73 % 1013,1 hPa 0,0 l/m² 4,3 km/h (1 Bft) W-SW 245 ° 0 min 0 W/m² 11,0 °C 15,8 °C 6,4 km/h (2 Bft)
26.07.2023 23:41 22,2 °C 15,8 °C 55 % 73 % 1013,1 hPa 0,0 l/m² 4,3 km/h (1 Bft) W-SW 246 ° 0 min 0 W/m² 11,0 °C 15,8 °C 4,8 km/h (1 Bft)
26.07.2023 23:42 22,2 °C 15,8 °C 55 % 73 % 1013,1 hPa 0,0 l/m² 2,6 km/h (1 Bft) W-SW 246 ° 0 min 0 W/m² 11,0 °C 15,8 °C 3,2 km/h (1 Bft)
26.07.2023 23:44 22,2 °C 15,7 °C 55 % 73 % 1013,0 hPa 0,0 l/m² 2,8 km/h (1 Bft) W-SW 246 ° 0 min 0 W/m² 10,9 °C 15,7 °C 4,8 km/h (1 Bft)
26.07.2023 23:45 22,2 °C 15,7 °C 55 % 73 % 1013,1 hPa 0,0 l/m² 3,1 km/h (1 Bft) W-SW 246 ° 0 min 0 W/m² 10,9 °C 15,7 °C 4,8 km/h (1 Bft)
26.07.2023 23:47 22,2 °C 15,7 °C 55 % 73 % 1013,0 hPa 0,0 l/m² 0,8 km/h (0 Bft) W-SW 246 ° 0 min 0 W/m² 10,9 °C 15,7 °C 3,2 km/h (1 Bft)
26.07.2023 23:49 22,2 °C 15,7 °C 55 % 73 % 1013,0 hPa 0,0 l/m² 0,9 km/h (0 Bft) W-SW 246 ° 0 min 0 W/m² 10,9 °C 15,7 °C 4,8 km/h (1 Bft)
26.07.2023 23:50 22,2 °C 15,6 °C 55 % 73 % 1013,1 hPa 0,0 l/m² 2,3 km/h (1 Bft) W-SW 246 ° 0 min 0 W/m² 10,8 °C 15,6 °C 4,8 km/h (1 Bft)
26.07.2023 23:51 22,2 °C 15,6 °C 55 % 74 % 1013,1 hPa 0,0 l/m² 3,7 km/h (1 Bft) W-SW 246 ° 0 min 0 W/m² 11,0 °C 15,6 °C 4,8 km/h (1 Bft)
26.07.2023 23:52 22,2 °C 15,6 °C 55 % 74 % 1013,1 hPa 0,0 l/m² 3,1 km/h (1 Bft) W-SW 246 ° 0 min 0 W/m² 11,0 °C 15,6 °C 4,8 km/h (1 Bft)
26.07.2023 23:54 22,2 °C 15,6 °C 55 % 74 % 1013,1 hPa 0,0 l/m² 4,2 km/h (1 Bft) W-SW 246 ° 0 min 0 W/m² 11,0 °C 15,6 °C 6,4 km/h (2 Bft)
26.07.2023 23:55 22,2 °C 15,6 °C 55 % 74 % 1013,1 hPa 0,0 l/m² 5,7 km/h (2 Bft) W-SW 238 ° 0 min 0 W/m² 11,0 °C 15,6 °C 6,4 km/h (2 Bft)
26.07.2023 23:57 22,2 °C 15,4 °C 55 % 74 % 1013,1 hPa 0,0 l/m² 4,1 km/h (1 Bft) SW 236 ° 0 min 0 W/m² 10,8 °C 15,4 °C 6,4 km/h (2 Bft)
26.07.2023 23:59 22,2 °C 15,4 °C 55 % 74 % 1013,1 hPa 0,0 l/m² 4,0 km/h (1 Bft) SW 236 ° 0 min 0 W/m² 10,8 °C 15,4 °C 4,8 km/h (1 Bft)
_ Min-Zeit 09:16 06:37 18:17 17:07 00:07 - 23:31 - - - - 15:47 12:18 23:31
Minimum _ 22,1 °C 11,6 °C 54 % 39 % 1007,8 hPa - 0,0 km/h (0 Bft) - - - - 8,1 °C 10,4 °C 0,0 km/h (0 Bft)
_ Max-Zeit 21:32 17:07 06:27 01:30 23:59 23:59 11:54 - - 08:56 12:29 10:32 18:08 17:14
Maximum _ 22,6 °C 23,7 °C 57 % 90 % 1013,1 hPa 0,0 l/m² 30,4 km/h
W-SW (5 Bft)
- - 3 min 1120 W/m² 12,7 °C 23,3 °C 46,7 km/h
W-NW (6 Bft)
Durchschnitt _ 22,3 °C 16,9 °C 55 % 70 % 1010,9 hPa #0,0 l/m² 8,1 km/h (2 Bft) W-SW - #12:37 h 236 W/m² 10,8 °C 15,8 °C 12,5 km/h (2 Bft)
© 2009 Mathias Hoßbach